     2              OBSERVATION DATA                        RINEX VERSION / TYPE
DAT2RIN 1.01d Dan Johnson 14SEP96 6:26:41 GMT               PGM / RUN BY / DATE
Mojave '96 team Central Washington U                        OBSERVER / AGENCY
16329 TRIMBLE 4000SSI Nav 7.09 Sig 3.03                     REC # / TYPE / VERS
66919 TRIMBLE CHOKE                                         ANT # / TYPE
MOND MONDAY                                                 MARKER NAME
 -2439737.0000 -4645851.0000  3615005.0000                  APPROX POSITION XYZ
        0.0614        0.0000        0.0000                  ANTENNA: DELTA H/E/N
     1     1     0                                          WAVELENGTH FACT L1/2
     4    L1    C1    L2    P2                              # / TYPES OF OBSERV
    30                                                      INTERVAL
                                                            COMMENT
PANGA GPS Data Analysis Center                              COMMENT
Department of Geology                                       COMMENT
Central Washington University                               COMMENT
Ellensburg, WA 98926                                        COMMENT
                                                            COMMENT
http://www.panga.cwu.edu                                    COMMENT
ftp://panga.cwu.edu                                         COMMENT
                                                            COMMENT
  1996     9     9     1     8   30.000000                  TIME OF FIRST OBS
  1996     9     9    14    54   30.000000                  TIME OF LAST OBS
    22                                                      # OF SATELLITES
           1     8     8     8     8                        PRN / # OF OBS
           2   856   856   845   845                        PRN / # OF OBS
           3   371   371   367   367                        PRN / # OF OBS
           4   769   769   763   763                        PRN / # OF OBS
           5   517   517   513   513                        PRN / # OF OBS
           6   206   207   202   202                        PRN / # OF OBS
           7   743   744   739   739                        PRN / # OF OBS
           9   586   587   583   583                        PRN / # OF OBS
          10   588   588   570   570                        PRN / # OF OBS
          14   463   463   463   463                        PRN / # OF OBS
          15   477   477   474   474                        PRN / # OF OBS
          16   612   612   605   605                        PRN / # OF OBS
          17    28    28    26    26                        PRN / # OF OBS
          18   769   769   765   765                        PRN / # OF OBS
          19   859   859   857   857                        PRN / # OF OBS
          22   490   490   490   490                        PRN / # OF OBS
          24   539   539   537   537                        PRN / # OF OBS
          25   207   207   207   207                        PRN / # OF OBS
          26   458   458   453   453                        PRN / # OF OBS
          27   824   824   821   821                        PRN / # OF OBS
          29   602   602   601   601                        PRN / # OF OBS
          31   506   506   504   504                        PRN / # OF OBS
                                                            END OF HEADER
 96  9  9  1  8 30.0000000  0  6  1 14 15 22 25 29
   1107551.71910  24807274.72700    649908.16950  24807279.60240
   -321137.79810  21234097.14800   -220201.85450  21234101.68440
   1019598.96710  21693959.64800    708442.77750  21693964.57040
   -617980.84910  23155292.05500   -394605.92450  23155297.52740
    938057.47310  21563720.51600    656014.55350  21563723.87940
   -107366.73410  21880756.50000    -74104.80150  21880760.13340
 96  9  9  1  9  0.0000000  0  6  1 14 15 22 25 29
   1214809.44200  24827685.92200    733485.60540  24827690.69140
   -349677.70100  21228666.29700   -242440.73040  21228670.65640
   1119809.99900  21713028.93800    786529.27340  21713034.07040
   -675507.67400  23144344.93000   -439431.96640  23144350.03940
   1029894.43400  21581196.66400    727575.81940  21581199.95740
   -116321.30700  21879052.41400    -81082.37740  21879056.08240
 96  9  9  1  9 30.0000000  0  6  1 14 15 22 25 29
   1322141.41600  24848109.95300    817120.90940  24848115.89540
   -377860.90000  21223303.21100   -264401.65340  21223307.60540
   1220529.79900  21732195.48400    865012.21640  21732200.68840
   -732819.16500  23133438.96900   -484090.20840  23133445.47340
   1122129.19500  21598748.60900    799447.06440  21598751.79740
   -125089.51600  21877383.83600    -87914.72840  21877387.49240
 96  9  9  1 10  0.0000000  0  6  1 14 15 22 25 29
   1429530.26300  24868545.52300    900800.55640  24868552.40640
   -405666.20900  21218011.62500   -286068.11640  21218015.99640
   1321762.52800  21751459.58600    943894.83840  21751464.53140
   -789909.21400  23122575.01600   -528575.93240  23122580.45340
   1214761.73800  21616375.88300    871628.26240  21616379.32840
   -133655.32900  21875753.85200    -94589.37340  21875757.81340
 96  9  9  1 10 30.0000000  0  6  1 14 15 22 25 29
   1536950.73800  24888987.21100    984504.79040  24888992.49640
   -433099.73600  21212791.34400   -307444.88140  21212795.73840
   1423499.64000  21770819.43000   1023170.48640  21770824.41040
   -846768.12800  23111754.43800   -572881.51940  23111759.18440
   1307782.59800  21634077.14800    944112.04840  21634080.57040
   -142019.06600  21874162.33600   -101106.55640  21874166.01640
 96  9  9  1 11  0.0000000  0  6  1 14 15 22 25 29
   1644384.13200  24909430.95300   1068219.09940  24909435.54740
   -460155.70200  21207643.03100   -328527.44240  21207647.43840
   1525724.61400  21790272.00000   1102826.28940  21790277.00440
   -903397.15500  23100979.11700   -617007.96940  23100983.80540
   1401182.63500  21651850.40600   1016891.29840  21651853.87540
   -150183.26300  21872608.76600   -107468.24940  21872612.16440
 96  9  9  1 11 30.0000000  0  6  1 14 15 22 25 29
   1751842.97200  24929879.28900   1151953.26040  24929883.73040
   -486819.20100  21202569.02300   -349304.18940  21202573.47740
   1628443.43000  21809819.00800   1182866.90340  21809823.97740
   -959803.87300  23090245.29700   -660961.20540  23090250.60540
   1494985.79300  21669700.43800   1089984.66440  21669703.89540
   -158134.94800  21871095.60200   -113664.35340  21871098.94140
 96  9  9  1 12  0.0000000  0  6  1 14 15 22 25 29
   1859338.53700  24950335.36700   1235715.96040  24950342.42640
   -513101.87800  21197567.44500   -369784.19040  21197571.79340
   1731664.84100  21829461.15600   1263299.15940  21829466.25440
  -1015967.35200  23079557.64800   -704724.90640  23079563.02740
   1589209.72700  21687630.70300   1163405.90940  21687634.12540
   -165866.41100  21869624.22700   -119688.85340  21869627.95340
 96  9  9  1 12 30.0000000  0  5 14 15 22 25 29
   -539019.81600  21192635.50000   -389979.97640  21192639.93040
   1835381.96700  21849198.05500   1344117.68040  21849203.22340
  -1071876.86700  23068917.96100   -748290.69040  23068923.24640
   1683849.46300  21705640.18800   1237151.15640  21705643.59840
   -173393.54700  21868191.94500   -125554.13940  21868195.52040
 96  9  9  1 13  0.0000000  0  5 14 15 22 25 29
   -564579.38600  21187771.70300   -409896.51940  21187775.92240
   1939589.57700  21869028.03900   1425318.39640  21869033.06640
  -1127531.52100  23058327.53100   -791657.89440  23058332.67640
   1778914.05300  21723730.43800   1311227.45540  21723733.67240
   -180726.48000  21866796.46900   -131268.09840  21866800.10240
 96  9  9  1 13 30.0000000  0  5 14 15 22 25 29
   -589801.81600  21182971.86700   -429550.35540  21182976.07440
   2044273.41300  21888948.78100   1506890.19140  21888953.82040
  -1182929.03300  23047785.68800   -834824.75440  23047791.79340
   1874383.87600  21741897.67200   1385619.51940  21741901.14140
   -187891.04700  21865432.97700   -136850.85940  21865436.50440
 96  9  9  1 14  0.0000000  0  5 14 15 22 25 29
   -614695.93300  21178234.84400   -448948.36140  21178239.10940
   2149424.67200  21908958.34400   1588826.21440  21908963.23040
  -1238060.62100  23037294.57000   -877784.36140  23037299.97340
   1970237.01800  21760137.92200   1460310.27640  21760141.14540
   -194885.48400  21864102.17200   -142301.05440  21864105.69940
 96  9  9  1 14 30.0000000  0  5 14 15 22 25 29
   -639240.03900  21173564.14800   -468073.63340  21173568.42640
   2255054.33700  21929059.23400   1671135.03040  21929064.29740
  -1292920.75600  23026855.13300   -920532.47140  23026860.07840
   2066485.03700  21778453.34400   1535308.72440  21778456.82440
   -201694.91500  21862806.41400   -147607.09440  21862809.91840
 96  9  9  1 15  0.0000000  0  5 14 15 22 25 29
   -663412.85100  21168964.24200   -486909.58240  21168968.53140
   2361168.25000  21949252.00800   1753821.17740  21949257.27040
  -1347500.56900  23016468.80500   -963062.15140  23016473.87940
   2163146.39700  21796847.33600   1610629.26040  21796850.91040
   -208297.24600  21861549.92200   -152751.75140  21861553.68440
 96  9  9  1 15 30.0000000  0  5 14 15 22 25 29
   -687217.27300  21164434.46100   -505458.47640  21164438.76240
   2467752.58000  21969534.35900   1836873.88440  21969539.18840
  -1401815.25800  23006132.96100  -1005385.23740  23006138.04740
   2260197.91000  21815315.77300   1686253.80940  21815319.04340
   -214696.18200  21860332.13300   -157737.92840  21860335.69540
 96  9  9  1 16  0.0000000  0  5 14 15 22 25 29
   -710649.22200  21159975.44500   -523717.13140  21159979.65240
   2574804.02900  21989905.63300   1920290.58540  21989910.54340
  -1455869.31800  22995846.59400  -1047505.23140  22995851.83240
   2357632.47600  21833856.79700   1762176.84540  21833860.21940
   -220887.76800  21859153.87500   -162562.52340  21859157.40240
 96  9  9  1 16 30.0000000  0  5 14 15 22 25 29
   -733688.98000  21155591.13300   -541670.18440  21155595.37540
   2682326.36100  22010366.31300   2004074.19740  22010371.36340
  -1509659.76400  22985610.49200  -1089419.81940  22985616.07040
   2455461.10000  21852473.02300   1838406.93440  21852476.59840
   -226867.66300  21858016.03900   -167222.17140  21858019.69540
 96  9  9  1 17  0.0000000  0  5 14 15 22 25 29
   -756331.36400  21151282.63300   -559313.59540  21151286.85240
   2790306.91200  22030914.16400   2088214.86540  22030919.42640
  -1563188.89800  22975424.37500  -1131130.79240  22975429.80140
   2553659.91100  21871159.57000   1914925.47840  21871162.99240
   -232646.26900  21856916.35200   -171724.97240  21856919.94940
 96  9  9  1 17 30.0000000  0  5 14 15 22 25 29
   -778584.56500  21147047.81300   -576653.74340  21147052.07840
   2898733.07800  22051547.05500   2172702.77040  22051552.17640
  -1616474.88500  22965284.69500  -1172652.28940  22965289.93440
   2652190.57900  21889909.41400   1991702.61640  21889912.96540
   -238247.95200  21855850.37500   -176089.91240  21855853.98440
 96  9  9  1 18  0.0000000  0  5 14 15 22 25 29
   -800432.91100  21142890.10200   -593678.42240  21142894.55540
   3007612.73100  22072266.37500   2257544.03740  22072271.46140
  -1669494.50800  22955195.10200  -1213966.23740  22955200.99640
   2751063.36000  21908724.22700   2068746.33340  21908727.74240
   -243668.49500  21854818.97700   -180313.69940  21854822.51640
 96  9  9  1 18 30.0010000  0  5 14 15 22 25 29
   -821891.50200  21138806.78600   -610399.39640  21138811.06340
   3116935.12200  22093069.46600   2342730.29340  22093074.69240
  -1722255.49800  22945154.81700  -1255078.65840  22945159.70440
   2850273.23000  21927603.11400   2146052.72040  21927606.29040
   -248922.54300  21853818.91900   -184407.75640  21853822.51740
 96  9  9  1 19  0.0010000  0  5 14 15 22 25 29
   -842989.45600  21134791.86400   -626839.35240  21134796.08340
   3226673.36300  22113952.13800   2428240.58940  22113957.28240
  -1774761.00000  22935163.36400  -1295991.99440  22935168.56740
   2949785.11900  21946539.93500   2223594.44040  21946543.39240
   -254031.60200  21852846.86400   -188388.83540  21852850.34540
 96  9  9  1 19 30.0010000  0  5 14 15 22 25 29
   -863711.44900  21130848.77800   -642986.35540  21130852.95040
   3336850.17400  22134918.14600   2514092.62740  22134923.26740
  -1826987.91300  22925225.04400  -1336688.24740  22925229.75540
   3049636.03600  21965540.81000   2301400.35040  21965544.05640
   -258966.78400  21851907.68500   -192234.42240  21851911.07140
 96  9  9  1 20  0.0010000  0  5 14 15 22 25 29
   -884075.39200  21126973.72400   -658854.35840  21126978.07140
   3447454.80000  22155965.38800   2600278.03440  22155970.36840
  -1878927.96000  22915340.91100  -1377160.97640  22915346.30240
   3149831.30000  21984607.38800   2379474.57140  21984610.71640
   -263728.62700  21851001.73100   -195944.94540  21851005.23540
 96  9  9  1 20 30.0010000  0  5 14 15 22 25 29
   -904086.88200  21123165.44200   -674447.72340  21123169.68540
   3558471.99000  22177091.81700   2686784.91240  22177097.12640
  -1930603.36400  22905507.62200  -1417427.48440  22905512.45040
   3250351.47500  22003735.66900   2457801.97640  22003739.02140
   -268325.38000  21850126.63000   -199526.82040  21850130.18140
 96  9  9  1 21  0.0010000  0  5 14 15 22 25 29
   -923718.28200  21119429.96600   -689744.91040  21119434.30240
   3669914.86800  22198298.29400   2773623.50140  22198303.62640
  -1981991.24000  22895728.58300  -1457469.94640  22895733.58740
   3351216.87400  22022929.73900   2536398.38640  22022933.25540
   -272736.89500  21849287.40300   -202964.35640  21849290.73140
 96  9  9  1 21 30.0010000  0  5 14 15 22 25 29
   -942938.56700  21115772.35600   -704721.75040  21115776.68140
   3781800.12700  22219589.52800   2860806.79840  22219594.53240
  -2033069.85100  22886008.52100  -1497271.42740  22886013.38440
   3452451.23700  22042193.97400   2615282.30240  22042197.31340
   -276942.34900  21848486.99700   -206241.32340  21848490.54840
 96  9  9  1 22  0.0010000  0  5 14 15 22 25 29
   -961783.64000  21112186.06000   -719406.21340  21112190.48940
   3894084.29500  22240956.47400   2948300.93140  22240961.59540
  -2083880.81600  22876339.96600  -1536864.34040  22876344.95840
   3554003.41300  22061518.95000   2694413.85940  22061522.24340
   -280996.62900  21847715.58300   -209400.49340  21847719.01740
 96  9  9  1 22 30.0010000  0  5 14 15 22 25 29
   -980224.71800  21108676.88800   -733775.88440  21108681.27140
   4006782.44200  22262402.06000   3036117.64740  22262406.98140
  -2134413.00500  22866723.77800  -1576240.04040  22866728.72440
   3655890.79400  22080907.18500   2773806.62640  22080910.39640
   -284876.27500  21846977.41900   -212423.58140  21846980.79440
 96  9  9  1 23  0.0010000  0  5 14 15 22 25 29
   -998292.84500  21105238.91900   -747854.93840  21105243.33740
   4119873.35300  22283922.77100   3124240.41040  22283927.63440
  -2184669.08400  22857160.18500  -1615400.58640  22857165.22440
   3758102.61800  22100357.45800   2853452.19740  22100361.03240
   -288602.43200  21846268.16900   -215327.07540  21846271.57940
 96  9  9  1 23 30.0010000  0  5 14 15 22 25 29
  -1015991.36700  21101870.59900   -761645.98840  21101874.98140
   4233356.67200  22305517.96600   3212668.94940  22305523.15740
  -2234653.21900  22847648.57500  -1654349.22840  22847653.90740
   3860626.39900  22119867.04400   2933340.85240  22119870.54840
   -292177.37100  21845588.00500   -218112.72640  21845591.49740
 96  9  9  1 24  0.0010000  0  5 14 15 22 25 29
  -1033313.92600  21098574.31700   -775144.08440  21098578.64240
   4347240.35000  22327188.95800   3301409.45340  22327193.84540
  -2284348.48800  22838191.98900  -1693072.77940  22838197.32140
   3963472.53800  22139438.06000   3013480.69940  22139441.39940
   -295588.83200  21844938.62200   -220771.00040  21844941.95040
 96  9  9  1 24 30.0010000  0  5 14 15 22 25 29
  -1050269.00000  21095348.01300   -788355.82340  21095352.33740
   4461513.68800  22348934.77800   3390453.59340  22348939.89940
  -2333757.05400  22828789.56000  -1731572.93440  22828794.72840
   4066632.88600  22159068.86400   3093865.38040  22159072.54440
   -298826.51900  21844322.65300   -223293.86440  21844326.15740
 96  9  9  1 25  0.0010000  0  5 14 15 22 25 29
  -1066852.95200  21092191.91900   -801278.37640  21092196.41940
   4576170.32800  22370753.10600   3479796.41040  22370758.22840
  -2382868.68900  22819444.03600  -1769841.70740  22819448.97040
   4170106.53200  22178759.30200   3174494.18540  22178762.67740
   -301892.38500  21843739.06000   -225682.83740  21843742.49340
 96  9  9  1 25 30.0010000  0  5 14 15 22 25 29
  -1083050.67200  21089109.67700   -813899.97440  21089113.81340
   4691200.85600  22392642.81700   3569430.56240  22392647.62240
  -2431690.82700  22810153.70000  -1807884.90140  22810158.54040
   4273878.66100  22198506.41900   3255355.57840  22198509.98140
   -304780.16600  21843189.59900   -227933.04740  21843193.10340
 96  9  9  1 26  0.0010000  0  5 14 15 22 25 29
  -1098837.99900  21086105.55200   -826201.77940  21086109.86440
   4806614.83700  22414605.39600   3659363.51540  22414610.62240
  -2480193.44800  22800923.48900  -1845679.11140  22800928.32940
   4377972.25300  22218314.81000   3336467.46540  22218318.05640
   -307463.85400  21842678.94200   -230024.22240  21842682.62240
 96  9  9  1 26 30.0010000  0  5 14 15 22 25 29
  -1114211.79200  21083180.06700   -838181.35940  21083184.46240
   4922400.54100  22436638.70800   3749586.11640  22436644.11040
  -2528381.99300  22791753.20000  -1883228.59540  22791758.19240
   4482376.75400  22238182.41100   3417821.61240  22238185.93840
   -309950.94300  21842205.58300   -231962.20640  21842209.08740
 96  9  9  1 27  0.0010000  0  6 14 15 18 22 25 29
  -1129164.73100  21080334.63800   -849832.99540  21080338.90340
   5038555.31900  22458741.92700   3840096.29840  22458747.16540
    -35143.67810  25067642.44200
  -2576244.09400  22782645.91100  -1920523.71340  22782650.83340
   4587085.66000  22258107.82500   3499412.95540  22258111.36440
   -312257.42800  21841766.73900   -233759.46140  21841770.18540
 96  9  9  1 27 30.0010000  0  6 14 15 18 22 25 29
  -1143698.12500  21077568.98900   -861157.71240  21077573.40740
   5155075.54200  22480915.20800   3930891.25140  22480920.39940
    -80947.74300  25058927.60600
  -2623789.02500  22773597.84100  -1957571.68240  22773602.69240
   4692088.76500  22278089.34100   3581233.54440  22278092.82140
   -314407.67900  21841357.52100   -235434.97040  21841360.93140
 96  9  9  1 28  0.0010000  0  6 14 15 18 22 25 29
  -1157804.93800  21074884.58300   -872150.02440  21074889.02440
   5271968.57700  22503159.09100   4021976.70140  22503164.47040
   -126705.18700  25050219.96600    -28521.06650  25050223.71640
  -2671003.77400  22764613.46600  -1994362.36340  22764618.45840
   4797400.97600  22298129.60600   3663295.00640  22298132.97040
   -316404.32000  21840977.69200   -236990.79140  21840981.14940
 96  9  9  1 28 30.0010000  0  6 14 15 18 22 25 29
  -1171494.09800  21072279.57500   -882816.89140  21072284.01740
   5389220.49900  22525471.58300   4113341.81640  22525476.98540
   -172443.95000  25041515.27100    -64161.54240  25041520.04040
  -2717909.23100  22755687.45000  -2030912.02240  22755693.00540
   4902998.62800  22318224.12200   3745578.88340  22318227.49740
   -318275.99200  21840621.47400   -238449.22440  21840624.96640
 96  9  9  1 29  0.0010000  0  6 14 15 18 22 25 29
  -1184769.67900  21069753.35600   -893161.49140  21069757.64640
   5506831.31700  22547852.30200   4204986.58240  22547857.35340
   -218157.77300  25032816.95000    -99782.68040  25032821.90740
  -2764501.36600  22746821.31700  -2067217.55840  22746826.93140
   5008889.34000  22338374.45800   3828091.11940  22338377.90340
   -320025.57400  21840288.47400   -239812.53040  21840291.98940
 96  9  9  1 29 30.0010000  0  6 14 15 18 22 25 29
  -1197638.45400  21067304.46600   -903189.09340  21067308.80240
   5624796.01700  22570300.31700   4296907.10340  22570305.34540
   -263829.16000  25024124.67700   -135370.77540  25024130.89940
  -2810786.79400  22738013.58300  -2103284.08040  22738019.10340
   5115073.69500  22358580.55200   3910832.16640  22358584.14940
   -321636.22700  21839981.99700   -241067.57340  21839985.40740
 96  9  9  1 30  0.0010000  0  6 14 15 18 22 25 29
  -1210098.65600  21064933.08300   -912898.33140  21064937.37240
   5743120.08200  22592816.62200   4389107.65140  22592821.81340
   -309431.58400  25015447.21600   -170905.09040  25015453.31040
  -2856747.72500  22729267.62200  -2139097.76540  22729272.52140
   5221553.02600  22378842.81700   3993803.06740  22378846.05240
   -323072.40900  21839708.72400   -242186.67040  21839712.19240
 96  9  9  1 30 30.0010000  0  6 14 15 18 22 25 29
  -1222174.00100  21062635.50500   -922307.68240  21062639.74740
   5861789.01700  22615398.38000   4481576.92840  22615403.20840
   -354974.18900  25006780.45800
  -2902387.76900  22720582.56000  -2174661.41240  22720587.54040
   5328303.21400  22399156.75500   4076985.02340  22399160.34140
   -324343.55900  21839466.79400   -243177.17040  21839470.25140
 96  9  9  1 31  0.0010000  0  6 14 15 18 22 25 29
  -1233872.58000  21060409.16900   -931423.44940  21060413.36440
   5980795.85200  22638044.75500   4574309.50140  22638049.78240
   -400468.51500  24998123.41900
  -2947701.74100  22711959.57500  -2209970.96040  22711964.45040
   5435327.23900  22419522.74700   4160380.36540  22419526.20440
   -325439.90400  21839257.98100   -244031.45540  21839261.52140
 96  9  9  1 31 30.0010000  0  6 14 15 18 22 25 29
  -1245177.76100  21058257.99700   -940232.67040  21058262.33340
   6100143.26400  22660755.77800   4667307.45340  22660761.19240
   -445912.56800  24989475.97400     -8257.70150  24989484.29840
  -2992685.61700  22703399.40300  -2245023.29740  22703404.36040
   5542618.26300  22439939.41900   4243983.75340  22439943.04040
   -326353.58700  21839084.34900   -244743.40740  21839087.78240
 96  9  9  1 32  0.0010000  0  6 14 15 18 22 25 29
  -1256082.99100  21056182.79400   -948730.24340  21056187.02440
   6219819.00700  22683529.41100   4760561.25340  22683535.01340
   -491334.50900  24980832.59900    -43651.42440  24980835.23540
  -3037336.12000  22694902.80200  -2279815.86940  22694908.28640
   5650165.94100  22460405.18500   4327787.13440  22460408.65340
   -327112.14000  21838939.95800   -245334.48240  21838943.45040
 96  9  9  1 32 30.0010000  0  6 14 15 18 22 25 29
  -1266567.12900  21054187.70800   -956899.69140  21054191.96240
   6339832.62200  22706367.07500   4854078.32840  22706372.63040
   -536729.27800  24972194.47400    -79023.93640  24972198.77440
  -3081630.77700  22686473.72400  -2314331.15540  22686478.27140
   5757993.77000  22480924.04400   4411808.81240  22480927.44240
   -327717.30600  21838824.84100   -245806.03040  21838828.23940
 96  9  9  1 33  0.0010000  0  6 14 15 18 22 25 29
  -1276621.87400  21052274.27100   -964734.55240  21052278.52440
   6460168.56900  22729266.43500   4947846.57640  22729271.72040
   -582101.46000  24963559.79400   -114378.82440  24963566.45040
  -3125584.87200  22678109.41900  -2348581.06740  22678114.34140
   5866093.27800  22501494.86400   4496042.19340  22501498.41540
   -328180.42100  21838736.61400   -246166.89040  21838739.89640
 96  9  9  1 33 30.0010000  0  6 14 15 18 22 25 29
  -1286241.81000  21050443.77800   -972230.59940  21050448.09140
   6580827.88800  22752227.17700   5041866.79340  22752232.57940
   -627422.65700  24954934.34100   -149694.01540  24954939.50940
  -3169192.39700  22669811.11400  -2382560.91940  22669815.47440
   5974458.40800  22522116.09900   4580482.55040  22522119.62640
   -328502.59900  21838675.09100   -246417.93140  21838678.27840
 96  9  9  1 34  0.0010000  0  6 14 15 18 22 25 29
  -1295431.74300  21048694.70000   -979391.57840  21048698.84940
   6701812.90200  22775249.95800   5136140.79940  22775255.19640
   -672675.56800  24946324.42700   -184955.96240  24946330.27440
  -3212436.77700  22661581.77100  -2416257.81840  22661587.00940
   6083092.66400  22542788.33300   4665132.60940  22542791.56740
   -328675.56900  21838642.53600   -246552.70440  21838645.92340
 96  9  9  1 34 30.0010000  0  6 14 15 18 22 25 29
  -1304210.89400  21047024.18500   -986232.47140  21047028.41540
   6823115.79200  22798333.23100   5230662.50740  22798338.21240
   -717857.00200  24937726.73100   -220162.24340  24937732.04040
  -3255331.55400  22653419.34100  -2449682.28340  22653424.26340
   6191984.36800  22563509.91100   4749983.27840  22563513.31040
   -328691.63500  21838639.04400   -246565.20840  21838642.30240
 96  9  9  1 35  0.0010000  0  6 14 15 18 22 25 29
  -1312569.26800  21045433.64600   -992745.48540  21045437.93540
   6944733.45500  22821475.97400   5325429.48940  22821481.18840
   -762963.32400  24929143.30200   -255309.96240  24929147.54440
  -3297886.79200  22645321.23100  -2482842.17740  22645325.89640
   6301120.08200  22584277.84100   4835024.08840  22584281.19240
   -328543.07900  21838667.78600   -246449.43640  21838671.25540
 96  9  9  1 35 30.0010000  0  6 14 15 18 22 25 29
  -1320492.64700  21043925.88800   -998919.54240  21043930.04840
   7066681.78000  22844682.16900   5420454.12840  22844687.58340
   -807986.29300  24920575.54400   -290392.75840  24920580.72440
  -3340080.42200  22637292.25500  -2515720.30440  22637297.39940
   6410521.87500  22605096.06700   4920272.22440  22605099.40740
   -328208.83700  21838731.16900   -246188.98040  21838734.49740
 96  9  9  1 36  0.0010000  0  6 14 15 18 22 25 29
  -1327982.60400  21042500.70800  -1004755.86740  21042504.97440
   7188938.91100  22867947.01300   5515719.39940  22867952.69640
   -852965.17600  24912015.45000   -325441.17440  24912020.13840
  -3381932.48800  22629327.98900  -2548332.27940  22629332.72440
   6520175.05000  22625962.74700   5005716.25440  22625966.23940
   -327702.96400  21838827.41900   -245794.78140  21838830.81740
 96  9  9  1 36 30.0010000  0  6 14 15 18 22 25 29
  -1335025.55600  21041160.56000  -1010243.87940  21041164.86040
   7311494.73600  22891268.34900   5611217.41840  22891273.84540
   -897918.20800  24903461.31000   -360469.44340  24903467.60340
  -3423451.47000  22621427.46600  -2580684.69540  22621432.23540
   6630075.71900  22646876.06700   5091353.12940  22646879.52440
   -327035.64900  21838954.52800   -245274.78440  21838957.92740
 96  9  9  1 37  0.0010000  0  6 14 15 18 22 25 29
  -1341610.49600  21039907.34900  -1015374.99840  21039911.56740
   7434349.35600  22914647.26300   5706948.25840  22914652.47840
   -942838.29300  24894913.42700   -395472.12940  24894919.31040
  -3464626.72100  22613591.48900  -2612769.27740  22613596.24740
   6740240.61800  22667839.63000   5177195.90240  22667842.80640
   -326217.29600  21839110.13800   -244637.09240  21839113.70040
 96  9  9  1 37 30.0010000  0  6 14 15 18 22 25 29
  -1347747.78000  21038739.48100  -1020157.29240  21038743.70040
   7557498.08700  22938081.43500   5802908.27840  22938086.74340
   -987732.05600  24886369.98900   -430454.19940  24886374.53640
  -3505442.47100  22605824.64600  -2644573.73140  22605829.70840
   6850675.87200  22688854.83300   5263249.34140  22688858.20840
   -325253.53600  21839293.51300   -243886.09940  21839296.78240
 96  9  9  1 38  0.0010000  0  6 14 15 18 22 25 29
  -1353439.14900  21037656.45800  -1024592.12340  21037660.75940
   7680944.97600  22961572.77800   5899100.63540  22961577.97040
  -1032590.41400  24877834.25500   -465408.72440  24877840.52440
  -3545876.60900  22598130.30200  -2676080.81740  22598135.37640
   6961376.44000  22709920.35600   5349509.51840  22709923.64940
   -324139.99400  21839505.46600   -243018.39140  21839508.81740
 96  9  9  1 38 30.0010000  0  6 14 15 18 22 25 29
  -1358697.06900  21036655.73900  -1028689.20140  21036659.97040
   7804692.41600  22985121.13800   5995527.17840  22985126.43540
  -1077404.35200  24869305.98100   -500328.62840  24869308.02140
  -3585913.75600  22590511.53600  -2707278.56140  22590516.22440
   7072350.67700  22731037.87200   5435982.93940  22731041.41140
   -322877.55500  21839745.75500   -242034.66140  21839749.31740
 96  9  9  1 39  0.0010000  0  6 14 15 18 22 25 29
  -1363551.42300  21035732.09100  -1032471.81140  21035736.20440
   7928707.94700  23008720.24700   6092162.63840  23008725.39240
  -1122203.18200  24860781.93500   -535236.80440  24860786.03640
  -3625579.03500  22582963.53600  -2738186.53440  22582968.45840
   7183563.84700  22752201.16900   5522642.54340  22752204.76740
   -321479.41100  21840011.67700   -240945.18940  21840014.98140
 96  9  9  1 39 30.0010000  0  6 14 15 18 22 25 29
  -1367972.27900  21034890.94200  -1035916.63340  21034895.10340
   8053009.71300  23032374.51300   6189021.13740  23032379.77440
  -1166969.68300  24852262.73100   -570119.73940  24852267.82940
  -3664840.33800  22575492.13000  -2768779.73440  22575496.98140
   7295015.07000  22773409.70000   5609487.64840  22773413.29840
   -319904.11800  21840311.39600   -239717.67740  21840314.78240
 96  9  9  1 40  0.0010000  0  6 14 15 18 22 25 29
  -1371941.09000  21034135.68500  -1039009.21240  21034139.82140
   8177599.56600  23056082.83300   6286104.10740  23056088.07140
  -1211698.37200  24843751.80200   -604973.21440  24843757.95440
  -3703702.55100  22568097.01300  -2799061.94340  22568101.86440
   7406707.97800  22794664.35600   5696521.07740  22794667.46240
   -318141.91500  21840646.89600   -238344.52440  21840650.20040
 96  9  9  1 40 30.0010000  0  6 14 15 18 22 25 29
  -1375478.76800  21033462.44200  -1041765.84140  21033466.59140
   8302442.91400  23079839.90300   6383384.61940  23079844.96640
  -1256417.18500  24835241.34100   -639819.02440  24835247.92740
  -3742200.40900  22560771.14600  -2829060.24840  22560775.54040
   7518611.62900  22815959.02800   5783718.71340  22815962.31040
   -316226.61400  21841011.27100   -236852.06740  21841014.47040
 96  9  9  1 41  0.0010000  0  6 14 15 18 22 25 29
  -1378541.36400  21032879.60600  -1044152.28040  21032883.89640
   8427574.45400  23103651.56700   6480889.68840  23103656.97040
  -1301085.42800  24826740.44200   -674625.38540  24826746.00940
  -3780282.20400  22553524.12200  -2858734.34140  22553529.29040
   7630745.88300  22837297.40300   5871096.04940  22837300.50940
   -314124.44000  21841411.21600   -235214.00440  21841414.61440
 96  9  9  1 41 30.0020000  0  6 14 15 18 22 25 29
  -1381169.77600  21032379.59600  -1046200.38940  21032383.85040
   8552969.11900  23127513.40000   6578599.78640  23127518.60440
  -1345722.93600  24818247.07200   -709407.85540  24818252.00640
  -3817971.01700  22546352.52500  -2888102.21840  22546357.47140
   7743083.29500  22858674.18200   5958631.68540  22858677.39340
   -311881.50900  21841838.02500   -233466.25540  21841841.34240
 96  9  9  1 42  0.0020000  0  6 14 15 18 22 25 29
  -1383360.79900  21031962.32200  -1047907.68040  21031966.44740
   8678629.32900  23151425.81400   6676516.80740  23151431.55740
  -1390305.81000  24809763.03300   -744147.70840  24809767.00640
  -3855261.18700  22539256.28300  -2917159.47040  22539260.87740
   7855634.55700  22880091.98600   6046333.96540  22880095.22140
   -309502.38100  21842290.76800   -231612.38340  21842294.16640
 96  9  9  1 42 30.0020000  0  6 14 15 18 22 25 29
  -1385134.21100  21031624.97100  -1049289.55740  21031629.17840
   8804544.86500  23175386.93900   6774632.77340  23175392.16640
  -1434838.44700  24801288.45500   -778848.42540  24801294.66640
  -3892155.65100  22532235.28300  -2945908.36840  22532239.91240
   7968385.70100  22901548.04900   6134191.98840  22901551.75240
   -306998.79100  21842767.23600   -229661.52940  21842770.57640
 96  9  9  1 43  0.0020000  0  6 14 15 18 22 25 29
  -1386482.62500  21031368.59600  -1050340.26640  21031372.81440
   8930708.70200  23199394.94700   6872942.24140  23199399.81140
  -1479314.92600  24792825.04100   -813505.41540  24792831.33440
  -3928658.81800  22525289.03300  -2974352.38040  22525293.63940
   8081337.95800  22923041.93200   6222206.72940  22923045.16640
   -304359.66500  21843269.31400   -227605.05540  21843272.67840
 96  9  9  1 43 30.0020000  0  6 14 15 18 22 25 29
  -1387387.29900  21031196.17400  -1051045.20340  21031200.36940
   9057129.52600  23223452.07200   6971451.93040  23223457.67440
  -1523712.14500  24784376.47100   -848100.62540  24784382.37740
  -3964771.92300  22518416.98600  -3002492.42740  22518421.43940
   8194524.81400  22944580.90000   6310404.27740  22944584.39340
   -301563.60800  21843801.39300   -225426.30640  21843804.80340
 96  9  9  1 44  0.0020000  0  6 14 15 18 22 25 29
  -1387843.65800  21031109.43900  -1051400.80440  21031113.62340
   9183795.26200  23247555.85400   7070152.48540  23247561.23240
  -1568038.50800  24775941.83800   -882640.60540  24775947.55740
  -4000501.05400  22511618.21300  -3030333.28640  22511623.00640
   8307937.73800  22966162.30700   6398777.97640  22966165.50640
   -298611.91700  21844363.00200   -223126.28040  21844366.37740
 96  9  9  1 44 30.0020000  0  6 14 15 18 22 25 29
  -1387841.28900  21031109.93200  -1051398.95440  21031114.19740
   9310702.25600  23271705.35400   7169041.01240  23271710.52140
  -1612303.35600  24767519.45500   -917132.67340  24767526.24040
  -4035828.04700  22504895.56400  -3057860.78340  22504899.98240
   8421572.26200  22987786.64300   6487324.35840  22987789.94740
   -295489.36200  21844957.39300   -220693.11040  21844960.72140
 96  9  9  1 45  0.0020000  0  6 14 15 18 22 25 29
  -1387360.77600  21031201.51000  -1051024.52840  21031205.75240
   9437856.75500  23295902.08000   7268122.40640  23295907.58840
  -1656508.41500  24759105.95500   -951578.14840  24759111.13540
  -4070747.39500  22498250.54900  -3085070.64840  22498254.80340
   8535435.64600  23009453.86900   6576049.06340  23009457.73640
   -292196.83800  21845583.65000   -218127.50440  21845587.07240
 96  9  9  1 45 30.0020000  0  6 14 15 18 22 25 29
  -1386432.11500  21031377.96300  -1050300.89640  21031382.12340
   9565238.13900  23320142.16600   7367380.59540  23320147.22940
  -1700688.90200  24750698.74400   -986004.44340  24750704.13540
  -4105279.02300  22491679.24400  -3111978.38540  22491684.20140
   8649497.37600  23031159.07200   6664928.33340  23031162.65840
   -288760.54900  21846237.79900   -215449.86940  21846241.31440
 96  9  9  1 46  0.0020000  0  6 14 15 18 22 25 29
  -1385052.47000  21031640.61100  -1049225.84640  21031644.85440
   9692843.55000  23344424.56400   7466813.35740  23344429.89640
  -1744864.89300  24742292.18200  -1020427.25940  24742296.99840
  -4139421.05400  22485182.22900  -3138582.53940  22485186.71740
   8763740.68500  23052899.18900   6753949.09040  23052902.72940
   -285171.71700  21846920.73600   -212653.36640  21846924.08840
 96  9  9  1 46 30.0020000  0  6 14 15 18 22 25 29
  -1383195.51300  21031994.01800  -1047778.86540  21031998.38940
   9820689.73100  23368752.90000   7566433.72640  23368758.26840
  -1789026.05600  24733888.61900  -1054838.49240  24733893.09640
  -4173153.23700  22478762.93200  -3164867.33240  22478767.52540
   8878186.89000  23074677.29100   6843127.95540  23074680.58440
   -281412.10400  21847636.04900   -209723.78940  21847639.48240
 96  9  9  1 47  0.0020000  0  6 14 15 18 22 25 29
  -1380867.27200  21032436.90800  -1045964.65140  21032441.04540
   9948769.60100  23393125.97900   7666236.19540  23393131.19340
  -1833169.86100  24725488.69700  -1089236.23740  24725493.58440
  -4206498.05600  22472418.10400  -3190850.28140  22472422.99040
   8992832.80800  23096493.48600   6932462.43740  23096497.22540
   -277495.34800  21848381.39300   -206671.76340  21848384.63940
 96  9  9  1 47 30.0020000  0  6 14 15 18 22 25 29
  -1378074.23300  21032968.57200  -1043788.25440  21032972.90840
  10077080.83600  23417542.48600   7766218.94340  23417548.00640
  -1877290.74000  24717092.32200  -1123616.14040  24717098.54540
  -4239443.76500  22466148.66600  -3216522.23340  22466153.22540
   9107687.58000  23118349.90000   7021959.64940  23118353.05340
   -273406.09400  21849159.66600   -203485.32140  21849162.97140
 96  9  9  1 48  0.0020000  0  6 14 15 18 22 25 29
  -1374807.20700  21033590.22100  -1041242.52040  21033594.54540
  10205607.77700  23442000.33800   7866369.77240  23442006.08040
  -1921384.27400  24708701.86100  -1157974.63740  24708708.82640
  -4271979.54400  22459957.17400  -3241874.76140  22459961.75640
   9222745.87200  23140244.83000   7111615.46240  23140248.54540
   -269162.83600  21849966.99400   -200178.87840  21849970.20540
 96  9  9  1 48 30.0020000  0  6 14 15 18 22 25 29
  -1371055.35300  21034304.22900  -1038318.99640  21034308.48240
  10334356.04100  23466500.55700   7966693.06440  23466506.54540
  -1965422.48100  24700322.05700  -1192290.11040  24700326.75640
  -4304076.72000  22453849.09600  -3266885.52540  22453853.63140
   9338018.17900  23162180.26800   7201438.03440  23162183.71340
   -264778.47600  21850801.40800   -196762.48440  21850804.74840
 96  9  9  1 49  0.0020000  0  6 14 15 18 22 25 29
  -1366819.67700  21035110.21300  -1035018.46640  21035114.44340
  10463320.24200  23491041.62700   8067184.61240  23491047.02940
  -2009396.48700  24691954.00200  -1226555.51940  24691957.84640
  -4335725.20100  22447826.67400  -3291546.65640  22447831.46740
   9453499.59900  23184155.61900   7291423.54940  23184159.39340
   -260248.61100  21851663.31400   -193232.71440  21851666.63140
 96  9  9  1 49 30.0020000  0  6 14 15 18 22 25 29
  -1362093.55300  21036009.46300  -1031335.77140  21036013.68240
  10592496.59500  23515623.26800   8167841.47240  23515628.79940
  -2053306.66000  24683598.15000  -1260771.20340  24683604.88940
  -4366895.32900  22441895.39300  -3315835.03840  22441899.95140
   9569185.65300  23206169.97900   7381568.53940  23206173.34240
   -255571.70000  21852553.29900
 96  9  9  1 50  0.0020000  0  6 14 15 18 22 25 29
  -1356862.27000  21037004.86900  -1027259.44540  21037009.06440
  10721888.45800  23540245.31400   8268666.26840  23540249.99040
  -2097154.03100  24675253.51000  -1294937.93840  24675257.27140
  -4397578.69900  22436056.52500  -3339744.13640  22436061.09640
   9685055.62400  23228219.36100   7471856.81140  23228222.90040
   -250743.90300  21853472.04900      1644.56850  21853475.50640
 96  9  9  1 50 30.0020000  0  6 14 15 18 22 25 29
  -1351144.32900  21038093.13500  -1022803.90140  21038097.33040
  10851486.68900  23564906.99400   8369651.86340  23564912.05740
  -2140960.63500  24666917.33800  -1329072.91640  24666922.51840
  -4427802.90900  22430304.64300  -3363295.43540  22430309.07240
   9801086.28700  23250299.20500   7562270.31140  23250302.77940
   -245761.23800  21854420.30700      5527.16840  21854423.55340
 96  9  9  1 51  0.0020000  0  6 14 15 18 22 25 29
  -1344949.39700  21039271.97100  -1017976.68140  21039276.11940
  10981281.63300  23589606.76800   8470790.74740  23589611.85440
  -2184745.14900  24658586.08800  -1363190.66940  24658589.34640
  -4457585.83400  22424637.38500  -3386502.88640  22424642.09640
   9917265.76800  23272407.58800   7652799.76440  23272410.74040
   -240618.51500  21855398.93900      9534.48840  21855402.30340
 96  9  9  1 51 30.0020000  0  6 14 15 18 22 25 29
  -1338283.45400  21040540.33800  -1012782.43640  21040544.51040
  11111268.02100  23614342.18900   8572078.82740  23614347.11140
  -2228519.24700  24650255.76000  -1397300.31140  24650259.92040
  -4486942.59900  22419050.99400  -3409378.25840  22419055.91640
  10033585.93600  23294542.30700   7743438.85840  23294545.78740
   -235319.76700  21856407.22100     13663.39240  21856410.38540
 96  9  9  1 52  0.0020000  0  6 14 15 18 22 25 29
  -1331143.10700  21041899.01000  -1007218.52740  21041903.34640
  11241445.53900  23639114.13500   8673515.82240  23639118.84640
  -2272277.25100  24641928.96300  -1431397.43240  24641934.45940
  -4515880.63000  22413544.47100  -3431927.34840  22413549.04140
  10150058.97100  23316706.44700   7834197.06940  23316709.72940
   -229866.19400  21857444.98600     17912.92740  21857448.25640
 96  9  9  1 52 30.0020000  0  6 14 15 18 22 25 29
  -1323533.77400  21043347.15000  -1001289.17640  21043351.41640
  11371803.55800  23663920.50200   8775093.47740  23663925.63540
  -2316009.43300  24633606.72100  -1465474.44240  24633611.65440
  -4544397.67800  22408117.83800  -3454148.40140  22408122.50240
  10266705.40900  23338903.35400   7925090.39340  23338907.54940
   -224277.55400  21858508.43200     22267.71440  21858511.67840
 96  9  9  1 53  0.0020000  0  6 14 15 18 22 25 29
  -1315441.14500  21044887.16600   -994983.22540  21044891.40840
  11502351.07100  23688762.76800   8876818.78240  23688768.90840
  -2359688.15000  24625295.33800  -1499509.77840  24625301.29140
  -4572473.96000  22402774.68900  -3476025.99640  22402779.18940
  10383555.96100  23361139.54100   8016142.76440  23361143.42040
   -218547.59900  21859598.82200     26732.62040  21859602.05740
 96  9  9  1 53 30.0020000  0  6 14 15 18 22 25 29
  -1306873.87000  21046517.45500   -988307.42640  21046521.59240
  11633071.08000  23713637.68900   8978678.49740  23713642.91640
  -2403324.20000  24616991.46300  -1533511.87540  24616997.34640
  -4600115.68200  22397514.75200  -3497564.97640  22397519.18240
  10500601.69900  23383412.89300   8107347.22640  23383416.02140
   -212688.11600  21860713.72900     31298.45440  21860717.02140
 96  9  9  1 54  0.0020000  0  6 14 15 18 22 25 29
  -1297824.69200  21048239.58800   -981256.11540  21048243.78340
  11763963.01800  23738546.13500   9080672.16640  23738551.30340
  -2446906.04800  24608698.38500  -1567471.71740  24608703.10740
  -4627302.29700  22392341.11900  -3518749.32140  22392345.71340
  10617846.68100  23405723.79900   8198706.94940  23405727.65440
   -206697.65900  21861853.77500     35966.34440  21861857.04540
 96  9  9  1 54 30.0020000  0  6 14 15 18 22 25 29
  -1288300.80700  21050051.78300   -973834.90240  21050056.07240
  11895019.32900  23763485.08800   9182793.93640  23763490.35040
  -2490447.07700  24600412.01000  -1601399.75040  24600416.73240
  -4654046.41300  22387251.88500  -3539588.86340  22387256.42040
  10735268.82400  23428068.49400   8290204.71440  23428071.77540
   -200575.58900  21863018.67400     40736.78940  21863022.01440
 96  9  9  1 55  0.0020000  0  6 14 15 18 22 25 29
  -1278290.31000  21051956.56400   -966034.51540  21051960.90040
  12026250.01600  23788457.62700   9285051.57040  23788462.83040
  -2533948.60800  24592134.37700  -1635296.99240  24592139.94340
  -4680345.15800  22382247.54900  -3560081.37340  22382252.15440
  10852869.46200  23450447.08000   8381841.56740  23450451.10040
   -194283.84100  21864215.94700     45639.44740  21864219.28740
 96  9  9  1 55 30.0020000  0  6 14 15 18 22 25 29
  -1267794.63100  21053953.88500   -957856.05640  21053958.09240
  12157654.34700  23813463.29900   9387444.53340  23813468.90040
  -2577412.89800  24583862.53300  -1669165.27340  24583868.90840
  -4706178.84300  22377331.54100  -3580211.48540  22377336.13540
  10970638.12200  23472857.72900   8473609.34840  23472861.38540
   -187811.62000  21865447.58800     50682.74240  21865450.69340
 96  9  9  1 56  0.0020000  0  6 14 15 18 22 25 29
  -1256809.57500  21056044.40800   -949296.27340  21056048.63940
  12289230.25500  23838501.31400   9489971.17440  23838507.32640
  -2620831.41200  24575600.79900  -1702997.85540  24575605.61540
  -4731541.35800  22372505.15800  -3599974.45940  22372509.60040
  11088569.54100  23495299.15000   8565503.96040  23495302.73640
   -181156.49700  21866713.86100     55868.55440  21866717.16640
 96  9  9  1 56 30.0020000  0  6 14 15 18 22 25 29
  -1245346.16100  21058225.83000   -940363.73940  21058230.13140
  12420965.38900  23863569.22900   9592621.90040  23863574.58440
  -2664210.61300  24567346.02500  -1736799.77040  24567351.34640
  -4756442.42700  22367766.58800  -3619377.86340  22367770.95940
  11206650.13200  23517769.15800   8657514.80540  23517772.38140
   -174322.52600  21868014.54900     61193.72840  21868017.77140
 96  9  9  1 57  0.0020000  0  6 14 15 18 22 25 29
  -1233414.16100  21060496.48600   -931066.06940  21060500.72940
  12552844.80800  23888665.22900   9695385.04040  23888670.95940
  -2707550.43500  24559099.18200  -1770571.02740  24559105.65040
  -4780872.59400  22363117.37700  -3638414.32940  22363122.06440
  11324875.19400  23540266.45500   8749638.23140  23540269.46740
   -167324.49100  21869346.18200     66646.74340  21869349.48640
 96  9  9  1 57 30.0020000  0  6 14 15 18 22 25 29
  -1220989.72000  21062860.72900   -921384.68040  21062864.92440
  12684871.06500  23913788.97900   9798262.61240  23913794.01840
  -2750838.67300  24550860.82200  -1804302.08440  24550864.22140
  -4804813.69100  22358561.67400  -3657069.69740  22358566.44340
  11443233.50200  23562789.27500   8841865.47440  23562793.11940
   -160177.79200  21870706.24400     72215.60340  21870709.59640
 96  9  9  1 58  0.0020000  0  6 14 15 18 22 25 29
  -1208051.06400  21065322.71300   -911302.60440  21065326.82640
  12817043.47100  23938940.62700   9901254.06140  23938946.20540
  -2794076.26000  24542633.51800  -1837993.63340  24542639.97540
  -4828268.25300  22354098.54100  -3675345.95440  22354103.04140
  11561723.09800  23585337.47100   8934195.02440  23585340.70540
   -152885.54800  21872093.70500     77897.87440  21872096.86940
 96  9  9  1 58 30.0020000  0  6 14 15 18 22 25 29
  -1194602.61400  21067881.96300   -900823.28940  21067886.06440
  12949350.68800  23964118.10400  10004350.56440  23964123.75240
  -2837284.11000  24534411.36100  -1871662.05440  24534417.45540
  -4851240.71300  22349726.97900  -3693246.54940  22349731.42040
  11680337.68100  23607909.15800   9026621.96640  23607912.86140
   -145453.87000  21873508.14300     83688.79240  21873511.40040
 96  9  9  1 59  0.0020000  0  6 14 15 18 22 25 29
  -1180625.85000  21070541.83800   -889932.29640  21070545.92840
  13081798.19000  23989321.65800  10107556.38140  23989327.70540
  -2880468.38700  24526193.46300  -1905312.10240  24526197.99840
  -4873727.11000  22345448.01000  -3710768.39440  22345452.53340
  11799083.62500  23630505.64300   9119151.26840  23630508.97140
   -137876.83400  21874949.80700     89592.97840  21874953.14640
 96  9  9  1 59 30.0020000  0  6 14 15 18 22 25 29
  -1166110.12200  21073303.84600   -878621.33140  21073308.05340
  13214389.93400  24014553.17400  10210874.59240  24014558.58840
  -2923634.38100  24517979.81400  -1938947.88940  24517984.60740
  -4895731.84600  22341260.67400  -3727914.91640  22341265.11540
  11917962.97300  23653127.76000   9211784.52340  23653131.86140
   -130144.37400  21876421.22100     95618.27340  21876424.44340
 96  9  9  2  0  0.0020000  0  6 14 15 18 22 25 29
  -1151082.85000  21076163.55700   -866911.75740  21076167.69340
  13347122.57100  24039811.15000  10314302.59040  24039816.69340
  -2966780.49300  24509769.15800  -1972568.21240  24509775.31140
  -4917260.61800  22337163.73600  -3744690.56040  22337168.00240
  12036994.41800  23675778.42400   9304536.29740  23675781.97540
   -122248.03500  21877924.06400    101771.27340  21877927.26440
 96  9  9  2  0 30.0020000  0  6 14 15 18 22 25 29
  -1135589.20900  21079111.81400   -854838.78540  21079116.01040
  13479964.85900  24065090.59600  10417816.02540  24065095.81140
  -3009931.88700  24501557.37700  -2006192.61540  24501562.31140
  -4938342.19700  22333152.07200  -3761117.73840  22333156.50240
  12156156.29400  23698454.18200   9397389.70440  23698457.88540
   -114218.72000  21879451.94700    108027.88540  21879455.20540
 96  9  9  2  1  0.0020000  0  6 14 15 18 22 25 29
  -1119610.87300  21082152.34600   -842388.12940  21082156.61140
  13612935.15200  24090393.72100  10521429.21040  24090399.17040
  -3053052.56600  24493351.54100  -2039793.10440  24493355.27940
  -4958961.38400  22329228.38500  -3777184.61440  22329233.01440
  12275468.38300  23721158.44700   9490360.16140  23721161.57640
   -106048.43500  21881006.45500    114394.34840  21881009.68940
 96  9  9  2  1 30.0020000  0  6 14 15 18 22 25 29
  -1103162.22700  21085282.41600   -829570.99740  21085286.65840
  13746026.51700  24115720.42400  10625136.74740  24115725.90840
  -3096129.75200  24485154.80700  -2073359.71240  24485160.47940
  -4979113.66100  22325393.37700  -3792887.66240  22325397.87740
  12394924.40700  23743890.40800   9583442.77640  23743894.08840
    -97743.45800  21882586.86100    120865.76940  21882590.17840
 96  9  9  2  2  0.0020000  0  6 14 15 18 22 25 29
  -1086236.54300  21088503.40800   -816382.15040  21088507.60440
  13879242.33500  24141070.61900  10728941.23540  24141076.36140
  -3139144.48300  24476968.94700  -2106877.65140  24476974.80740
  -4998783.43500  22321650.36900  -3808214.74040  22321655.01040
  12514538.14900  23766651.90000   9676648.28140  23766655.07640
    -89291.21200  21884195.42400    127451.94440  21884198.75240
 96  9  9  2  2 30.0020000  0  6 14 15 18 22 25 29
  -1068827.03800  21091816.26000   -802816.30340  21091820.39640
  14012563.84800  24166441.12700  10832828.12440  24166446.35440
  -3182114.32600  24468792.65000  -2140360.59940  24468797.26840
  -5017975.17600  22317998.19700  -3823169.32040  22318002.58040
  12634292.86800  23789441.08800   9769963.65440  23789445.06140
    -80708.42100  21885828.57200    134139.83740  21885831.87740
 96  9  9  2  3  0.0020000  0  6 14 15 18 22 25 29
  -1050891.57900  21095229.27500   -788840.62240  21095233.49440
  14146014.83100  24191835.79900  10936815.86540  24191840.39340
  -3225008.57700  24460629.58800  -2173784.61940  24460635.11940
  -5036659.22000  22314442.93900  -3837728.29640  22314447.33440
  12754206.09200  23812259.57200   9863402.52940  23812262.91240
    -71962.11400  21887492.86100    140955.15340  21887496.28340
 96  9  9  2  3 30.0020000  0  6 14 15 18 22 25 29
  -1032446.59100  21098739.00200   -774467.90840  21098743.17440
  14279577.08400  24217251.47900  11040890.30340  24217257.44340
  -3267855.76700  24452475.88500  -2207172.00940  24452480.65440
  -5054836.82100  22310983.79100  -3851892.64040  22310988.20940
  12874261.61800  23835105.09600   9956952.29640  23835108.74040
    -63053.02400  21889188.40800    147897.30740  21889191.80740
 96  9  9  2  4  0.0020000  0  6 14 15 18 22 25 29
  -1013497.30300  21102345.06400   -759702.22740  21102349.18940
  14413236.67100  24242686.50200  11145040.60540  24242691.83440
  -3310675.96800  24444327.71300  -2240538.37240  24444332.96340
  -5072515.93800  22307619.52500  -3865668.55340  22307624.23640
  12994450.98000  23857976.25200  10050606.33940  23857979.73240
    -53984.06700  21890913.98600    154964.03640  21890917.27940
 96  9  9  2  4 30.0030000  0  6 14 15 18 22 25 29
   -994033.12400  21106048.97600   -744535.33540  21106053.05440
  14547002.61000  24268141.35800  11249273.77240  24268146.86640
  -3353460.88300  24436185.61600  -2273877.20640  24436190.69040
  -5089684.78300  22304352.47600  -3879046.84840  22304357.04640
  13114762.84400  23880871.13200  10144355.83840  23880874.85840
    -44755.01700  21892670.22600    162155.51140  21892673.53040
 96  9  9  2  5  0.0030000  0  6 14 15 18 22 25 29
   -974055.56400  21109850.64000   -728968.40340  21109854.82340
  14680866.05400  24293614.15500  11353582.91940  24293619.73340
  -3396207.68900  24428051.37400  -2307186.37340  24428056.57740
  -5106342.66800  22301182.27200  -3892027.00040  22301186.76140
  13235173.54500  23903784.26500  10238182.35740  23903787.68740
    -35355.74500  21894458.99900    169479.63440  21894462.25740
 96  9  9  2  5 30.0030000  0  6 14 15 18 22 25 29
   -953566.53900  21113749.58500   -713002.92740  21113753.73340
  14814825.86500  24319106.46800  11457967.15140  24319112.90140
  -3438931.49500  24419920.93700  -2340477.59340  24419925.57740
  -5122480.09100  22298111.55400  -3904601.59140  22298116.05440
  13355683.15700  23926716.53000  10332085.94340  23926720.37440
    -25787.96800  21896279.67100    176935.05540  21896282.94040
 96  9  9  2  6  0.0030000  0  6 14 15 18 22 25 29
   -932542.68400  21117750.09300   -696620.70140  21117754.24140
  14948882.32900  24344616.73300  11562426.70740  24344622.42940
  -3481616.06100  24411798.20200  -2373738.24340  24411803.08940
  -5138094.89800  22295140.17100  -3916768.95140  22295144.55440
  13476287.72300  23949666.53000  10426063.52540  23949670.30440
    -16056.28100  21898131.41300    184518.19940  21898134.61240
 96  9  9  2  6 30.0030000  0  6 14 15 18 22 25 29
   -910966.55700  21121856.01500   -679808.13140  21121860.19840
  15083037.10500  24370144.96000  11666962.84340  24370150.16340
  -3524257.71300  24403683.92100  -2406965.47640  24403689.61640
  -5153174.32400  22292270.71800  -3928519.13040  22292275.08940
  13596989.79700  23972635.49100  10520117.09540  23972639.48740
     -6169.55400  21900012.87400    192222.15740  21900016.07340
 96  9  9  2  7  0.0030000  0  6 14 15 18 22 25 29
   -888842.77400  21126066.23300   -662568.81740  21126070.30040
  15217277.21200  24395690.71000  11771565.48840  24395695.60840
  -3566878.76800  24395573.48300  -2440176.65840  24395579.50740
  -5167734.78700  22289499.74100  -3939864.91740  22289504.13640
  13717795.76400  23995624.57700  10614251.62240  23995627.96440
      3858.32600  21901920.92900    200036.09440  21901924.18740
 96  9  9  2  7 30.0030000  0  6 14 15 18 22 25 29
   -866183.72500  21130377.87400   -644912.41240  21130381.94040
  15351599.06900  24421250.48300  11876231.84340  24421255.92140
  -3609477.06200  24387467.91300  -2473370.06840  24387472.81240
  -5181768.83300  22286829.36600  -3950800.51240  22286834.06540
  13838717.27500  24018634.81200  10708476.16440  24018638.98340
     14016.50800  21903854.17900    207951.57640  21903857.47240
 96  9  9  2  8  0.0030000  0  6 14 15 18 22 25 29
   -843013.15400  21134787.01500   -626857.42340  21134791.25740
  15485992.20500  24446825.20200  11980953.70740  24446830.37040
  -3652043.79900  24379367.02200  -2506538.91940  24379371.90940
  -5195294.52700  22284255.19400  -3961339.99140  22284259.65940
  13959747.54200  24041665.88200  10802785.45640  24041669.33940
     24297.35800  21905810.46000    215962.64540  21905813.65940
 96  9  9  2  8 30.0030000  0  6 14 15 18 22 25 29
   -819367.10300  21139286.89000   -608431.93140  21139291.19040
  15620438.67900  24472409.67100  12085717.14740  24472415.41340
  -3694603.33100  24371267.71000  -2539702.15840  24371271.44840
  -5208335.53600  22281773.54600  -3971501.79240  22281778.08140
  14080865.74800  24064714.24100  10897163.29440  24064718.44840
     34693.56000  21907788.66300    224063.59440  21907791.92140
 96  9  9  2  9  0.0030000  0  6 14 15 18 22 25 29
   -795236.82400  21143878.64700   -589629.11640  21143882.85440
  15754954.60900  24498007.02200  12190534.72840  24498012.63640
  -3737138.97500  24363173.77200  -2572846.79640  24363179.06940
  -5220883.10600  22279386.11600  -3981279.09140  22279390.59340
  14202082.58300  24087780.89000  10991617.96640  24087784.42940
     45249.89600  21909797.53800    232289.32240  21909800.78440
 96  9  9  2  9 30.0030000  0  6 14 15 18 22 25 29
   -770626.54200  21148561.89700   -570452.26840  21148566.11640
  15889533.48600  24523616.19400  12295401.32540  24523621.91340
  -3779639.79900  24355086.57700  -2605964.28340  24355090.79640
  -5232927.51900  22277094.02200  -3990664.32240  22277098.46440
  14323387.36100  24110864.58500  11086141.17240  24110868.76940
     55979.97900  21911839.49100    240650.44140  21911842.66740
 96  9  9  2 10  0.0030000  0  6 14 15 18 22 25 29
   -745496.27400  21153343.99100   -550870.23940  21153348.25740
  16024181.24000  24549239.36600  12400321.62740  24549245.72940
  -3822092.85500  24347008.42900  -2639044.52740  24347012.54240
  -5244456.81900  22274900.06200  -3999648.16940  22274904.42140
  14444789.01300  24133966.63200  11180739.86240  24133970.51140
     66897.79900  21913916.94400    249157.84740  21913920.15540
 96  9  9  2 10 30.0030000  0  6 14 15 18 22 25 29
   -719832.61500  21158227.64700   -530872.58240  21158231.92540
  16158882.01800  24574872.40500  12505283.22040  24574878.06540
  -3864518.51300  24338935.14000  -2672103.47040  24338940.31940
  -5255473.82600  22272803.20200  -4008232.81940  22272807.51540
  14566272.17700  24157083.83500  11275402.07140  24157087.42140
     77985.34400  21916026.99100    257797.50340  21916030.30840
 96  9  9  2 11  0.0030000  0  6 14 15 18 22 25 29
   -693634.04400  21163213.09300   -510458.11440  21163217.26540
  16293627.62200  24600513.07700  12610279.77140  24600518.35140
  -3906910.68400  24330867.56200  -2705136.27040  24330872.12040
  -5265968.64800  22270806.17100  -4016410.57540  22270810.40140
  14687842.38300  24180218.03000  11370132.09640  24180222.64740
     89228.27000  21918166.27200    266558.23640  21918169.54240
 96  9  9  2 11 30.0030000  0  6 14 15 18 22 25 29
   -666897.75600  21168300.92100   -489624.64340  21168305.08140
  16428416.69200  24626162.28000  12715310.16040  24626167.81240
  -3949247.52800  24322810.86600  -2738125.99940  24322815.60140
  -5275922.92900  22268912.24100  -4024167.13040  22268916.58940
  14809508.84900  24203370.54600  11464937.13840  24203374.01540
    100600.16600  21920330.44400    275419.46040  21920333.59740
 96  9  9  2 12  0.0030000  0  6 14 15 18 22 25 29
   -639623.64300  21173490.89000   -468372.08840  21173495.06240
  16563252.13000  24651820.77200  12820376.69440  24651825.77640
  -3991527.12600  24314764.67900  -2771071.10140  24314769.14440
  -5285342.44400  22267119.73300  -4031506.98940  22267124.01140
  14931266.32100  24226540.27200  11559813.08540  24226543.28440
    112094.68700  21922517.77200    284376.24640  21922521.06540
 96  9  9  2 12 30.0030000  0  6 14 15 18 22 25 29
   -611831.46200  21178779.56900   -446715.83340  21178783.69440
  16698136.35400  24677488.78000  12925481.25140  24677494.07740
  -4033743.31700  24306731.52200  -2803966.80640  24306735.58940
  -5294236.65100  22265427.03000  -4038437.51440  22265431.33140
  15053111.19600  24249726.26500  11654757.14640  24249730.12040
    123724.02800  21924730.75700    293438.08540  21924734.06240
 96  9  9  2 13  0.0030000  0  6 14 15 18 22 25 29
   -583557.42300  21184159.96800   -424684.11540  21184164.09340
  16833048.61600  24703161.85800  13030607.63940  24703167.99940
  -4075915.62800  24298706.79600  -2836828.30640  24298711.02640
  -5302625.19400  22263831.00700  -4044974.01940  22263835.50740
  15175031.81100  24272927.38200  11749760.21140  24272931.14440
    135483.18100  21926968.28800    302601.07040  21926971.56940
 96  9  9  2 13 30.0030000  0  6 14 15 18 22 25 29
   -554778.54900  21189636.31200   -402259.01440  21189640.47240
  16968004.61300  24728843.28000  13135768.10440  24728848.97640
  -4118033.47600  24290692.37400  -2869647.36840  24290696.66340
  -5310494.51100  22262333.48300  -4051105.92640  22262338.04240
  15297039.11200  24296144.17100  11844830.84140  24296147.55840
    147412.48200  21929238.35100    311896.63640  21929241.52640
 96  9  9  2 14  0.0030000  0  6 14 15 18 22 25 29
   -525480.58900  21195211.69400   -379429.43540  21195215.81940
  17103010.20000  24754533.85100  13240967.22540  24754540.57740
  -4160110.23000  24282685.31200  -2902434.43540  24282689.98740
  -5317840.00500  22260935.42100  -4056829.66340  22260939.83940
  15419144.71200  24319380.05400  11939978.07640  24319384.20240
    159546.46900  21931547.47600    321351.69640  21931550.67540
 96  9  9  2 14 30.0030000  0  6 14 15 18 22 25 29
   -495669.95700  21200884.35800   -356200.37140  21200888.58940
  17238037.77400  24780228.74900  13346183.50640  24780235.15940
  -4202178.51900  24274679.74900  -2935214.87440  24274683.78040
  -5324666.78200  22259636.28000  -4062149.20840  22259640.67540
  15541331.64200  24342631.60800  12035188.67240  24342634.78440
    171867.00900  21933891.89700    330952.12540  21933895.06240
 96  9  9  2 15  0.0030000  0  6 14 15 18 22 25 29
   -465314.44400  21206660.83500   -332546.72540  21206665.00740
  17373099.93300  24805930.45200  13451426.68540  24805936.52240
  -4244233.65200  24266676.49900  -2967985.06740  24266681.21040
  -5330934.56600  22258443.57700  -4067033.17440  22258447.66740
  15663610.20600  24365900.74100  12130470.68440  24365904.70240
    184382.95600  21936273.79600    340704.81940  21936277.08940
 96  9  9  2 15 30.0030000  0  6 14 15 18 22 25 29
   -434400.16900  21212543.66300   -308457.68240  21212547.82340
  17508189.59200  24831637.31200  13556691.29740  24831643.28840
  -4286269.89900  24258677.49900  -3000740.56340  24258681.68340
  -5336632.86900  22257359.43700  -4071473.38940  22257363.71440
  15785958.01700  24389182.65500  12225806.62840  24389186.44040
    197077.56100  21938689.41300    350596.72240  21938692.51940
 96  9  9  2 16  0.0030000  0  6 14 15 18 22 25 29
   -402929.61500  21218532.29600   -283935.16740  21218536.53840
  17643299.13200  24857347.24100  13661971.41640  24857353.35840
  -4328287.86100  24250681.97600  -3033481.78140  24250685.76140
  -5341761.70400  22256383.24900  -4075469.86740  22256387.53840
  15908367.64800  24412476.46800  12321190.77540  24412480.92140
    209924.47300  21941133.94400    360607.31140  21941137.07340
 96  9  9  2 16 30.0030000  0  6 14 15 18 22 25 29
   -370909.80900  21224625.48300   -258984.67040  21224629.64440
  17778425.14700  24883060.75700  13767264.36040  24883067.21440
  -4370276.80400  24242691.31900  -3066200.40340  24242696.46440
  -5346331.22300  22255513.70200  -4079030.51240  22255517.87440
  16030824.59600  24435779.17100  12416611.77240  24435782.28840
    222910.14600  21943605.06900    370726.02340  21943608.23340
 96  9  9  2 17  0.0030000  0  6 14 15 18 22 25 29
   -338358.25300  21230819.86600   -233619.81940  21230823.99140
  17913565.22000  24908777.60100  13872568.29940  24908783.97640
  -4412221.97200  24234709.71800  -3098884.93240  24234714.49940
  -5350355.20900  22254748.08500  -4082166.07040  22254752.45640
  16153335.83300  24459092.01500  12512075.07640  24459096.12840
    236030.04900  21946101.74900    380949.32840  21946104.98340
 96  9  9  2 17 30.0030000  0  6 14 15 18 22 25 29
   -305297.46000  21237110.90500   -207858.15840  21237115.10140
  18048701.38800  24934493.06200  13977869.14440  24934499.22640
  -4454130.79800  24226734.53000  -3131541.11540  24226738.79640
  -5353856.13600  22254081.82700  -4084894.04340  22254086.02240
  16275895.88600  24482414.39700  12607576.42140  24482418.20640
    249268.41000  21948620.89700    391264.94340  21948624.14440
 96  9  9  2 18  0.0030000  0  6 14 15 18 22 25 29
   -271728.47100  21243499.02200   -181700.50540  21243503.22940
  18183835.24500  24960207.36600  14083168.23940  24960213.07340
  -4496007.96900  24218765.46000  -3164172.64240  24218769.72640
  -5356848.90300  22253512.21800  -4087226.04940  22253516.48340
  16398512.21300  24505747.94400  12703121.62440  24505751.68340
    262637.56400  21951164.99900    401682.47140  21951168.28040
 96  9  9  2 18 30.0030000  0  6 14 15 18 22 25 29
   -237624.01500  21249988.77200   -155125.59640  21249992.86240
  18318979.21100  24985925.31200  14188475.15940  24985929.91740
  -4537839.07500  24210806.03800  -3196768.27140  24210810.53840
  -5359310.93800  22253043.69400  -4089144.49540  22253047.89040
  16521202.09100  24529094.51500  12798724.13140  24529097.58540
    276162.37200  21953738.71800    412221.28940  21953741.84740
 96  9  9  2 19  0.0030000  0  6 14 15 18 22 25 29
   -202974.75400  21256582.60800   -128126.16540  21256586.73340
  18454125.65600  25011643.01500  14293784.01440  25011649.08540
  -4579632.54300  24202852.42100  -3229334.57340  24202856.94440
  -5361218.64100  22252680.62400  -4090631.00340  22252685.03040
  16643962.52800  24552455.31200  12894381.59340  24552459.50740
    289838.59800  21956341.23300    422878.09340  21956344.42140
 96  9  9  2 19 30.0030000  0  6 14 15 18 22 25 29
   -167778.42600  21263280.03000   -100700.45240  21263284.28440
  18589270.47600  25037360.00700  14399091.65240  25037365.23340
  -4621397.60400  24194904.96800  -3261878.74040  24194909.45640
  -5362562.13500  22252424.98300  -4091677.86340  22252429.27240
  16766777.78700  24575826.40500  12990081.82040  24575829.79240
    303673.02900  21958973.72600    433658.17540  21958976.98340
 96  9  9  2 20  0.0030000  0  6 14 15 18 22 25 29
   -132040.39500  21270080.81900    -72852.63440  21270084.97940
  18724402.21000  25063074.90500  14504389.06640  25063080.42540
  -4663139.91000  24186961.72600  -3294405.17040  24186965.99140
  -5363343.56000  22252276.29600  -4092286.74540  22252280.60840
  16889642.40700  24599206.96000  13085820.48140  24599210.53440
    317658.96000  21961635.17100    444556.30740  21961638.37040
 96  9  9  2 20 30.0030000  0  6 14 15 18 22 25 29
    -95749.17200  21276986.83500    -44573.76040  21276991.01940
  18859533.97800  25088789.51500  14609686.50440  25088795.44440
  -4704832.34500  24179027.63200  -3326892.74840  24179032.15540
  -5363526.94700  22252241.46800  -4092429.62540  22252245.81540
  17012585.06700  24622601.96800  13181619.95440  24622605.51940
    331814.69800  21964328.87400    455586.75840  21964332.07340
 96  9  9  2 21  0.0030000  0  6 14 15 18 22 25 29
    -58933.12600  21283992.56900    -15885.93940  21283996.72940
  18994660.40000  25114503.47600  14714979.75940  25114509.82740
  -4746461.61700  24171105.75700  -3359331.11340  24171109.65940
  -5363125.17600  22252317.54600  -4092116.53940  22252321.84740
  17135596.06000  24646009.99100  13277472.67140  24646013.83540
    346137.56400  21967054.49900    466747.44240  21967057.69840
 96  9  9  2 21 30.0030000  0  6 14 15 18 22 25 29
    -21596.53000  21291097.52200     13207.50640  21291101.60140
  19129787.54600  25140217.45200  14820273.60240  25140222.64440
  -4788002.92900  24163200.62400  -3391700.92540  24163204.96040
  -5362151.34500  22252503.06200  -4091357.69240  22252507.51540
  17258689.77000  24669433.83500  13373389.85540  24669437.64440
    360648.74300  21969815.89700    478054.86740  21969819.13240
 96  9  9  2 22  0.0030000  0  6 14 15 18 22 25 29
     16255.51000  21298300.48300     42702.59740  21298304.70240
  19264891.37900  25165926.60800  14925549.24840  25165932.35140
  -4829462.41900  24155310.91300  -3424006.99240  24155314.72240
  -5360634.69900  22252791.80400  -4090175.87240  22252796.05840
  17381844.27700  24692870.04600  13469354.39240  24692873.55040
    375326.49400  21972609.11600    489492.08540  21972612.37440
 96  9  9  2 22 30.0030000  0  6 14 15 18 22 25 29
     54622.59100  21305601.49100     72599.02240  21305605.65140
  19399970.92000  25191631.58500  15030805.99540  25191637.63240
  -4870835.47200  24147438.20200  -3456245.69640  24147443.12440
  -5358587.75700  22253181.17100  -4088580.83740  22253185.37840
  17505038.79800  24716312.46800  13565350.13740  24716316.34740
    390173.56800  21975434.06900    501061.24240  21975437.23340
 96  9  9  2 23  0.0030000  0  6 14 15 18 22 25 29
     93517.35200  21313003.00700    102906.62440  21313007.15540
  19535026.38400  25217332.49900  15136043.98240  25217338.05440
  -4912137.99200  24139578.34300  -3488429.44340  24139582.47940
  -5356014.44400  22253670.72600  -4086575.64240  22253674.89740
  17628267.75200  24739762.51500  13661372.70540  24739766.42940
    405196.70000  21978292.96000    512767.59140  21978296.24140
 96  9  9  2 23 30.0030000  0  6 14 15 18 22 25 29
    132966.90100  21320509.92100    133646.52940  21320514.05840
  19670052.03400  25243026.99900  15241258.68640  25243032.67140
  -4953394.83400  24131727.42900  -3520577.59240  24131732.39740
  -5352902.64400  22254262.91300  -4084150.85040  22254267.10840
  17751533.72700  24763218.99100  13757424.10740  24763223.02240
    420396.17400  21981185.31900    524611.35040  21981188.47240
 96  9  9  2 24  0.0030000  0  6 14 15 18 22 25 29
    172989.35600  21328125.96000    164832.87140  21328130.12040
  19805052.59800  25268716.19400  15346453.91540  25268722.08940
  -4994624.50800  24123881.67100  -3552704.55740  24123886.00740
  -5349228.68000  22254962.13200  -4081288.00240  22254966.37440
  17874837.18100  24786683.07700  13853504.71440  24786686.51140
    435771.17200  21984111.14700    536591.87540  21984114.37040
 96  9  9  2 24 30.0030000  0  6 14 15 18 22 25 29
    213568.77800  21335847.97600    196453.20340  21335852.13640
  19940027.00000  25294400.89000  15451628.72440  25294406.59740
  -5035851.94000  24116036.29600  -3584829.79640  24116040.87840
  -5344977.37400  22255771.28000  -4077975.28840  22255775.33540
  17998187.63100  24810156.05400  13949621.92740  24810159.59340
    451325.24800  21987070.97600    548711.93840  21987074.14040
 96  9  9  2 25  0.0030000  0  6 14 15 18 22 25 29
    254676.56500  21343670.67900    228485.23840  21343674.88640
  20074940.32200  25320074.31900  15556755.93240  25320078.38640
  -5077118.63800  24108183.42100  -3616985.64540  24108187.42940
  -5340152.38000  22256689.24900  -4074215.53640  22256693.36240
  18121567.39100  24833634.09300  14045762.00340  24833637.80840
    467034.67000  21990060.36600    560953.05140  21990063.63640
 96  9  9  2 25 30.0030000  0  6 14 15 18 22 25 29
    296319.10100  21351594.82700    260933.95840  21351599.01140
  20209801.55900  25345737.21000  15661842.56440  25345743.72640
  -5118391.87700  24100329.53000  -3649146.56440  24100334.00740
  -5334740.68300  22257719.11600  -4069998.61740  22257723.24140
  18244976.61300  24857118.09300  14141925.03540  24857121.39740
    482900.69700  21993079.53000    573316.19840  21993082.82340
 96  9  9  2 26  0.0030000  0  6 14 15 18 22 25 29
    338492.89900  21359620.43700    293796.65940  21359624.64440
  20344616.28700  25371391.35100  15766892.95840  25371396.39040
  -5159649.29700  24092478.14700  -3681295.17240  24092482.75340
  -5328747.17100  22258859.63200  -4065328.33440  22258863.81540
  18368420.16900  24880608.77200  14238114.82640  24880612.12440
    498927.37900  21996129.33500    585804.52340  21996132.59340
 96  9  9  2 26 30.0030000  0  7  4 14 15 18 22 25 29
      -202.58710  25962640.97600
    381205.62800  21367748.26500    327079.31840  21367752.44840
  20479390.36700  25397038.46800  15871911.68340  25397045.10140
  -5200854.78600  24084636.92900  -3713403.30940  24084642.22640
  -5322165.05900  22260112.31900  -4060199.40040  22260116.49140
  18491908.12600  24904107.60100  14334339.18540  24904110.44840
    515131.02700  21999212.86600    598430.75240  21999216.11240
 96  9  9  2 27  0.0030000  0  7  4 14 15 18 22 25 29
      -198.35600  25962642.46000
    424460.23700  21375979.31900    360784.20640  21375983.47940
  20614114.32800  25422675.37400  15976891.33140  25422680.68340
  -5241994.09800  24076808.63200  -3745459.89340  24076812.67540
  -5315004.93500  22261474.65500  -4054620.07040  22261478.80440
  18615424.96300  24927612.49900  14430586.04940  24927615.86240
    531500.99000  22002327.99100    611186.57640  22002331.16740
 96  9  9  2 27 30.0040000  0  7  4 14 15 18 22 25 29
       298.30900  25962735.09000        -0.20350  25962740.24640
    468268.55300  21384315.75400    394920.55340  21384319.99640
  20748797.69300  25448305.22300  16081839.38840  25448311.21140
  -5283043.95900  24068997.56600  -3777446.76140  24069002.14840
  -5307275.40200  22262945.50400  -4048597.04040  22262949.77040
  18738975.73000  24951122.77700  14526859.38240  24951126.83240
    548034.33100  22005474.11300    624069.69840  22005477.34840
 96  9  9  2 28  0.0040000  0  8  4 14 15 18 19 22 25 29
      1278.63600  25962922.44100       763.63440  25962927.65640
    512616.28100  21392754.96500    429477.22540  21392759.12540
  20883415.02900  25473921.71500  16186735.97540  25473926.84840
  -5324027.50400  24061198.48800  -3809381.96240  24061202.23840
    -43980.83010  25898232.31600
  -5298981.89200  22264523.66000  -4042134.54940  22264527.70340
  18862550.80800  24974639.08200  14623151.63940  24974642.79740
    564719.93200  22008649.19100    637071.47240  22008652.44940
 96  9  9  2 28 30.0040000  0  8  4 14 15 18 19 22 25 29
      2733.37800  25963200.00400      1897.22640  25963204.44540
    557502.91200  21401296.48800    464453.82340  21401300.74240
  21017974.11600  25499527.79300  16291587.16640  25499532.52740
  -5364944.99800  24053411.65200  -3841265.70340  24053415.16840
   -101195.83000  25887345.12900
  -5290106.52800  22266212.45700  -4035218.65940  22266216.60540
  18986149.28600  24998158.73800  14719462.14340  24998161.27040
    581565.52200  22011854.96500    650197.91740  22011858.14140
 96  9  9  2 29  0.0040000  0  8  4 14 15 18 19 22 25 29
      4680.58600  25963569.69900      3414.51240  25963574.93740
    602934.69600  21409941.90200    499855.20440  21409946.07440
  21152484.44400  25525124.53500  16396400.33140  25525130.98040
  -5405794.71000  24045638.37100  -3873096.62240  24045642.96540
   -158221.58400  25876492.89500    -35537.59350  25876498.50840
  -5280638.70100  22268014.42600  -4027841.11640  22268018.56240
  19109775.29500  25021683.90200  14815794.08540  25021686.08240
    598570.99700  22015090.77000    663448.94040  22015093.89840
 96  9  9  2 29 30.0040000  0  8  4 14 15 18 19 22 25 29
      7107.94300  25964031.96500      5305.95840  25964035.32840
    648893.86600  21418687.50400    535667.52940  21418691.72340
  21286922.22900  25550706.91000  16501157.02940  25550712.41840
  -5446595.53500  24037874.27000  -3904889.44340  24037878.75840
   -215093.73400  25865670.71500    -79853.55340  25865676.12940
  -5270605.51100  22269923.51200  -4020023.02540  22269927.59040
  19233399.08600  25045208.32400  14912124.29240  25045212.03940
    615716.29600  22018353.54300    676808.91740  22018356.75440
 96  9  9  2 30  0.0040000  0  8  4 14 15 18 19 22 25 29
     10013.56200  25964584.54300      7570.08540  25964588.25840
    695384.41800  21427534.54300    571893.92340  21427538.73840
  21421293.68800  25576277.38700  16605862.01640  25576283.90240
  -5487348.83000  24030119.36300  -3936645.23640  24030123.79340
   -271821.58900  25854876.43400   -124057.00040  25854883.18440
  -5259990.77500  22271943.46500  -4011751.78240  22271947.71940
  19357026.85200  25068734.00400  15008457.62040  25068738.53940
    633016.80700  22021645.69900    690289.83640  22021648.91040
 96  9  9  2 30 30.0040000  0  8  4 14 15 18 19 22 25 29
     13399.77100  25965230.44900     10208.70640  25965233.83640
    742407.76300  21436482.85500    608535.48740  21436486.98040
  21555596.43400  25601833.91000  16710513.46340  25601840.01640
  -5528050.38800  24022374.05100  -3968360.71840  24022377.95340
   -328436.35300  25844102.01200   -168172.37240  25844108.02340
  -5248798.16100  22274073.27000  -4003030.24540  22274077.38340
  19480658.03800  25092260.69900  15104793.59040  25092264.18040
    650486.24600  22024970.09800    703902.38440  22024973.33240
 96  9  9  2 31  0.0040000  0  8  4 14 15 18 19 22 25 29
     17274.20100  25965966.60500     13227.74140  25965972.88740
    789983.29400  21445536.04300    645607.33140  21445540.25040
  21689827.12300  25627377.62900  16815108.75340  25627382.91440
  -5568701.13000  24014638.15200  -4000036.60740  24014642.20740
   -384951.76000  25833347.93400   -212210.29440  25833353.34840
  -5237030.97900  22276312.62900  -3993860.99140  22276316.71940
  19604304.58200  25115790.06600  15201141.53940  25115792.94940
    668131.87700  22028327.80100    717652.22640  22028330.96540
 96  9  9  2 31 30.0040000  0  8  4 14 15 18 19 22 25 29
     21622.65400  25966792.42600     16616.12740  25966798.32040
    838109.93200  21454694.31600    683108.60140  21454698.46540
  21823973.67700  25652903.87100  16919638.49740  25652909.96540
  -5609318.71400  24006908.85500  -4031686.66140  24006913.66040
   -441379.88200  25822609.60500   -256180.20840  25822615.39540
  -5224694.19800  22278660.00400  -3984247.89540  22278664.28140
  19727977.26300  25139324.13700  15297509.83240  25139328.83640
    685954.81500  22031719.34800    731540.23540  22031722.47740
 96  9  9  2 32  0.0040000  0  8  4 14 15 18 19 22 25 29
     26451.82700  25967712.97300     20379.11940  25967717.43740
    886789.60900  21463957.77000    721040.81340  21463962.05940
  21958043.31600  25678417.31600  17024108.28240  25678423.89140
  -5649906.97700  23999185.16800  -4063313.85740  23999189.11740
   -497700.17600  25811892.16800   -300066.12340  25811898.75440
  -5211772.71100  22281119.07400  -3974179.18640  22281123.27040
  19851711.34600  25162869.51200  15393926.02740  25162873.46140
    703978.13600  22035149.17600    745584.38640  22035152.32840
 96  9  9  2 32 30.0040000  0  8  4 14 15 18 19 22 25 29
     31753.38900  25968721.45700     24510.18840  25968725.68740
    936019.05000  21473325.68400    759401.40940  21473329.94940
  22092026.39400  25703913.25400  17128510.62640  25703919.87540
  -5690474.51100  23991465.50400  -4094924.90940  23991469.44140
   -553895.60300  25801198.77000   -343854.69140  25801204.99240
  -5198280.86800  22283686.29300  -3963666.04140  22283690.38340
  19975507.52200  25186427.30900  15490390.55340  25186431.82040
    722202.16800  22038617.14500    759784.94140  22038620.33240
 96  9  9  2 33  0.0040000  0  8  4 14 15 18 19 22 25 29
     37516.26500  25969818.12900     29000.76140  25969822.05540
    985787.82700  21482796.49600    798182.26440  21482800.71540
  22225916.97000  25729391.91000  17232840.89340  25729399.40240
  -5731021.98800  23983749.39500  -4126520.33440  23983753.55540
   -609947.67200  25790532.18400   -387531.62340  25790540.62540
  -5184213.45500  22286363.28500  -3952704.39840  22286367.51640
  20099352.00700  25209994.10500  15586892.75140  25209997.97340
    740606.64200  22042119.46500    774126.09140  22042122.61740
 96  9  9  2 33 30.0040000  0  8  4 14 15 18 19 22 25 29
     43746.08500  25971004.80100     33855.19340  25971009.30140
   1036095.61500  21492369.73000    837383.13240  21492374.09040
  22359725.60400  25754854.90200  17337107.31740  25754861.57040
  -5771528.82500  23976041.00400  -4158084.07940  23976045.80940
   -665840.22700  25779895.93400   -431084.17840  25779902.32040
  -5169555.54400  22289152.57400  -3941282.63340  22289156.93440
  20223254.67700  25233572.47300  15683440.27140  25233576.24640
    759204.39900  22045658.38700    788617.85540  22045661.51640
 96  9  9  2 34  0.0040000  0  8  4 14 15 18 19 22 25 29
     50435.95500  25972277.74600     39068.07340  25972280.02040
   1086927.27500  21502042.63700    876992.21440  21502046.87940
  22493441.41500  25780299.55100  17441301.45340  25780306.87940
  -5811987.75700  23968342.65200  -4189610.49940  23968346.77740
   -721573.76600  25769290.30100   -474512.86140  25769297.07440
  -5154321.69000  22292051.35500  -3929412.07640  22292055.65640
  20347185.31200  25257154.89500  15780009.60240  25257157.30940
    777985.07700  22049232.17600    803252.15940  22049235.29340
 96  9  9  2 34 30.0040000  0  8  4 14 15 18 19 22 25 29
     57611.85700  25973642.31600     44659.67340  25973646.60540
   1138308.57100  21511820.50400    917029.58540  21511824.77040
  22627085.37700  25805731.54300  17545439.53040  25805737.57840
  -5852358.36400  23960659.94100  -4221068.10140  23960664.66440
   -777126.78900  25758719.54300   -517800.87140  25758726.66040
  -5138479.14800  22295066.25400  -3917067.22440  22295070.37940
  20471131.37000  25280741.73000  15876590.93940  25280745.63340
    796956.82000  22052842.45700    818035.34440  22052845.60940
 96  9  9  2 35  0.0040000  0  8  4 14 15 18 19 22 25 29
     65278.22500  25975102.44900     50633.49440  25975106.39840
   1190245.09100  21521703.47300    957499.59440  21521707.69140
  22760645.85200  25831147.87100  17649512.57940  25831152.23040
  -5892635.96700  23952995.14500  -4252453.22740  23952999.99640
   -832517.08900  25748178.13700   -560962.08040  25748183.03540
  -5122023.97000  22298197.51200  -3904244.99040  22298201.64840
  20595072.14900  25304326.85500  15973168.18140  25304331.23840
    816100.83900  22056485.43400    832952.76840  22056488.60940
 96  9  9  2 35 30.0040000  0  8  4 14 15 18 19 22 25 29
     73436.06000  25976652.66000     56990.25240  25976658.66040
   1242730.34600  21531691.11300    998397.19040  21531695.34440
  22894107.47300  25856544.67600  17753508.64840  25856550.81640
  -5932833.38900  23945346.16000  -4283775.87740  23945350.18040
   -887760.69100  25737666.34800   -604008.97040  25737671.70340
  -5104981.21400  22301440.52000  -3890964.90240  22301444.60940
  20718994.65700  25327908.41800  16069731.17540  25327912.96540
    835413.66400  22060160.50400    848001.73240  22060163.56240
 96  9  9  2 36  0.0040000  0  8  4 14 15 18 19 22 25 29
     82101.21000  25978301.66000     63742.29240  25978308.67240
   1295777.23000  21541785.34000   1039732.42140  21541789.50040
  23027468.74700  25881922.09800  17857426.47940  25881929.28540
  -5972951.14500  23937711.91800  -4315036.44140  23937715.83240
   -942858.10600  25727181.19900   -646941.95740  25727185.99240
  -5087339.02800  22304797.81600  -3877217.73040  22304802.02340
  20842886.93200  25351483.95700  16166270.63140  25351487.03940
    854887.00200  22063866.11300    863175.76740  22063869.19540
 96  9  9  2 36 30.0040000  0  8  4 14 15 18 19 22 25 29
     91274.49200  25980047.37900     70890.34740  25980052.17240
   1349393.26800  21551988.41000   1081511.15540  21551992.59440
  23160728.76800  25907280.45700  17961265.42440  25907285.53140
  -6012999.17400  23930090.66800  -4346242.66640  23930094.31240
   -997831.78200  25716720.13700   -689778.52540  25716726.27740
  -5069079.55400  22308272.54300  -3862989.55040  22308276.64540
  20966756.33200  25375055.65200  16262792.22140  25375058.71140
    874521.36500  22067602.41000    878475.27740  22067605.64540
 96  9  9  2 37  0.0040000  0  8  4 14 15 18 19 22 25 29
    100955.69000  25981889.24600     78434.13640  25981893.71140
   1403577.90100  21562299.24600   1123732.94540  21562303.53540
  23293880.55200  25932618.66000  18065020.00340  25932624.63740
  -6052997.57800  23922479.48800  -4377410.21540  23922483.85940
  -1052694.22400  25706280.01200   -732528.40740  25706284.98040
  -5050213.81300  22311862.55100  -3848288.95540  22311866.79340
  21090622.70900  25398626.55900  16359311.50440  25398629.66440
    894324.82800  22071371.02700    893906.54840  22071374.15640
 96  9  9  2 37 30.0040000  0  8  4 14 15 18 19 22 25 29
    111153.36500  25983830.71500     86380.35140  25983834.73440
   1458321.67700  21572716.79300   1166390.42940  21572721.04740
  23426934.57900  25957938.13700  18168698.46440  25957944.62940
  -6092947.49300  23914877.30100  -4408539.96640  23914881.39140
  -1107440.56500  25695862.20700   -775187.78640  25695868.46540
  -5030738.10400  22315568.57400  -3833113.06340  22315572.78140
  21214503.27600  25422200.23800  16455841.81440  25422204.48040
    914316.76900  22075175.17600    909484.69140  22075178.28140
 96  9  9  2 38  0.0040000  0  8  4 14 15 18 19 22 25 29
    121859.97800  25985868.48800     94723.20740  25985874.04340
   1513613.99200  21583238.40200   1209475.34640  21583242.75040
  23559884.59900  25983238.21500  18272295.88040  25983244.03940
  -6132856.65500  23907282.64500  -4439637.98940  23907286.92240
  -1162075.78000  25685465.06600   -817760.63940  25685471.45340
  -5010645.56500  22319391.98800  -3817456.50340  22319396.23040
  21338397.85200  25445776.51200  16552383.03640  25445779.77040
    934500.25000  22079016.03500    925212.08040  22079019.12940
 96  9  9  2 38 30.0040000  0  8  4 14 15 18 19 22 25 29
    133076.46600  25988001.19100    103463.31540  25988007.20340
   1569442.09600  21593862.17600   1252977.76340  21593866.45340
  23692730.34300  26008517.45700  18375812.02040  26008522.37940
  -6172715.21800  23899697.80100  -4470696.57340  23899701.75040
  -1216583.56700  25675093.21500   -860234.18340  25675097.82040
  -4989950.42600  22323330.09000  -3801330.43040  22323334.19140
  21462315.68300  25469357.43400  16648942.41240  25469361.47740
    954889.32000  22082895.91800    941099.67940  22082898.98840
 96  9  9  2 39  0.0040000  0  8  4 14 15 18 19 22 25 29
    144803.08500  25990234.30100    112600.92440  25990237.75840
   1625802.67300  21604587.24600   1296895.09140  21604591.38340
  23825467.05500  26033777.06600  18479243.20940  26033784.17240
  -6212506.80100  23892125.62100  -4501702.95540  23892129.55940
  -1270938.57900  25664749.38700   -902588.63740  25664754.91840
  -4968660.41200  22327381.49600  -3784740.79440  22327385.59840
  21586253.60200  25492941.91800  16745517.40340  25492944.95340
    975491.34200  22086816.29300    957153.20640  22086819.43440
 96  9  9  2 39 30.0040000  0  8  4 14 15 18 19 22 25 29
    157026.94700  25992559.56600    122126.04240  25992564.88740
   1682683.71700  21615411.41800   1341217.98040  21615415.60240
  23958087.97600  26059013.75400  18582584.16440  26059019.36740
  -6252222.48300  23884567.69100  -4532650.20340  23884571.45340
  -1325133.68600  25654436.21500   -944818.53240  25654442.90640
  -4946771.44300  22331546.76200  -3767684.44040  22331551.03940
  21710195.99400  25516527.90200  16842095.90240  25516530.63340
    996295.30900  22090775.06600    973364.09540  22090778.30140
 96  9  9  2 40  0.0040000  0  8  4 14 15 18 19 22 25 29
    169748.27100  25994980.57400    132038.73740  25994986.02340
   1740117.26800  21626340.45700   1385971.39140  21626344.69940
  24090603.93200  26084230.66800  18685843.36140  26084236.29340
  -6291830.35000  23877030.68400  -4563513.44340  23877035.20740
  -1379148.53900  25644157.80900   -986907.95840  25644163.30540
  -4924260.15000  22335830.59000  -3750143.16440  22335834.68040
  21834155.62700  25540116.32400  16938687.82040  25540120.05140
   1017316.94400  22094775.41000    989744.59440  22094778.56240
 96  9  9  2 40 30.0040000  0  8  4 14 15 18 19 22 25 29
    182950.21400  25997493.61300    142325.94940  25997496.78940
   1798107.71300  21637375.73800   1431158.74440  21637380.02740
  24223003.29500  26109425.12900  18789011.63940  26109431.23440
  -6331325.14300  23869515.06600  -4594288.58240  23869519.28540
  -1432987.26700  25633912.21500  -1028860.19340  25633917.89840
  -4901124.27400  22340233.06600  -3732115.19540  22340237.00440
  21958119.73600  25563706.13700  17035283.24440  25563710.10940
   1038542.56900  22098814.79300   1006284.04540  22098817.93440
 96  9  9  2 41  0.0040000  0  7  4 14 18 19 22 25 29
    196623.84800  26000094.44900    152980.76240  26000098.92640
   1856673.24600  21648520.46500   1476794.21940  21648524.78940
  -6370712.96900  23862020.08200  -4624980.36140  23862024.52340
  -1486649.11200  25623700.72300  -1070674.53540  25623707.02740
  -4877348.58500  22344757.56600  -3713588.67340  22344761.50440
  22082092.19300  25587297.04300  17131885.13940  25587299.83240
   1059969.73700  22102892.05900   1022980.54440  22102895.23440
 96  9  9  2 41 30.0040000  0  7  4 14 18 19 22 25 29
    210759.98900  26002785.55100    163995.91340  26002788.98440
   1915820.17000  21659775.79300   1522882.73340  21659780.02340
  -6410000.33700  23854543.76200  -4655593.85540  23854547.87540
  -1540130.19000  25613523.58200  -1112348.03440  25613528.86740
  -4852929.96300  22349404.19100  -3694561.16040  22349408.17640
  22206069.70900  25610889.53500  17228491.05040  25610891.97340
   1081588.90900  22107006.02000   1039826.66340  22107009.11340
 96  9  9  2 42  0.0040000  0  7  4 14 18 19 22 25 29
    225352.98700  26005561.69100    175367.07740  26005565.07840
   1975546.75400  21671141.54300   1569422.92340  21671145.85540
  -6449200.47400  23847084.40200  -4686139.38940  23847088.31640
  -1593443.33300  25603378.25400  -1153890.67440  25603384.74640
  -4827874.39900  22354172.01200  -3675037.33740  22354176.03140
  22330046.53200  25634481.28500  17325096.32940  25634486.27740
   1103398.03600  22111156.11300   1056820.79340  22111159.31240
 96  9  9  2 42 30.0040000  0  7  4 14 18 19 22 25 29
    240416.52400  26008428.91800    187104.89140  26008433.68740
   2035826.04400  21682612.35500   1616393.79140  21682616.56240
  -6488348.06600  23839634.98800  -4716643.97840  23839639.37140
  -1646596.44800  25593263.79300  -1195308.63440  25593269.00840
  -4802209.23500  22359056.12900  -3655038.49440  22359060.18440
  22454005.93200  25658069.86300  17421688.08640  25658072.45340
   1125373.68100  22115337.91000   1073944.68140  22115341.15640
 96  9  9  2 43  0.0040000  0  7  4 14 18 19 22 25 29
    255979.10400  26011389.73800    199231.56040  26011394.12140
   2096670.65300  21694190.52700   1663805.17040  21694194.77040
  -6527437.06000  23832196.05100  -4747102.91040  23832199.97740
  -1699575.03600  25583182.09000  -1236590.59040  25583187.60940
  -4775942.09100  22364054.61300  -3634570.57740  22364058.63340
  22577972.18600  25681659.91800  17518285.16740  25681665.13340
   1147530.76200  22119554.27000   1091209.94640  22119557.42240
 96  9  9  2 43 30.0040000  0  7  4 14 18 19 22 25 29
    272046.04800  26014447.22300    211751.27840  26014451.73440
   2158060.74200  21705872.65200   1711641.59740  21705876.89540
  -6566475.78800  23824767.63700  -4777522.66840  23824772.09040
  -1752397.22200  25573130.14500  -1277750.66940  25573135.12540
  -4749088.48700  22369164.47300  -3613645.68240  22369168.49240
  22701931.83900  25705248.52000  17614877.11840  25705250.57040
   1169870.67500  22123805.37900   1108617.67640  22123808.54340
 96  9  9  2 44  0.0040000  0  7  4 14 18 19 22 25 29
    288631.72600  26017604.93400    224675.18140  26017607.79340
   2219982.94900  21717656.09800   1759892.66040  21717660.27040
  -6605475.21300  23817345.93400  -4807911.80640  23817350.53940
  -1805089.10700  25563103.37100  -1318809.17540  25563110.05140
  -4721679.84100  22374380.20700  -3592288.28040  22374384.19140
  22825875.61200  25728834.26200  17711456.69740  25728838.29340
   1192387.22100  22128090.03500   1126163.04640  22128093.15240
 96  9  9  2 44 30.0040000  0  7  4 14 18 19 22 25 29
    305751.32500  26020860.74600    238015.08740  26020865.82040
   2282457.01600  21729544.57400   1808573.74440  21729548.85240
  -6644417.34700  23809935.82400  -4838256.30140  23809940.00840
  -1857629.94100  25553104.93400  -1359750.02040  25553110.74640
  -4693712.05500  22379702.59000  -3570495.18840  22379706.50440
  22949815.71400  25752419.73000  17808033.40040  25752423.99640
   1215098.75900  22132411.96500   1143860.35840  22132415.17640
 96  9  9  2 45  0.0040000  0  7  4 14 18 19 22 25 29
    323372.92000  26024216.41000    251746.19040  26024220.54740
   2345487.40000  21741538.66800   1857688.31840  21741542.89840
  -6683290.56100  23802538.48000  -4868547.09740  23802542.19540
  -1910027.07100  25543134.46500  -1400578.88440  25543141.03940
  -4665168.51700  22385134.06600  -3548253.45840  22385138.27340
  23073746.07100  25776002.99600  17904602.48440  25776008.37540
   1238030.61000  22136775.83200   1161729.33740  22136778.92640
 96  9  9  2 45 30.0040000  0  7  4 14 18 19 22 25 29
    341524.33400  26027668.06600    265890.13940  26027673.03540
   2409089.51300  21753641.78500   1907248.40140  21753646.03940
  -6722070.51500  23795158.65200  -4898765.22140  23795162.53140
  -1962258.92200  25533195.29300  -1441278.95840  25533200.37940
  -4636004.67100  22390683.71500  -3525528.37240  22390687.71140
  23197674.39800  25799584.34000  18001170.00740  25799588.30140
   1261212.59700  22141187.24600   1179793.23040  22141190.36340
 96  9  9  2 46  0.0040000  0  7  4 14 18 19 22 25 29
    360177.74000  26031217.98800    280425.27140  26031224.25840
   2473241.74700  21765849.59000   1957237.15540  21765853.85540
  -6760777.15100  23787793.05900  -4928926.20740  23787797.41840
  -2014349.94000  25523282.10500  -1481869.29840  25523287.96540
  -4606234.59500  22396348.77000  -3502330.90040  22396352.95340
  23321573.46400  25823162.61300  18097714.74840  25823166.86740
   1284616.75500  22145640.90200   1198030.24540  22145644.12540
 96  9  9  2 46 30.0040000  0  7  4 14 18 19 22 25 29
    379324.13600  26034861.84000    295344.54040  26034866.18740
   2537947.04200  21778162.39500   2007656.86640  21778166.56640
  -6799410.98300  23780441.59800  -4959030.46140  23780445.73440
  -2066280.29700  25513400.41000  -1522334.42940  25513404.91040
  -4575833.74200  22402133.93400  -3478641.90940  22402137.84840
  23445442.14100  25846734.12100  18194235.75240  25846736.20740
   1308251.46100  22150138.34000   1216446.90440  22150141.51640
 96  9  9  2 47  0.0040000  0  7  4 14 18 19 22 25 29
    398968.92600  26038600.70700    310652.12640  26038605.35940
   2603179.72500  21790575.84800   2058487.51840  21790580.00840
  -6837980.42000  23773101.77700  -4989084.56040  23773105.48040
  -2118063.22300  25503546.16800  -1562684.71140  25503551.58240
  -4544802.97100  22408038.69100  -3454462.08140  22408042.71140
  23569265.94100  25870297.88700  18290721.85240  25870303.46540
   1332096.09200  22154675.87900   1235027.13340  22154679.05540
 96  9  9  2 47 30.0040000  0  7  4 14 18 19 22 25 29
    419132.54700  26042437.55100    326364.04240  26042442.05140
   2668933.20800  21803088.52000   2109723.99040  21803092.71540
  -6876481.45500  23765775.15200  -5019085.33940  23765778.96140
  -2169683.66200  25493722.66800  -1602908.35940  25493728.62140
  -4513153.81700  22414061.28500  -3429800.38740  22414065.03540
  23693054.38500  25893853.52700  18387180.35540  25893857.71140
   1356135.25300  22159250.34000   1253758.95640  22159253.48040
 96  9  9  2 48  0.0040000  0  7  4 14 18 19 22 25 29
    439778.52900  26046365.55100    342451.81640  26046370.50840
   2735197.36600  21815698.13700   2161358.38940  21815702.29740
  -6914914.68500  23758461.55900  -5049033.28740  23758464.98040
  -2221143.29200  25483930.86300  -1643006.71440  25483937.09840
  -4480914.10300  22420196.30100  -3404678.52340  22420200.48440
  23816806.79400  25917402.44900  18483610.81640  25917406.94940
   1380345.17200  22163857.29300   1272623.83040  22163860.39840
 96  9  9  2 48 30.0040000  0  7  4 14 18 19 22 25 29
    460912.24100  26050387.58200    358919.62240  26050392.05940
   2801984.97000  21828407.27000   2213400.67740  21828411.48840
  -6953256.85600  23751165.28500  -5078910.28740  23751169.19940
  -2272419.35500  25474173.13700  -1682962.04440  25474179.23040
  -4448068.06300  22426446.82400  -3379084.18940  22426450.80940
  23940546.60100  25940949.09800  18580031.44340  25940953.42240
   1404743.21100  22168500.12900   1291635.30040  22168503.29340
 96  9  9  2 49  0.0040000  0  7  4 14 18 19 22 25 29
    482504.61900  26054496.17600    375744.82640  26054503.87940
   2869273.62500  21841212.02000   2265833.39240  21841216.37940
  -6991514.93300  23743884.98000  -5108721.75740  23743888.70740
  -2323536.40800  25464445.50400  -1722793.46240  25464451.69140
  -4414624.99800  22432810.90200  -3353024.64640  22432814.99240
  24064264.10100  25964491.99600  18676434.71340  25964496.71940
   1429309.62900  22173174.95700   1310777.96640  22173178.02740
 96  9  9  2 49 30.0040000  0  7  4 14 18 19 22 25 29
    504557.96700  26058693.25400    392929.22040  26058697.54340
   2937112.76500  21854121.34000   2318695.05640  21854125.66440
  -7029658.71800  23736626.34000  -5138444.15840  23736630.19540
  -2374461.23800  25454755.11300  -1762475.08240  25454759.56640
  -4380554.99800  22439294.05100  -3326476.58240  22439298.11740
  24187995.66400  25988036.66800  18772848.90540  25988039.14140
   1454094.73200  22177891.52000   1330091.03440  22177894.64840
 96  9  9  2 50  0.0040000  0  7  4 14 18 19 22 25 29
    527066.74600  26062977.34000    410468.52240  26062981.85240
   3005518.41000  21867138.35500   2371998.14840  21867142.60940
  -7067688.37600  23729389.53500  -5168077.64040  23729393.46140
  -2425211.72800  25445097.73000  -1802020.85140  25445102.02040
  -4345846.76900  22445898.66800  -3299431.20040  22445902.65240
  24311736.84700  26011584.15200  18869270.60640  26011588.69940
   1479102.58800  22182650.11300   1349577.67240  22182653.20740
 96  9  9  2 50 30.0040000  0  7  4 14 18 19 22 25 29
    550028.04000  26067346.43400    428360.44340  26067352.37540
   3074466.15400  21880258.84000   2425723.65840  21880263.11740
  -7105641.04900  23722167.54300  -5197651.13240  23722171.32840
  -2475809.22000  25435468.80900  -1841447.40340  25435474.09440
  -4310513.31300  22452622.66000  -3271898.62440  22452626.68040
  24435452.82200  26035126.51200  18965672.70240  26035130.93040
   1504326.49400  22187450.02700   1369232.66740  22187453.25040
 96  9  9  2 51  0.0050000  0  7  4 14 18 19 22 25 29
    573471.77300  26071807.25900    446628.27140  26071812.16940
   3143980.36400  21893487.01700   2479890.57140  21893491.30640
  -7143500.98200  23714963.29000  -5227152.35940  23714966.85340
  -2526233.51200  25425873.50900  -1880739.00140  25425878.86440
  -4274540.67700  22459467.80600  -3243867.98240  22459471.82540
  24559167.37700  26058668.89200  19062073.61540  26058673.02840
   1529793.36000  22192296.39200   1389076.98840  22192299.59140
 96  9  9  2 51 30.0050000  0  7  4 14 18 19 22 25 29
    597393.18400  26076359.25100    465268.32740  26076365.00540
   3214046.74100  21906820.07100   2534487.73640  21906824.29040
  -7181282.95700  23707773.18800  -5256592.83840  23707777.19640
  -2576502.93300  25416308.25100  -1919909.91640  25416313.50140
  -4237963.41900  22466428.32100  -3215366.21340  22466432.44640
  24682862.14500  26082207.07100  19158459.18040  26082209.09940
   1555488.59900  22197185.90700   1409099.24940  22197189.03640
 96  9  9  2 52  0.0050000  0  6  4 14 18 19 22 29
    621826.26000  26081009.07100    484307.04440  26081013.47840
   3284657.73400  21920256.98500   2589509.28440  21920261.25140
  -7218978.26200  23700600.20400  -5285965.77240  23700603.76740
  -2626618.40600  25406770.79800  -1958960.90040  25406776.13040
  -4200776.66200  22473504.75100  -3186389.50540  22473508.92340
   1581390.23100  22202114.89900   1429282.34740  22202118.06340
 96  9  9  2 52 30.0050000  0  6  4 14 18 19 22 29
    646769.82800  26085755.47000    503743.56740  26085760.91940
   3355800.30700  21933794.97000   2644945.04340  21933799.31740
  -7256592.38600  23693442.24300  -5315275.47340  23693446.34540
  -2676581.08500  25397263.03200  -1997892.79740  25397267.38040
  -4162995.54400  22480694.35300  -3156949.66540  22480698.32540
   1607494.00000  22207082.29000   1449622.94840  22207085.52440
 96  9  9  2 53  0.0050000  0  6  4 14 18 19 22 29
    672232.24300  26090600.09500    523584.39940  26090604.11440
   3427486.08900  21947436.24300   2700804.08940  21947440.46240
  -7294108.06200  23686303.29800  -5344508.44540  23686307.56340
  -2726400.06900  25387782.72000  -2036712.71640  25387788.40340
  -4124618.77300  22487996.89900  -3127045.67540  22488000.81340
   1633800.80300  22212088.30600   1470121.75940  22212091.49340
 96  9  9  2 53 30.0050000  0  6  4 14 18 19 22 29
    698208.21600  26095543.40700    543825.42640  26095547.18140
   3499704.35300  21961178.93800   2757078.05840  21961183.26340
  -7331534.96400  23679181.43100  -5373672.24140  23679185.29840
  -2776081.55900  25378328.92300  -2075425.48840  25378335.16940
  -4085650.79700  22495412.31300  -3096681.01240  22495416.23940
   1660292.71400  22217129.57900   1490764.81340  22217132.81340
 96  9  9  2 54  0.0050000  0  6  4 14 18 19 22 29
    724687.60300  26100582.97000    564458.74440  26100584.91540
   3572445.00200  21975021.03200   2813759.07440  21975025.20440
  -7368872.98100  23672076.09500  -5402766.78540  23672079.91540
  -2825612.51900  25368903.32100  -2114020.99040  25368908.52440
  -4046091.41700  22502940.39900  -3065855.50940  22502944.25540
   1686968.30900  22222205.57900   1511550.99540  22222208.72040
 96  9  9  2 54 30.0050000  0  6  4 14 18 19 22 29
    751641.79500  26105712.22000
   3645696.66900  21988960.54000   2870838.28940  21988964.77040
  -7406142.75900  23664983.94600  -5431808.14340  23664987.93140
  -2874991.34900  25359506.82100  -2152497.92540  25359511.45040
  -4005953.57800  22510578.24300  -3034579.25840  22510582.19240
   1713845.44100  22227320.39900   1532494.21840  22227323.63440
 96  9  9  2 55  0.0050000  0  6  4 14 18 19 22 29
    779092.89600  26110936.11800
   3719481.85000  22003001.31300   2928333.22640  22003005.52040
  -7443311.41000  23657910.86800  -5460770.71140  23657914.66540
  -2924173.56300  25350147.61000  -2190821.67440  25350152.66140
  -3965194.74400  22518334.45400  -3002819.12140  22518338.36840
   1740957.67100  22232479.67300   1553620.63340  22232482.87240
 96  9  9  2 55 30.0050000  0  6  4 14 18 19 22 29
    807007.75000  26116248.79800     13818.21050  26116255.03240
   3793780.01200  22017139.79000   2986227.89340  22017144.19640
  -7480400.59600  23650852.94600  -5489671.34740  23650856.87240
  -2973162.00200  25340826.07100  -2228994.42940  25340831.55640
  -3923826.71100  22526206.60300  -2970584.27540  22526210.62240
   1768280.91200  22237678.89900   1574911.48040  22237682.13440
 96  9  9  2 56  0.0050000  0  6  4 14 18 19 22 29
    835379.80300  26121647.01700     35926.26540  26121651.31740
   3868593.82700  22031376.17300   3044524.36840  22031380.57940
  -7517406.50500  23643811.18100  -5518507.09740  23643815.00140
  -3021970.21000  25331537.32100  -2267026.76740  25331541.62240
  -3881841.87500  22534196.01700  -2937868.80940  22534199.88440
   1795821.61600  22242919.92300   1596371.77040  22242922.99340
 96  9  9  2 56 30.0050000  0  6  4 14 18 19 22 29
    864220.75700  26127134.54000     58399.72340  26127137.45840
   3943935.04600  22045713.17300   3103231.81040  22045717.48540
  -7554325.24200  23636785.72800  -5547274.92840  23636789.54840
  -3070602.80500  25322283.30600  -2304922.23040  25322288.84940
  -3839220.70900  22542306.38400  -2904657.50140  22542310.41540
   1823584.67800  22248202.93800   1618005.33240  22248206.02040
 96  9  9  2 57  0.0050000  0  6  4 14 18 19 22 29
    893523.42600  26132711.90700     81232.99940  26132719.07140
   4019809.99300  22060151.82900   3162355.13740  22060156.10640
  -7591145.33300  23629778.91500  -5575965.88840  23629782.75940
  -3119074.63800  25313058.64900  -2342692.42440  25313063.22040
  -3795958.58500  22550538.85300  -2870946.74740  22550542.89540
   1851550.93000  22253524.81300   1639797.21740  22253527.97840
 96  9  9  2 57 30.0050000  0  6  4 14 18 19 22 29
    923303.91400  26138378.88400    104438.51740  26138383.44240
   4096241.56500  22074696.46200   3221912.19940  22074700.77440
  -7627854.20500  23622793.45400  -5604570.18440  23622796.99340
  -3167389.73300  25303864.93100  -2380340.52040  25303871.14240
  -3752054.48200  22558893.47000  -2836735.75040  22558897.29040
   1879733.10600  22258887.73500   1661757.35540  22258890.85340
 96  9  9  2 58  0.0050000  0  6  4 14 18 19 22 29
    953554.12000  26144135.16500    128010.10040  26144137.91940
   4173210.79700  22089343.02400   3281888.21740  22089347.20840
  -7664463.90200  23615826.82100  -5633097.20840  23615830.52440
  -3215569.76800  25294696.36000  -2417883.34440  25294701.38840
  -3707541.93000  22567364.07100  -2802050.63440  22567367.96240
   1908131.12700  22264291.54000   1683885.69040  22264294.63440
 96  9  9  2 58 30.0050000  0  6  4 14 18 19 22 29
    984288.03600  26149983.57900    151958.60140  26149987.86840
   4250717.90500  22104092.17300   3342283.36340  22104096.42740
  -7700971.78100  23608879.70400  -5661544.88840  23608883.48940
  -3263582.05200  25285560.07900  -2455295.43140  25285564.42740
  -3662439.11500  22575946.97000  -2766905.57140  22575950.87240
   1936756.27100  22269738.82100   1706191.00140  22269741.91540
 96  9  9  2 59  0.0050000  0  6  4 14 18 19 22 29
   1015516.52600  26155925.40700    176292.46540  26155929.63840
   4328774.33700  22118945.76700   3403106.54740  22118950.00940
  -7737362.33000  23601954.69600  -5689901.13940  23601958.44640
  -3311404.05700  25276459.80600  -2492559.30740  25276465.02040
  -3616755.83400  22584639.95400  -2731308.20440  22584643.92740
   1965631.18500  22275233.53200   1728690.93640  22275236.56740
 96  9  9  2 59 30.0050000  0  6  4 14 18 19 22 29
   1047241.17000  26161963.29800    201012.93240  26161969.07540
   4407364.45000  22133900.89200   3464345.59140  22133905.13440
  -7773654.32200  23595048.56300  -5718180.59540  23595052.33740
  -3359037.07300  25267395.35300  -2529675.87440  25267400.96640
  -3570520.28400  22593438.46200  -2695280.49440  22593442.31740
   1994748.86600  22280774.36800   1751380.04740  22280777.41540
 96  9  9  3  0  0.0050000  0  6  4 14 18 19 22 29
   1079463.04600  26168094.46200    226120.86340  26168099.29040
   4486473.18600  22148954.96200   3525988.75240  22148959.27440
  -7809846.95800  23588161.26700  -5746382.62740  23588164.84140
  -3406469.62000  25258369.43100  -2566636.25140  25258375.29040
  -3523730.02400  22602342.12600  -2658820.54040  22602346.02840
   2024088.34700  22286357.65700   1774241.98540  22286360.83340
 96  9  9  3  0 30.0050000  0  6  4 14 18 19 22 29
   1112174.32500  26174319.01700    251610.13440  26174324.41940
   4566095.26300  22164106.47000   3588031.92140  22164110.87640
  -7845946.54400  23581291.84500  -5774512.15640  23581295.68840
  -3453707.61800  25249380.39200  -2603445.02240  25249385.67740
  -3476366.19900  22611355.40700  -2621913.65440  22611359.55640
   2053636.38200  22291980.35300   1797266.43540  22291983.54040
 96  9  9  3  1  0.0050000  0  6  4 14 18 19 22 29
   1145365.33300  26180635.53200    277473.24940  26180642.18840
   4646228.69000  22179355.33700   3650473.55040  22179359.72040
  -7881946.63100  23574441.07900  -5802564.15540  23574445.38040
  -3500774.22500  25240423.86000  -2640120.24540  25240428.82940
  -3428400.77100  22620482.75100  -2584537.99040  22620486.72440
   2083387.44600  22297641.76700   1820449.08140  22297644.91940
 96  9  9  3  1 30.0050000  0  6  4 14 18 19 22 29
   1179050.48100  26187046.21200    303721.43340  26187050.40740
   4726866.64500  22194700.26700   3713308.33040  22194704.49740
  -7917839.06400  23567611.13400  -5830532.26140  23567615.29440
  -3547675.61100  25231499.00900  -2676666.74740  25231504.15340
  -3379809.57500  22629729.50900  -2546674.70540  22629733.64540
   2113334.25000  22303340.55600   1843784.25640  22303343.70840
 96  9  9  3  2  0.0050000  0  6  4 14 18 19 22 29
   1213222.71300  26193548.82100    330349.11540  26193554.15340
   4807995.56800  22210138.72800   3776525.67340  22210142.95840
  -7953624.12600  23560801.59500  -5858416.70640  23560805.63840
  -3594420.15400  25222602.93100  -2713091.00740  25222608.45040
  -3330577.30300  22639097.99300  -2508311.88740  22639101.89540
   2143492.93900  22309079.45400   1867284.54240  22309082.59540
 96  9  9  3  2 30.0050000  0  6  4 14 18 19 22 29
   1247875.72900  26200142.73500    357351.45140  26200147.86840
   4889625.67800  22225672.37600   3840133.53840  22225676.54840
  -7989303.82500  23554011.81300  -5886219.04840  23554015.69240
  -3641007.98600  25213737.97800  -2749393.16540  25213743.23940
  -3280705.35400  22648588.27400  -2469450.62040  22648592.31740
   2173891.60900  22314864.06300   1890971.82540  22314867.18140
 96  9  9  3  3  0.0050000  0  6  4 14 18 19 22 29
   1283020.50900  26206830.07100    384736.97940  26206836.01340
   4971782.52000  22241306.09500   3904151.83940  22241310.40740
  -8024859.97300  23547245.60300  -5913925.11340  23547249.37640
  -3687422.14600  25204905.94600  -2785559.98340  25204911.92340
  -3230192.97200  22658200.36800  -2430090.31340  22658204.32940
   2204544.51500  22320697.11800   1914857.21240  22320700.25940
 96  9  9  3  3 30.0050000  0  6  4 14 18 19 22 29
   1318630.29400  26213605.83700    412484.86440  26213612.28240
   5054448.23300  22257036.97000   3968566.67140  22257041.27040
  -8060325.98000  23540496.54800  -5941560.94540  23540500.41540
  -3733681.92000  25196102.75100  -2821606.52240  25196107.61440
  -3179088.83400  22667925.31300  -2390268.89740  22667929.14540
   2235428.35300  22326574.03200   1938922.54540  22326577.16140
 96  9  9  3  4  0.0050000  0  6  4 14 18 19 22 29
   1354682.02600  26220466.42300    440577.09840  26220470.52440
   5137628.70700  22272865.90700   4033382.61940  22272870.17340
  -8095706.05000  23533764.02400  -5969129.81540  23533767.91540
  -3779781.12600  25187330.11800  -2857527.91540  25187335.31040
  -3127401.70900  22677760.98500  -2349993.20640  22677764.85340
   2266545.84200  22332495.61000   1963169.94140  22332498.77440
 96  9  9  3  4 30.0050000  0  6  4 14 18 19 22 29
   1391194.50400  26227414.57900    469028.33340  26227419.44240
   5221359.95600  22288799.28200   4098627.74540  22288803.51340
  -8130972.89200  23527052.75900  -5996610.45540  23527056.80240
  -3825697.55700  25178592.36000  -2893306.91640  25178596.69640
  -3075108.10500  22687712.34500  -2309244.94040  22687716.28240
   2297900.56500  22338462.29000   1987602.19540  22338465.40740
 96  9  9  3  5  0.0050000  0  6  4 14 18 19 22 29
   1428171.93900  26234451.61000    497841.94640  26234455.39540
   5305629.92800  22304835.51700   4164292.64940  22304839.75940
  -8166128.12000  23520363.05600  -6024004.12640  23520367.01740
  -3871437.04300  25169888.47800  -2928948.02440  25169894.45440
  -3022200.17400  22697780.27400  -2268017.97240  22697784.16540
   2329481.89300  22344471.90700   2012211.02840  22344475.07140
 96  9  9  3  5 30.0050000  0  6  4 14 18 19 22 29
   1465611.50000  26241577.63400    527015.62040  26241582.41540
   5390416.34000  22320969.68100   4230359.97940  22320974.07540
  -8201176.03900  23513693.83700  -6051314.17740  23513697.86840
  -3916998.27000  25161218.76700  -2964450.22540  25161223.84140
  -2968680.37300  22707964.75100  -2226314.22240  22707968.80640
   2361290.31100  22350524.82100   2036996.81540  22350527.99740
 96  9  9  3  6  0.0050000  0  6  4 14 18 19 22 29
   1503489.83200  26248783.83700    556531.22540  26248788.33740
   5475685.98600  22337195.89900   4296803.85740  22337200.14240
  -8236132.62700  23507041.75900  -6078553.05240  23507045.59140
  -3962394.80300  25152579.95400  -2999824.08640  25152584.75940
  -2914570.79900  22718261.32100  -2184150.90940  22718265.30640
   2393303.82600  22356616.89200   2061942.41640  22356620.18540
 96  9  9  3  6 30.0050000  0  6  4 14 18 19 22 29
   1541837.66900  26256082.12600    586412.61240  26256087.04840
   5561456.50400  22353517.33700   4363638.01840  22353521.61440
  -8270986.35700  23500409.22000  -6105711.79340  23500413.25140
  -4007604.09300  25143976.47000  -3035052.04840  25143981.39240
  -2859864.83200  22728671.54800  -2141522.87540  22728675.66140
   2425543.13400  22362751.80600   2087063.96340  22362754.95840
 96  9  9  3  7  0.0050000  0  6  4 14 18 19 22 29
   1580645.48300  26263466.19600    616652.45040  26263470.38040
   5647704.50000  22369929.86800   4430844.24240  22369934.22840
  -8305746.06800  23493794.62600  -6132797.27140  23493798.59940
  -4052632.44600  25135408.25100  -3070139.03240  25135414.18140
  -2804597.59400  22739188.46200  -2098457.49040  22739192.37640
   2458008.84700  22368929.82100   2112361.92340  22368933.05640
 96  9  9  3  7 30.0050000  0  6  4 14 18 19 22 29
   1619918.88900  26270940.39900    647255.11940  26270945.88440
   5734439.05300  22386435.00900   4498429.60040  22386439.35640
  -8340389.05000  23487202.22000  -6159791.78940  23487206.26340
  -4097468.39400  25126876.40700  -3105076.06940  25126881.30640
  -2748774.37400  22749811.40700  -2054958.86740  22749815.52040
   2490714.57200  22375153.64200   2137846.90440  22375156.79440
 96  9  9  3  8  0.0050000  0  6  4 14 18 19 22 29
   1659667.17100  26278503.76700    678227.75340  26278508.24340
   5821677.43200  22403036.03200   4566407.54840  22403040.39240
  -8374901.91700  23480634.79000  -6186684.92240  23480638.47040
  -4142119.68200  25118379.36800  -3139869.23340  25118384.63040
  -2692382.06900  22760542.36000  -2011016.80040  22760546.31040
   2523676.36900  22381425.95400   2163531.42640  22381429.16540
 96  9  9  3  8 30.0050000  0  6  4 14 18 19 22 29
   1699889.03900  26286157.22000    709569.50340  26286163.63040
   5909411.98800  22419731.23500   4634772.13140  22419735.54840
  -8409287.96000  23474091.51700  -6213479.22840  23474095.24340
  -4186602.76200  25109914.42300  -3174531.31340  25109919.06340
  -2635417.19400  22771382.27400  -1966628.57640  22771386.16540
   2556892.96100  22387746.78200   2189414.49440  22387749.92340
 96  9  9  3  9  0.0050000  0  6  4 14 18 19 22 29
   1740589.44800  26293902.68100    741284.07140  26293909.00940
   5997656.50800  22436523.59500   4703534.08540  22436527.88440
  -8443525.85500  23467575.83700  -6240158.09940  23467579.35340
  -4230915.89700  25101481.93100  -3209060.98040  25101487.56740
  -2577857.87400  22782335.63400  -1921777.14940  22782339.66540
   2590372.69300  22394117.68800   2215502.59940  22394120.77040
 96  9  9  3  9 30.0050000  0  6  4 14 18 19 22 29
   1781759.35600  26301736.79800    773364.47140  26301740.93540
   6086414.96600  22453413.89900   4772696.51640  22453418.13040
  -8477622.67500  23461087.50900  -6266727.03940  23461091.38840
  -4275065.58700  25093080.70400  -3243463.27040  25093085.81340
  -2519696.75800  22793403.50100  -1876456.79340  22793407.43840
   2624099.81800  22400535.87600   2241783.47840  22400538.97040
 96  9  9  3 10  0.0050000  0  6  4 14 18 19 22 29
   1823399.52300  26309660.75100    805811.35740  26309663.52840
   6175695.28000  22470403.27400   4842265.58240  22470407.58740
  -8511579.42400  23454625.96200  -6293186.83040  23454629.48940
  -4319030.26800  25084714.29800  -3277721.41040  25084719.04440
  -2460927.51000  22804586.66500  -1830662.56640  22804590.49740
   2658075.73600  22407001.21200   2268258.22140  22407004.37640
 96  9  9  3 10 30.0050000  0  6  4 14 18 19 22 29
   1865482.14600  26317668.72800    838602.98840  26317673.72040
   6265468.37000  22487486.47000   4912218.63240  22487490.77040
  -8545411.66000  23448187.85300  -6319549.59840  23448191.73140
  -4362814.78400  25076382.10300  -3311839.15040  25076386.46240
  -2401584.96300  22815879.32900  -1784421.61540  22815883.10340
   2692267.00700  22413507.72800   2294900.77340  22413510.89240
 96  9  9  3 11  0.0050000  0  6  4 14 18 19 22 29
   1907987.96700  26325758.20400    871724.42040  26325763.64240
   6355723.47900  22504661.68100   4982547.27940  22504666.00540
  -8579123.63000  23441772.34500  -6345818.65440  23441776.07140
  -4406428.40600  25068082.82900  -3345823.75240  25068088.57140
  -2341681.57700  22827278.46200  -1737743.64240  22827282.38840
   2726663.07500  22420052.95400   2321702.90540  22420056.06040
 96  9  9  3 11 30.0050000  0  6  4 14 18 19 22 29
   1950915.55000  26333926.51700    905174.49340  26333929.71640
   6446437.87900  22521924.18800   5053233.81540  22521928.51340
  -8612723.73600  23435378.54800  -6372000.54340  23435382.32140
  -4449875.14000  25059814.01700  -3379678.28240  25059819.66540
  -2281228.40200  22838782.34500  -1690637.26540  22838786.17740
   2761274.62300  22426639.34500   2348672.94640  22426642.62640
 96  9  9  3 12  0.0050000  0  6  4 14 18 19 22 29
   1994299.27000  26342182.14900    938979.98840  26342185.99340
   6537641.00600  22539279.25900   5124301.18140  22539283.72440
  -8646174.51500  23429013.25100  -6398066.07240  23429017.03640
  -4493121.69800  25051584.97800  -3413376.86040  25051590.13440
  -2220192.01200  22850396.93800  -1643076.43740  22850400.78240
   2796148.58300  22433275.72000   2375847.46440  22433278.90740
 96  9  9  3 12 30.0050000  0  6  4 14 18 19 22 29
   2038132.78900  26350523.82900    973135.97240  26350530.28640
   6629320.25600  22556724.98500   5195739.54740  22556729.47440
  -8679492.04100  23422673.09500  -6424027.76340  23422676.79840
  -4536202.67900  25043387.23500  -3446946.40940  25043392.27440
  -2158575.20000  22862122.85300  -1595063.33140  22862126.64940
   2831270.26100  22439959.09500   2403215.00340  22439962.27040
 96  9  9  3 13  0.0050000  0  6  4 14 18 19 22 29
   2082434.61300  26358955.04800   1007656.80640  26358959.78240
   6721490.40200  22574264.73500   5267560.42540  22574269.02440
  -8712664.12800  23416360.51700  -6449876.12840  23416364.09140
  -4579105.17700  25035223.53200  -3480376.87740  25035228.52440
  -2096358.27700  22873962.01700  -1546582.60140  22873965.83740
   2866663.10800  22446694.12600   2430793.84640  22446697.24340
 96  9  9  3 13 30.0050000  0  6  4 14 18 19 22 29
   2127226.27200  26367475.91500   1042559.45140  26367480.64940
   6814178.62400  22591902.86800   5339785.00140  22591907.25140
  -8745677.98900  23410078.24300  -6475601.20640  23410082.21640
  -4621798.56500  25027098.94600  -3513644.41540  25027103.41140
  -2033525.98100  22885918.47800  -1497622.36040  22885922.39240
   2902344.66000  22453484.14200   2458597.65440  22453487.24740
 96  9  9  3 14  0.0050000  0  6  4 14 18 19 22 29
   2172469.33600  26376086.40700   1077813.74640  26376090.74340
   6907363.24800  22609635.19600   5412396.39040  22609639.52040
  -8778562.43500  23403820.60300  -6501225.43340  23403824.34140
  -4664309.18100  25019009.71200  -3546769.51840  25019014.24740
  -1970105.75100  22897986.87600  -1448203.99240  22897990.64940
   2938270.47400  22460320.57100   2486591.79840  22460323.65340
 96  9  9  3 14 30.0050000  0  6  4 14 18 19 22 29
   2218170.03400  26384783.57100   1113424.65840  26384788.97440
   7001048.27500  22627462.93100   5485397.70540  22627467.34940
  -8811308.63600  23397589.28200  -6526741.93240  23397593.22040
  -4706627.83900  25010956.52400  -3579745.04840  25010960.46240
  -1906088.59900  22910168.90700  -1398320.48440  22910172.86840
   2974445.86200  22467204.43800   2514780.41840  22467207.62640
 96  9  9  3 15  0.0060000  0  6  4 14 18 19 22 29
   2264323.18900  26393566.79500   1149388.08640  26393570.43940
   7095232.57100  22645385.50600   5558788.05840  22645389.90040
  -8843917.26500  23391383.70900  -6552151.24340  23391387.57640
  -4748748.61100  25002941.03700  -3612566.40440  25002946.59240
  -1841484.11300  22922462.82600  -1347979.31840  22922466.68240
   3010877.15200  22474137.15400   2543168.43040  22474140.35340
 96  9  9  3 15 30.0060000  0  6  4 14 18 19 22 29
   2310918.59200  26402432.06800   1185696.24240  26402438.42040
   7189898.88700  22663399.81100   5632554.01640  22663404.22840
  -8876413.88100  23385199.87300  -6577473.25940  23385203.76440
  -4790678.43300  24994962.16200  -3645238.94540  24994967.42440
  -1776304.49900  22934866.02900  -1297189.99840  22934869.99040
   3047540.88400  22481113.91200   2571737.57340  22481117.15840
 96  9  9  3 16  0.0060000  0  6  4 14 18 19 22 29
   2357953.61600  26411383.31100   1222346.83340  26411387.04940
   7285028.27000  22681502.43600   5706680.79640  22681506.84240
  -8908805.58300  23379035.98200  -6602713.53740  23379039.86140
  -4832427.17900  24987017.42000  -3677770.39140  24987021.60340
  -1710551.66600  22947378.49000  -1245954.01540  22947382.41640
   3084429.34800  22488133.49800   2600481.82740  22488136.61540
 96  9  9  3 16 30.0060000  0  6  4 14 18 19 22 29
   2405444.30900  26420419.54500   1259352.56640  26420425.86140
   7380627.89900  22699694.52100   5781174.00940  22699698.97540
  -8941086.68900  23372892.88900  -6627867.62740  23372896.79140
  -4873986.86500  24979108.89600  -3710154.51240  24979113.33840
  -1644222.70600  22960000.40400  -1194269.10240  22960004.42440
   3121554.02800  22495198.20100   2629410.15240  22495201.49440
 96  9  9  3 17  0.0060000  0  6  4 14 18 19 22 29
   2453400.73400  26429546.58400   1296721.22340  26429552.54940
   7476695.56000  22717975.38900   5856031.92440  22717979.81840
  -8973264.92400  23366769.83400  -6652941.56140  23366773.54940
  -4915351.33900  24971237.27900  -3742386.51840  24971242.51840
  -1577323.36400  22972730.91200  -1142139.73540  22972734.73240
   3158923.19400  22502309.10700   2658528.98540  22502312.18940
 96  9  9  3 17 30.0060000  0  6  4 14 18 19 22 29
   2501830.49700  26438762.24800   1334458.68740  26438769.42440
   7573236.13500  22736346.57600   5931258.34040  22736351.01840
  -9005317.69600  23360670.30300  -6677917.72840  23360674.20540
  -4956512.68900  24963404.73200  -3774460.26040  24963409.16240
  -1509844.87900  22985571.72500  -1089559.08540  22985575.69740
   3196552.82800  22509469.94300   2687850.77140  22509473.04940
 96  9  9  3 18  0.0060000  0  6  4 14 18 19 22 29
   2550720.18000  26448065.95900   1372554.48840  26448071.52540
   7670247.58900  22754807.28700   6006851.67440  22754811.51840
  -9037219.36500  23354599.46700  -6702776.16040  23354603.17040
  -4997482.68700  24955608.48200  -3806384.89940  24955612.77140
  -1441795.16700  22998521.10000  -1036533.32840  22998525.02540
   3234460.08700  22516683.53700   2717388.89340  22516686.71340
 96  9  9  3 18 30.0060000  0  6  4 14 18 19 22 29
   2600040.58600  26457450.74000   1410985.96740  26457456.78740
   7767716.37200  22773354.92800   6082801.37140  22773359.28740
  -9068986.47900  23348554.67000  -6727529.73540  23348558.24440
  -5038294.93600  24947841.85700  -3838186.62340  24947846.85040
  -1373207.55800  23011572.85000   -983088.42040  23011576.90440
   3272632.24000  22523947.57600   2747133.42640  22523950.75240
 96  9  9  3 19  0.0060000  0  6  4 14 18 19 22 29
   2649790.37300  26466917.96700   1449751.99340  26466922.36140
   7865633.49200  22791987.96700   6159100.41540  22791992.31440
  -9100588.59000  23342540.81100  -6752154.74140  23342544.67840
  -5078937.37900  24940107.89600  -3869856.02940  24940112.87740
  -1304064.90400  23024730.23200   -929211.02040  23024734.26440
   3311082.10900  22531264.08400   2777094.36240  22531267.21340
 96  9  9  3 19 30.0060000  0  6  4 14 18 19 22 29
   2699954.76400  26476464.49800   1488841.10540  26476468.48240
   7963995.08000  22810705.48200   6235745.79240  22810710.00640
  -9132008.73000  23336561.81800  -6776637.95740  23336565.87340
  -5119417.54600  24932404.62300  -3901398.97140  24932408.46740
  -1234357.85300  23037995.20900   -874893.83540  23037999.21740
   3349795.84100  22538631.17000   2807260.90240  22538634.34640
 96  9  9  3 20  0.0060000  0  6  4 14 18 19 22 29
   2750542.24100  26486090.79500   1528259.98440  26486095.97540
   8062805.34800  22829508.78700   6312740.79940  22829513.32240
  -9163254.79500  23330616.02100  -6800985.52640  23330619.88940
  -5159726.06200  24924734.09200  -3932808.18740  24924739.20140
  -1164072.58300  23051369.81100   -820126.08040  23051373.86540
   3388777.70800  22546049.14600   2837636.38740  22546052.41640
 96  9  9  3 20 30.0060000  0  6  4 14 18 19 22 29
   2801565.30800  26495799.72500   1568018.15740  26495805.20940
   8162076.27700  22848398.91200   6390094.76640  22848403.49440
  -9194330.95000  23324702.17800  -6825200.69740  23324705.85740
  -5199837.24200  24917101.46700  -3964063.60940  24917106.01440
  -1093196.25400  23064857.26400   -764897.76440  23064861.24840
   3428027.24200  22553518.24000   2868220.44140  22553521.48640
 96  9  9  3 21  0.0060000  0  6  4 14 18 19 22 29
   2853013.02400  26505590.31800   1608107.26040  26505595.21740
   8261816.56300  22867379.00600   6467814.47040  22867383.42440
  -9225249.24600  23318818.56800  -6849292.85540  23318822.50640
  -5239755.76800  24909505.35000  -3995168.93240  24909510.47140
  -1021726.72300  23078457.29500   -709207.21240  23078461.40840
   3467530.81800  22561035.45100   2899002.44940  22561038.59240
 96  9  9  3 21 30.0060000  0  6  4 14 18 19 22 29
   2904868.97400  26515457.25600   1648514.47240  26515462.27140
   8362043.90200  22886451.76400   6545913.68840  22886456.17040
  -9256033.28000  23312960.87300  -6873280.39740  23312964.70540
  -5279489.70000  24901944.20900  -4026130.40740  24901949.14340
   -949687.87100  23092165.86500   -653073.02840  23092169.73240
   3507282.18500  22568599.83400   2929977.54740  22568602.90440
 96  9  9  3 22  0.0060000  0  6  4 14 18 19 22 29
   2957110.80700  26525399.57600   1689222.34840  26525402.95140
   8462757.15700  22905616.96700   6624391.54240  22905621.36140
  -9286692.47800  23307126.27100  -6897170.66740  23307130.04540
  -5319037.50200  24894418.27900  -4056946.84340  24894422.73240
   -877111.52200  23105976.52900   -596520.02840  23105980.51440
   3547281.10800  22576211.48200   2961145.54040  22576214.60040
 96  9  9  3 22 30.0060000  0  6  4 14 18 19 22 29
   3009732.51400  26535413.88900   1730226.25840  26535418.54140
   8563970.54700  22924877.02100   6703259.11740  22924881.54540
  -9317192.97600  23301322.12300  -6920937.27340  23301325.89640
  -5358397.77900  24886928.23200  -4087617.14440  24886932.75640
   -804008.12000  23119887.82600   -539556.32940  23119891.79940
   3587535.38600  22583871.49000   2992512.51440  22583874.51440
 96  9  9  3 23  0.0060000  0  6  4 14 18 19 22 29
   3062732.62100  26545498.38900   1771525.03040  26545503.66240
   8665651.56600  22944226.38100   6782491.07540  22944230.76440
  -9347519.26300  23295551.63100  -6944568.13240  23295555.10040
  -5397582.60100  24879471.33400  -4118150.74240  24879476.78340
   -730391.42200  23133896.62300   -482192.65740  23133900.49040
   3628037.52500  22591578.87300   3024072.62640  22591581.99040
 96  9  9  3 23 30.0060000  0  6  4 14 18 19 22 29
   3116128.02400  26555659.31800   1813131.82440  26555665.88140
   8767769.28500  22963658.49000   6862063.32640  22963663.01440
  -9377659.48500  23289815.87300  -6968053.99240  23289819.45940
  -5436568.11800  24872053.10700  -4148529.03040  24872058.20540
   -656272.21200  23148000.86500   -424437.42040  23148004.83840
   3668797.83100  22599335.25600   3055833.91140  22599338.27940
 96  9  9  3 24  0.0060000  0  6  4 14 18 19 22 29
   3169944.30700  26565901.20900   1855066.57840  26565906.40040
   8870307.13500  22983171.12300   6941962.94140  22983175.52940
  -9407613.81000  23284115.84200  -6991395.01240  23284119.75640
  -5475359.26300  24864671.04500  -4178755.84640  24864676.72840
   -581643.28900  23162202.42000   -366285.00340  23162206.33440
   3709810.22000  22607139.74800   3087791.62140  22607142.90040
 96  9  9  3 24 30.0060000  0  6  4 14 18 19 22 29
   3224219.10100  26576228.52100   1897358.59240  26576233.20940
   8973256.39000  23002761.51400   7022183.12840  23002765.81440
  -9437388.39500  23278449.92000  -7014595.97840  23278453.55340
  -5513951.81800  24857327.38100  -4208827.90940  24857332.51440
   -506479.78400  23176505.55300   -307716.02940  23176509.37340
   3751076.69800  22614992.48200   3119947.32640  22614995.48240
 96  9  9  3 25  0.0060000  0  6  4 14 18 19 22 29
   3278971.18100  26586647.33400   1940022.52740  26586650.85040
   9076613.43000  23022429.76400   7102721.07040  23022434.21740
  -9467009.21300  23272813.25600  -7037677.11640  23272817.11140
  -5552335.90200  24850022.75600  -4238737.54440  24850027.64340
   -430762.89300  23190914.05300   -248715.85040  23190917.81440
   3792605.29000  22622895.02900   3152307.26940  22622898.11140
 96  9  9  3 25 30.0060000  0  6  4 14 18 19 22 29
   3334192.85300  26597155.74800   1983052.35240  26597160.11940
   9180399.28500  23042179.67000   7183593.15240  23042184.11140
  -9496494.12900  23267202.48200  -7060652.36440  23267206.18640
  -5590516.83600  24842756.93600  -4268488.88840  24842761.47140
   -354477.78500  23205430.37300   -189272.90140  23205434.26440
   3834407.96100  22630849.70100   3184880.78240  22630852.84240
 96  9  9  3 26  0.0060000  0  6  4 14 18 19 22 29
   3389847.95600  26607747.87300   2026419.95740  26607751.14340
   9284609.90800  23062010.10000   7264796.22540  23062014.76440
  -9525856.27600  23261615.07600  -7083531.94440  23261618.83840
  -5628541.30200  24835521.10000  -4298118.28140  24835524.83840
   -277620.17100  23220056.12300   -129383.84540  23220059.92040
   3876472.05100  22638854.25600   3217657.99540  22638857.45540
 96  9  9  3 26 30.0060000  0  6  4 14 18 19 22 29
   3445918.75600  26618415.70100   2070111.42240  26618420.61140
   9389250.87200  23081922.55300   7346334.62840  23081926.99440
  -9555075.15000  23256054.91200  -7106299.89440  23256058.55740
  -5666404.90700  24828316.29500  -4327622.34840  24828322.30740
   -200183.80300  23234791.49800    -69043.81540  23234795.08440
   3918818.49300  22646912.50600   3250655.22540  22646915.64640
 96  9  9  3 27  0.0060000  0  6  4 14 18 19 22 29
   3502395.53500  26629163.85000   2114119.27540  26629170.35340
   9494348.71800  23101922.13100   7428229.04040  23101926.66640
  -9584114.89000  23250528.62300  -7128928.24940  23250532.20940
  -5704099.84000  24821143.02100  -4356994.96440  24821148.61140
   -122161.47600  23249638.87300     -8247.18940  23249642.96340
   3961466.86800  22655028.28700   3283887.72140  22655031.51040
 96  9  9  3 27 30.0060000  0  6  4 14 18 19 22 29
   3559279.32600  26639989.13100   2158444.28040  26639994.73240
   9599900.28200  23122008.14600   7510477.00640  23122012.61140
  -9612947.49100  23245041.74000  -7151395.19840  23245045.73640
  -5741618.76800  24814003.43600  -4386230.46240  24814008.42840
    -43565.45000  23264595.14600     52996.47740  23264598.89640
   4004420.95400  22663202.10700   3317358.43940  22663205.21340
 96  9  9  3 28  0.0060000  0  6  4 14 18 19 22 29
   3616551.52000  26650888.00600   2203071.93940  26650891.95540
   9705881.41000  23142175.24800   7593059.69540  23142179.80740
  -9641592.75600  23239590.99800  -7173716.18140  23239594.66640
  -5778979.57200  24806894.08400  -4415342.73040  24806898.35040
     35551.19800  23279650.67800    114645.81740  23279654.33440
   4047655.51700  22671429.48200   3351047.70940  22671432.63540
 96  9  9  3 28 30.0060000  0  6  4 14 18 19 22 29
   3674230.19800  26661863.31800   2248016.35940  26661868.52140
   9812301.55900  23162426.55300   7675984.47940  23162431.18240
  -9670042.55600  23234177.20100  -7195884.84540  23234180.84640
  -5816144.51100  24799821.67800  -4444302.38540  24799826.37740
    115184.08400  23294804.17000    176697.42740  23294807.93240
   4091172.59700  22679710.52100   3384957.12040  22679713.56840
 96  9  9  3 29  0.0060000  0  6  4 14 18 19 22 29
   3732308.76900  26672914.85000   2293272.33440  26672920.53340
   9919150.47200  23182759.36500   7759243.36940  23182763.85340
  -9698317.05700  23228796.69300  -7217916.91340  23228800.33840
  -5853114.07000  24792786.38900  -4473109.80740  24792790.78340
    195324.10300  23310054.32600    239144.20140  23310058.40440
   4134958.00400  22688042.41200   3419075.62140  22688045.63540
 96  9  9  3 29 30.0060000  0  6  4 14 18 19 22 29
   3790787.85600  26684042.52900   2338840.40440  26684046.29140
  10026434.61000  23203174.66200   7842841.39440  23203178.96340
  -9726427.60500  23223447.50600  -7239821.22540  23223451.22140
  -5889877.13700  24785790.72500  -4501756.31340  24785795.67040
    275976.44000  23325401.85000    301990.18040  23325405.69340
   4179018.16500  22696426.89600   3453408.21440  22696429.95540
 96  9  9  3 30  0.0060000  0  6  4 14 18 19 22 29
   3849666.96300  26695248.34200   2384720.23340  26695250.97840
  10134181.52700  23223678.39600   7926800.03040  23223682.99040
  -9754367.22000  23218130.57600  -7261592.34540  23218134.29140
  -5926419.61000  24778836.86500  -4530230.94640  24778841.24840
    357169.10100  23340852.42000    365257.19440  23340856.22840
   4223354.55100  22704863.92000   3487956.04940  22704867.04940
 96  9  9  3 30 30.0060000  0  6  4 14 18 19 22 29
   3908919.70800  26706522.86500   2430891.15740  26706526.99040
  10242369.71600  23244265.90400   8011102.50240  23244270.45140
  -9782132.21000  23212847.33400  -7283227.38840  23212850.94340
  -5962746.79400  24771924.27900  -4558537.80340  24771929.00240
    438908.96600  23356406.99000    428950.60340  23356410.97540
   4267953.15600  22713350.74000   3522708.20440  22713353.78740
 96  9  9  3 31  0.0060000  0  6  4 14 18 19 22 29
   3968526.26900  26717866.61500   2477337.81140  26717870.68240
  10350978.03100  23264933.38100   8095732.35740  23264937.90440
  -9809736.04100  23207594.37300  -7304736.86040  23207598.07640
  -5998883.93300  24765047.26400  -4586696.59440  24765051.72840
    521176.03400  23372061.83400    493054.81740  23372065.83040
   4312807.79200  22721886.21700   3557659.87240  22721889.35740
 96  9  9  3 31 30.0060000  0  6  4 14 18 19 22 29
   4028505.89300  26729278.96700   2524075.10340  26729284.48640
  10460003.41300  23285680.18600   8180687.19140  23285684.66240
  -9837155.52200  23202376.67800  -7326102.67540  23202380.19340
  -6034822.66700  24758208.45900  -4614700.78740  24758213.22840
    603960.82000  23387815.27900    557562.44840  23387819.11140
   4357927.53200  22730472.30300   3592818.11440  22730475.47840
 96  9  9  3 32  0.0060000  0  6  4 14 18 19 22 29
   4088867.74700  26740767.49800   2571110.27440  26740771.60040
  10569419.80200  23306501.44300   8265946.70640  23306505.81440
  -9864383.18100  23197195.37300  -7347319.02340  23197199.05340
  -6070571.30800  24751405.31800  -4642556.83740  24751410.12340
    687244.38900  23403663.56100    622458.73740  23403667.42840
   4403312.88400  22739108.85700   3628183.31940  22739111.97540
 96  9  9  3 32 30.0060000  0  6  4 14 18 19 22 29
   4149628.12600  26752328.02100   2618455.98840  26752334.01040
  10679217.90900  23327395.52900   8351503.66740  23327400.07640
  -9891417.50800  23192050.83400  -7368384.72240  23192054.56140
  -6106133.22200  24744638.45100  -4670267.40340  24744643.27940
    771009.03100  23419603.63100    687729.89140  23419607.61540
   4448978.98300  22747798.76400   3663767.29340  22747801.85740
 96  9  9  3 33  0.0060000  0  6  4 14 18 19 22 29
   4210807.37900  26763969.69300   2666128.10240  26763976.65840
  10789404.34600  23348363.06800   8437363.22140  23348367.77940
  -9918269.02100  23186941.09200  -7389307.96940  23186944.79540
  -6141514.33900  24737905.39600  -4697837.08740  24737910.00240
    855250.20600  23435633.93600    753372.37140  23435637.80340
   4494927.14800  22756542.34200   3699571.06040  22756545.49440
 96  9  9  3 33 30.0060000  0  6  4 14 18 19 22 29
   4272422.19200  26775694.21700   2714139.59840  26775698.85740
  10899995.87100  23369408.02900   8523538.42440  23369412.56440
  -9944923.43600  23181868.92000  -7410077.63540  23181872.70540
  -6176699.84900  24731209.77900  -4725254.33240  24731214.27940
    939990.91900  23451759.61500    819404.09940  23451763.42440
   4541172.83200  22765342.74000   3735606.66240  22765345.89340
 96  9  9  3 34  0.0060000  0  6  4 14 18 19 22 29
   4334435.79000  26787495.96700   2762461.89140  26787500.81840
  11010990.60900  23390529.52100   8610027.82340  23390534.01040
  -9971401.34500  23176830.65400  -7430709.76340  23176834.36940
  -6211707.61400  24724547.93600  -4752533.09340  24724552.64640
   1025245.59500  23467982.99800    885836.32040  23467986.81840
   4587704.93200  22774197.35000   3771865.43940  22774200.44340
 96  9  9  3 34 30.0060000  0  6  4 14 18 19 22 29
   4396833.15900  26799370.15400   2811083.13640  26799377.11940
  11122395.08300  23411729.29500   8696836.49640  23411733.88940
  -9997705.17000  23171824.89600  -7451206.23540  23171828.49440
  -6246541.53500  24717919.42800  -4779676.38140  24717924.24440
   1111035.24100  23484308.23200    952685.39840  23484312.13540
   4634520.12300  22783105.92800   3808344.81640  22783108.98640
 96  9  9  3 35  0.0060000  0  6  4 14 18 19 22 29
   4459592.48300  26811312.85000   2859986.53040  26811317.19740
  11234197.28900  23433004.52100   8783955.09140  23433009.02140
 -10023831.92200  23166853.35700  -7471564.73440  23166857.03740
  -6281194.46700  24711325.13100  -4806678.65240  24711329.72540
   1197374.01900  23500737.97500   1019962.37140  23500742.04140
   4681619.70200  22792068.84200   3845045.79040  22792071.99440
 96  9  9  3 35 30.0060000  0  7  3  4 14 18 19 22 29
     -6339.80810  26817804.31800
   4522697.66700  26823321.18600   2909159.34340  26823325.47540
  11346393.07400  23454354.75600   8871380.36840  23454359.30340
 -10049773.86100  23161916.32600  -7491779.22540  23161920.13540
  -6315662.21500  24704766.00600  -4833536.60440  24704770.76440
   1284262.12100  23517272.41200   1087667.38940  23517276.39640
   4729019.92600  22801088.68600   3881981.03340  22801091.86140
 96  9  9  3 36  0.0060000  0  7  3  4 14 18 19 22 29
    -44336.93700  26810574.23200
   4586128.98500  26835391.56100   2958586.33840  26835396.83440
  11458953.00500  23475774.06100   8959089.40240  23475778.70140
 -10075546.21700  23157012.20900  -7511861.57040  23157016.01840
  -6349967.30200  24698238.02900  -4860267.82740  24698243.01040
   1371654.62900  23533902.46700   1155765.45140  23533906.49840
   4776696.19000  22810161.31100   3919131.37140  22810164.36940
 96  9  9  3 36 30.0060000  0  7  3  4 14 18 19 22 29
    -82231.71100  26803363.17800     -5898.98550  26803369.69340
   4649920.93900  26847532.62300   3008294.28340  26847534.36940
  11571887.83100  23497264.83400   9047090.55040  23497269.41640
 -10101116.18700  23152146.41200  -7531786.21340  23152150.08040
  -6384078.73900  24691747.05300  -4886848.14940  24691751.37740
   1459547.93500  23550627.82600   1224253.74640  23550631.89340
   4824662.11500  22819288.89600   3956507.41740  22819292.09640
 96  9  9  3 37  0.0060000  0  6  3 14 18 19 22 29
   -120029.26300  26796169.91200    -35351.56640  26796173.11140
  11685195.28500  23518826.63100   9135382.07440  23518831.21340
 -10126475.89900  23147320.73200  -7551547.01640  23147324.35340
  -6417984.09200  24685294.81100  -4913267.87940  24685299.85040
   1547921.68500  23567445.06800   1293116.41940  23567449.10040
   4872928.94800  22828473.87300   3994117.94040  22828477.03740
 96  9  9  3 37 30.0060000  0  6  3 14 18 19 22 29
   -157732.48400  26788995.04500    -64730.68640  26789001.04540
  11798885.13100  23540460.77900   9223971.55740  23540465.35040
 -10151618.95600  23142536.02100  -7571139.00140  23142539.71340
  -6451692.12200  24678880.83400  -4939533.83840  24678885.76840
   1636764.72200  23584351.47500   1362344.76240  23584355.41240
   4921497.66900  22837715.96700   4031963.69740  22837719.09640
 96  9  9  3 38  0.0060000  0  6  3 14 18 19 22 29
   -195327.70200  26781841.20100    -94025.63740  26781846.59240
  11912965.60800  23562169.89600   9312865.43240  23562174.35040
 -10176533.27600  23137795.10000  -7590552.75040  23137798.94340
  -6485195.45000  24672504.77900  -4965640.30640  24672509.58440
   1726085.48800  23601348.45900   1431945.36440  23601352.32640
   4970359.64500  22847013.95100   4070037.96340  22847017.08040
 96  9  9  3 38 30.0060000  0  6  3 14 18 19 22 29
   -232824.83000  26774705.52100   -123244.20640  26774711.35740
  12027447.44800  23583954.95100   9402072.04740  23583959.45140
 -10201231.04800  23133095.10000  -7609797.76340  23133098.87340
  -6518490.61900  24666169.42000  -4991584.57540  24666174.20140
   1815896.94900  23618439.03700   1501928.32340  23618442.92840
   5019522.87900  22856369.68600   4108346.97440  22856372.88540
 96  9  9  3 39  0.0060000  0  6  3 14 18 19 22 29
   -270237.72000  26767586.47500   -152397.03040  26767589.62740
  12142349.44600  23605820.17800   9491606.06140  23605824.88940
 -10225732.12600  23128432.97500  -7628889.50440  23128436.70140
  -6551593.37500  24659869.73200  -5017378.90340  24659874.56140
   1906194.67800  23635622.10700   1572290.19640  23635625.91640
   5069000.99000  22865785.00600   4146901.34740  22865788.17040
 96  9  9  3 39 30.0070000  0  6  3 14 18 19 22 29
   -307584.08200  26760479.19800   -181498.09540  26760484.68340
  12257670.25600  23627764.92500   9581466.42440  23627769.46040
 -10250050.32200  23123805.21400  -7647838.73540  23123809.05840
  -6584521.25800  24653603.83100  -5043036.97040  24653608.33140
   1996986.36700  23652899.15900   1643036.97340  23652903.15540
   5118774.23400  22875256.39400   4185685.69640  22875259.48740
 96  9  9  3 40  0.0070000  0  6  3 14 18 19 22 29
   -344855.32400  26753387.74500   -210540.58940  26753392.10440
  12373405.08700  23649788.52600   9671649.39740  23649793.05040
 -10274177.01800  23119213.91700  -7666638.75240  23119217.71440
  -6617256.73700  24647374.51900  -5068545.10540  24647379.30040
   2088270.40700  23670269.94800   1714167.40040  23670273.71040
   5168842.07500  22884784.01900   4224699.60140  22884787.14740
 96  9  9  3 40 30.0070000  0  6  3 14 18 19 22 29
   -382048.97500  26746309.89400   -239522.61440  26746315.37840
  12489555.42000  23671891.05000   9762156.14040  23671895.64440
 -10298098.17800  23114661.97900  -7685278.60840  23114665.58940
  -6649792.14100  24641183.03400  -5093897.33240  24641187.80440
   2180053.71900  23687735.72200   1785686.86940  23687739.36640
   5219224.05700  22894371.46400   4263958.28740  22894374.56940
 96  9  9  3 41  0.0070000  0  6  3 14 18 19 22 29
   -419148.72400  26739249.51900   -268431.48140  26739253.57340
  12606097.51500  23694068.61200   9852968.15840  23694073.04240
 -10321793.51800  23110153.11200  -7703742.50040  23110156.65140
  -6682130.02100  24635029.37800  -5119095.65640  24635033.92540
   2272333.56600  23705295.95600   1857593.25140  23705299.72940
   5269911.82800  22904016.97900   4303455.25140  22904020.02640
 96  9  9  3 41 30.0070000  0  6  3 14 18 19 22 29
   -456153.88500  26732207.48700   -297266.66240  26732214.26140
  12722978.55100  23716310.19800   9944044.28840  23716314.60440
 -10345258.80900  23105687.53400  -7722027.12940  23105691.03840
  -6714279.30200  24628911.76100  -5144147.00440  24628916.26140
   2365088.13100  23722946.65100   1929869.54540  23722950.68340
   5320862.45400  22913712.65100   4343157.04140  22913715.89740
 96  9  9  3 42  0.0070000  0  6  3 14 18 19 22 29
   -493030.27800  26725190.68300   -326001.46740  26725193.87040
  12840213.55900  23738619.15900  10035396.23240  23738623.49540
 -10368469.60000  23101270.83100  -7740113.45240  23101274.41740
  -6746207.02900  24622836.00300  -5169025.72440  24622840.72640
   2458322.68500  23740688.48700   2002519.85140  23740692.46040
   5372099.32600  22923462.82300   4383081.87540  22923465.95240
 96  9  9  3 42 30.0070000  0  6  3 14 18 19 22 29
   -529768.62700  26718199.08100   -354628.72740  26718204.84740
  12957801.79400  23760995.53400  10127023.42540  23760999.76540
 -10391430.74500  23096901.35400  -7758005.24840  23096904.95240
  -6777918.45300  24616801.47200  -5193735.90040  24616806.21840
   2552041.48000  23758522.47900   2075547.49140  23758526.12440
   5423627.96500  22933268.01900   4423234.06340  22933271.06540
 96  9  9  3 43  0.0070000  0  6  3 14 18 19 22 29
   -566376.60500  26711232.24500   -383154.39140  26711238.15140
  13075731.67500  23783437.03400  10218916.82940  23783441.40540
 -10414173.94000  23092573.38600  -7775727.20440  23092576.94840
  -6809427.69400  24610805.31500  -5218288.52240  24610809.99140
   2646221.20800  23776444.58900   2148934.29540  23776448.51540
   5475422.94900  22943124.37800   4463593.79140  22943127.54240
 96  9  9  3 43 30.0070000  0  6  3 14 18 19 22 29
   -602825.24800  26704297.33900   -411555.90940  26704300.31540
  13194036.81700  23805949.71400  10311102.64740  23805954.17940
 -10436677.52400  23088291.01900  -7793262.45740  23088294.61640
  -6840704.41100  24604853.52600  -5242659.96140  24604858.36640
   2740896.50800  23794460.56500   2222707.26540  23794464.47940
   5527523.67600  22953038.93300   4504191.76240  22953042.06140
 96  9  9  3 44  0.0070000  0  6  3 14 18 19 22 29
   -639119.28300  26697390.33900   -439836.94040  26697395.58940
  13312721.98400  23828534.69800  10403584.58740  23828539.15140
 -10458949.27800  23084053.05000  -7810617.05740  23084056.72940
  -6871758.18100  24598944.04200  -5266857.67640  24598948.74140
   2836069.89100  23812571.53400   2296868.34740  23812575.37840
   5579954.12400  22963016.16700   4545046.66040  22963019.31940
 96  9  9  3 44 30.0070000  0  6  3 14 18 19 22 29
   -675254.21800  26690514.15900   -467994.01240  26690519.47940
  13431788.29900  23851192.33900  10496363.52640  23851197.01540
 -10480979.45200  23079860.81500  -7827783.41640  23079864.46040
  -6902602.25100  24593074.82300  -5290891.99240  24593079.07740
   2931746.51800  23830777.94000   2371421.56740  23830781.96040
   5632731.46800  22973059.22900   4586171.86340  22973062.49940
 96  9  9  3 45  0.0070000  0  6  3 14 18 19 22 29
   -711243.32000  26683666.04200   -496037.44140  26683670.42540
  13551214.65800  23873918.35400  10589423.01940  23873923.00740
 -10502760.48700  23075715.95600  -7844755.64240  23075719.62440
  -6933242.94700  24587244.00300  -5314767.82840  24587248.47940
   3027909.68900  23849077.13600   2446353.91440  23849080.83940
   5685850.42300  22983167.65900   4627563.25540  22983170.76540
 96  9  9  3 45 30.0070000  0  6  3 14 18 19 22 29
   -747116.39200  26676839.12800   -523990.44740  26676842.46840
  13670980.58300  23896709.06500  10682747.10340  23896713.49540
 -10524300.88600  23071617.07300  -7861540.35740  23071620.48340
  -6963717.13500  24581444.92500  -5338513.92540  24581449.78840
   3124532.78200  23867463.99500   2521644.64040  23867467.95640
   5739287.67800  22993336.16700   4669202.67340  22993339.26140
 96  9  9  3 46  0.0070000  0  6  3 14 18 19 22 29
   -782852.71700  26670038.72200   -551836.91340  26670043.62040
  13791106.98200  23919568.21400  10776352.08240  23919572.69040
 -10545592.64500  23067565.30000  -7878131.32840  23067568.83940
  -6994014.87700  24575679.28400  -5362122.52840  24575683.83140
   3221624.01500  23885939.72200   2597300.15440  23885943.67140
   5793046.06200  23003566.30800   4711092.32240  23003569.30840
 96  9  9  3 46 30.0070000  0  6  3 14 18 19 22 29
   -818448.45400  26663265.12000   -579573.79540  26663269.33940
  13911594.28400  23942496.25300  10870238.28140  23942500.78840
 -10566645.57700  23063558.78400  -7894536.20140  23063562.44040
  -7024133.89900  24569947.93300  -5385591.87240  24569952.64440
   3319185.14700  23904505.05800   2673321.81640  23904508.84340
   5847112.65200  23013854.71400   4753222.12740  23013857.98340
 96  9  9  3 47  0.0070000  0  6  3 14 18 19 22 29
   -853909.49100  26656517.31500   -607205.76040  26656520.90140
  14032429.34100  23965490.28400  10964395.46040  23965494.60840
 -10587484.00900  23059593.87800  -7910773.92940  23059597.42940
  -7054075.07000  24564250.31500  -5408922.62440  24564255.08540
   3417208.98000  23923158.51100   2749704.03040  23923162.55440
   5901467.08800  23024197.91700   4795576.23440  23024201.06940
 96  9  9  3 47 30.0070000  0  6  3 14 18 19 22 29
   -889240.25600  26649794.13600   -634736.19840  26649799.52640
  14153602.23100  23988548.97200  11058815.89540  23988553.57740
 -10608127.89900  23055665.05800  -7926860.06540  23055668.74940
  -7083853.23700  24558583.73700  -5432126.35940  24558588.24940
   3515684.59800  23941897.81500   2826438.28240  23941901.92940
   5956089.66100  23034592.43300   4838139.27740  23034595.47940
 96  9  9  3 48  0.0070000  0  6  3 14 18 19 22 29
   -924406.19300  26643102.04200   -662138.19740  26643107.76140
  14275126.35300  24011674.07300  11153510.00840  24011678.50340
 -10628550.26900  23051778.94000  -7942773.58840  23051782.47940
  -7113429.00600  24552955.90900  -5455172.39640  24552960.37440
   3614632.46000  23960727.01100   2903540.51440  23960731.00740
   6011021.92600  23045045.72900   4880943.64240  23045048.88240
 96  9  9  3 48 30.0070000  0  6  3 14 18 19 22 29
   -959406.53700  26636441.74500   -689411.14840  26636446.78440
  14397002.16600  24034866.25300  11248478.16440  24034870.62440
 -10648725.67700  23047939.72900  -7958494.67740  23047943.40940
  -7142798.39600  24547366.84700  -5478057.60840  24547370.96040
   3714049.05300  23979645.19000   2981007.99240  23979649.12840
   6066286.57400  23055562.09700   4924006.99840  23055565.20240
 96  9  9  3 49  0.0070000  0  6  3 14 18 19 22 29
   -994261.62100  26629808.84700   -716570.92940  26629813.54640
  14519214.42900  24058122.66700  11343708.49240  24058127.24940
 -10668648.63700  23044148.47900  -7974019.05640  23044152.11240
  -7171966.69100  24541816.19000  -5500786.12040  24541820.73740
   3813913.19400  23998648.75300   3058824.20340  23998652.78440
   6121870.14200  23066139.29200   4967318.86840  23066142.51540
 96  9  9  3 49 30.0070000  0  6  3 14 18 19 22 29
  -1028971.89000  26623203.69000   -743617.86540  26623207.66340
  14641769.06300  24081444.08100  11439205.60340  24081448.68640
 -10688301.37500  23040408.62800  -7989332.87340  23040412.21440
  -7200921.42700  24536306.43300  -5523348.23040  24536310.73340
   3914216.85100  24017735.76100   3136982.89440  24017739.56940
   6177779.53400  23076778.47200   5010884.62440  23076781.74140
 96  9  9  3 50  0.0070000  0  6  3 14 18 19 22 29
  -1063523.89600  26616628.71400   -770541.49240  26616632.72240
  14764684.09800  24104833.97900  11534983.53740  24104838.21040
 -10707676.95100  23036721.83900  -8004430.71240  23036725.46040
  -7229645.01000  24530840.53400  -5545730.21040  24530845.09340
   4014969.44000  24036908.54200   3215491.41140  24036912.35140
   6234038.66900  23087484.44000   5054722.90940  23087487.61640
 96  9  9  3 50 30.0070000  0  6  3 14 18 19 22 29
  -1097926.39600  26610081.83100   -797348.59440  26610085.69840
  14887956.40800  24128291.98700  11631039.87840  24128296.66340
 -10726784.33500  23033085.73700  -8019319.57840  23033089.30040
  -7258135.52700  24525418.90900  -5567930.59440  24525423.39740
   4116170.96100  24056166.47200   3294349.74040  24056170.31540
   6290626.81400  23098252.76100   5098817.56440  23098255.91340
 96  9  9  3 51  0.0070000  0  6  3 14 18 19 22 29
  -1132164.07400  26603567.03400   -824027.29340  26603571.47640
  15011577.68800  24151816.29200  11727368.13540  24151820.42940
 -10745636.01800  23029498.26100  -8034009.20040  23029501.76540
  -7286382.23300  24520043.62000  -5589940.99640  24520048.02640
   4217807.85500  24075507.26100   3373547.31940  24075511.02240
   6347532.04300  23109081.46400   5143159.30040  23109084.58140
 96  9  9  3 51 30.0070000  0  6  3 14 18 19 22 29
  -1166223.08900  26597085.37800   -850566.76640  26597090.59340
  15135530.70000  24175403.90100  11823954.89740  24175408.46040
 -10764253.20300  23025955.60400  -8048516.09440  23025959.19040
  -7314415.89900  24514709.01900  -5611785.37340  24514713.50740
   4319857.32900  24094926.87800   3453066.39040  24094930.71040
   6404751.56800  23119969.87800   5187745.93940  23119972.94840
 96  9  9  3 52  0.0070000  0  6  3 14 18 19 22 29
  -1200089.59200  26590640.72200   -876956.20440  26590645.01140
  15259806.28600  24199052.75300  11920793.00440  24199057.26540
 -10782630.59100  23022458.55000  -8062836.13440  23022462.20640
  -7342257.32100  24509411.04200  -5633479.96040  24509415.87040
   4422327.24700  24114426.14400   3532913.07540  24114430.05840
   6462282.43600  23130917.78400   5232575.19140  23130920.89040
 96  9  9  3 52 30.0070000  0  6  3 14 18 19 22 29
  -1233762.03100  26584232.98700   -903194.43940  26584238.39040
  15384384.97500  24222758.97900  12017867.29540  24222763.36240
 -10800757.13300  23019009.05800  -8076960.70740  23019012.78440
  -7369913.01100  24504148.33100  -5655029.82240  24504153.01940
   4525209.57400  24134003.88600   3613081.12740  24134007.65940
   6520115.25200  23141922.82300   5277639.71840  23141926.02240
 96  9  9  3 53  0.0070000  0  6  3 14 18 19 22 29
  -1267210.27500  26577868.55800   -929257.99340  26577872.54240
  15509277.17300  24246525.15100  12115185.88640  24246530.29640
 -10818612.05500  23015611.55000  -8090873.63540  23015615.24140
  -7397383.04200  24498920.62000  -5676435.01540  24498925.33140
   4628518.61200  24153662.97200   3693581.67540  24153666.66340
   6578284.92600  23152992.22200   5322966.73340  23152995.37440
 96  9  9  3 53 30.0070000  0  6  3 14 18 19 22 29
  -1300460.60000  26571540.53400   -955167.30140  26571545.98340
  15634470.23100  24270348.88600  12212738.91240  24270353.43340
 -10836198.30200  23012264.97900  -8104577.20440  23012268.68340
  -7424677.10900  24493726.78400  -5697703.10140  24493731.23740
   4732267.99400  24173405.71400   3774425.34740  24173409.74540
   6636789.63300  23164125.22200   5368554.81240  23164128.42140
 96  9  9  3 54  0.0070000  0  6  3 14 18 19 22 29
  -1333542.29600  26565245.40100   -980945.21640  26565249.22240
  15759952.12000  24294227.19000  12310516.99940  24294231.57340
 -10853505.76800  23008971.36200  -8118063.53840  23008974.96040
  -7451775.45300  24488570.30800  -5718818.66140  24488574.86640
   4836465.63400  24193233.87000   3855618.31540  24193237.39740
   6695632.94900  23175322.76100   5414406.74340  23175325.93640
 96  9  9  3 54 30.0070000  0  6  3 14 18 19 22 29
  -1366459.83200  26558981.95600  -1006595.21640  26558986.32740
  15885719.57500  24318159.94800  12408517.60440  24318164.41340
 -10870539.56200  23005729.78400  -8131336.61840  23005733.31140
  -7478663.19700  24483453.94000  -5739770.13440  24483458.30040
   4941106.33700  24213146.40900   3937156.52640  24213150.07740
   6754830.33800  23186587.63600   5460534.57540  23186590.89440
 96  9  9  3 55  0.0070000  0  6  3 14 18 19 22 29
  -1399214.52800  26552749.01900  -1032118.33440  26552753.48340
  16011771.33500  24342146.71400  12506739.74340  24342151.35440
 -10887301.43200  23002540.25300  -8144397.81340  23002543.76940
  -7505345.55200  24478376.16700  -5760561.55440  24478380.74940
   5046184.71100  24233142.15100   4019035.78740  24233145.78440
   6814362.64800  23197916.33900   5506923.38340  23197919.52640
 96  9  9  3 55 30.0070000  0  6  3 14 18 19 22 29
  -1431813.68900  26546545.22200  -1057520.25640  26546550.58940
  16138111.11500  24366188.53400  12605186.32140  24366192.91740
 -10903787.17000  22999403.06500  -8157243.83940  22999406.65140
  -7531816.29200  24473339.09700  -5781188.08340  24473343.59740
   5151696.12900  24253220.35400   4101252.47440  24253224.12840
   6874213.49700  23209305.68300   5553560.40340  23209308.75340
 96  9  9  3 56  0.0070000  0  6  3 14 18 19 22 29
  -1464234.31100  26540375.55000  -1082783.05340  26540380.78840
  16264747.52900  24390286.68300  12703864.03640  24390291.31140
 -10920002.17100  22996317.62000  -8169878.90040  22996321.10140
  -7558083.47000  24468340.09700  -5801655.99640  24468344.30440
   5257622.39500  24273377.58900   4183792.42040  24273381.19840
   6934369.28600  23220752.94000   5600435.03640  23220756.02240
 96  9  9  3 56 30.0070000  0  6  3 14 18 19 22 29
  -1496444.63600  26534246.12000  -1107881.98240  26534250.35140
  16391699.64300  24414444.91700  12802787.75040  24414449.28840
 -10935958.27600  22993281.19800  -8182312.21540  22993284.81940
  -7584167.27800  24463377.05800  -5821981.02140  24463381.90940
   5363956.92600  24293612.25300   4266650.49840  24293615.94440
   6994807.25400  23232253.76900   5647529.55540  23232256.72240
 96  9  9  3 57  0.0070000  0  6  3 14 18 19 22 29
  -1528419.31800  26528161.33900  -1132797.28540  26528165.37040
  16518979.03600  24438665.38600  12901966.48340  24438669.72240
 -10951651.22500  22990294.94800  -8194540.47840  22990298.59340
  -7610062.56500  24458449.05800  -5842159.13740  24458453.28840
   5470705.41500  24313925.97900   4349831.13740  24313929.56540
   7055528.96900  23243808.71400   5694845.17340  23243811.85440
 96  9  9  3 57 30.0070000  0  6  3 14 18 19 22 29
  -1560159.59000  26522121.89400  -1157529.94540  26522126.86240
  16646571.97400  24462945.44800  13001389.54840  24462950.15940
 -10967095.84400  22987355.89400  -8206575.23740  22987359.45640
  -7635780.15400  24453555.28400  -5862198.78540  24453559.17540
   5577849.49600  24334314.58900   4433320.02940  24334318.05840
   7116554.51500  23255421.57300   5742397.54240  23255424.69040
 96  9  9  3 58  0.0070000  0  6  3 14 18 19 22 29
  -1591661.69800  26516127.12000  -1182077.00940  26516131.04640
  16774464.30900  24487282.68300  13101045.90340  24487287.41740
 -10982294.41600  22984463.67500  -8218418.27640  22984467.16740
  -7661325.80400  24448694.00300  -5882104.47140  24448698.42140
   5685380.89900  24354777.22900   4517110.73940  24354781.31940
   7177897.58200  23267094.79200   5790197.33540  23267098.03840
 96  9  9  3 58 30.0070000  0  6  3 14 18 19 22 29
  -1622928.34000  26510177.47200  -1206440.60340  26510181.65540
  16902644.97600  24511674.61200  13200926.93340  24511679.01940
 -10997234.05400  22981620.64400  -8230059.54740  22981624.31140
  -7686696.63000  24443866.11200  -5901873.92840  24443870.57740
   5793298.79100  24375313.26100   4601202.59340  24375317.35140
   7239585.60900  23278833.56500   5838265.91940  23278836.68340
 96  9  9  3 59  0.0070000  0  6  3 14 18 19 22 29
  -1653956.42200  26504272.69000  -1230618.32040  26504276.78040
  17031110.99100  24536120.82300  13301030.30840  24536125.40540
 -11011878.72400  22978833.77600  -8241470.96340  22978837.62040
  -7711855.41400  24439078.64400  -5921478.14540  24439083.43640
   5901614.03900  24395925.08100   4685604.08940  24395928.78440
   7301648.78000  23290643.85400   5886626.83240  23290646.89040
 96  9  9  3 59 30.0070000  0  6  3 14 18 19 22 29
  -1684774.82700  26498408.34700  -1254632.65440  26498414.04240
  17159841.23600  24560617.35400  13401339.57840  24560621.97240
 -11026228.78400  22976103.08900  -8252652.82040  22976106.68640
  -7736818.93700  24434328.04200  -5940930.21640  24434332.16740
   6010302.84400  24416607.80800   4770296.66340  24416611.35840
   7364068.30000  23302521.75300   5935265.41640  23302524.89440
 96  9  9  4  0  0.0070000  0  6  3 14 18 19 22 29
  -1715385.21600  26492583.19000  -1278484.87140  26492588.49940
  17288845.02300  24585166.15100  13501861.99340  24585170.45240
 -11040280.41700  22973429.18300  -8263602.13540  22973432.89740
  -7761585.14900  24429615.33100  -5960228.54940  24429619.62040
   6119376.11100  24437363.83100   4855288.82140  24437367.56940
   7426824.59800  23314463.88600   5984166.42140  23314467.03840
 96  9  9  4  0 30.0070000  0  6  3 14 18 19 22 29
  -1745776.43700  26486799.78400  -1302166.30940  26486803.62840
  17418128.05700  24609767.55800  13602602.01040  24609772.33940
 -11054029.50400  22970812.77600  -8274315.70040  22970816.46840
  -7786145.28300  24424941.60400  -5979366.28140  24424945.83540
   6228837.13600  24458193.48700   4940583.12340  24458197.47240
   7489902.24000  23326467.30800   6033317.82540  23326470.47240
 96  9  9  4  1  0.0070000  0  6  3 14 18 19 22 29
  -1775939.97300  26481060.43300  -1325670.34640  26481064.00740
  17547695.63700  24634423.49500  13703563.74740  24634428.30040
 -11067463.24800  22968256.44000  -8284783.55040  22968260.09740
  -7810494.57400  24420308.06500  -5998339.74040  24420312.43640
   6338695.79000  24479099.07300   5026187.26740  24479103.10440
   7553294.16600  23338530.22200   6082714.12740  23338533.29240
 96  9  9  4  1 30.0070000  0  6  3 14 18 19 22 29
  -1805877.00400  26475363.10400  -1348997.88340  26475367.10140
  17677539.99000  24659132.22900  13804741.15940  24659136.83540
 -11080596.72700  22965757.25300  -8295017.42240  22965760.80440
  -7834652.40200  24415710.89400  -6017163.99340  24415714.89040
   6448948.55100  24500079.20600   5112098.50440  24500083.15540
   7617002.17600  23350653.61200   6132356.72940  23350656.65940
 96  9  9  4  2  0.0070000  0  6  3 14 18 19 22 29
  -1835590.32700  26469708.85400  -1372151.10040  26469713.99940
  17807643.75100  24683890.09700  13906120.69640  24683894.66740
 -11093456.35900  22963310.17500  -8305037.90640  22963313.71440
  -7858634.53200  24411147.35400  -6035851.34040  24411151.97240
   6559590.72100  24521133.80000   5198313.17640  24521138.08940
   7681005.17900  23362833.02600   6182229.19440  23362836.22640
 96  9  9  4  2 30.0070000  0  6  3 14 18 19 22 29
  -1865068.54800  26464099.38600  -1395121.09340  26464104.41340
  17938000.20800  24708696.17500  14007697.14640  24708700.68640
 -11106026.10300  22960918.16700  -8314832.50440  22960921.77640
  -7882418.54700  24406621.25300  -6054384.31640  24406625.74140
   6670625.55400  24542263.17500   5284833.83040  24542266.90140
   7745329.43300  23375073.47200   6232351.98940  23375076.57740
 96  9  9  4  3  0.0070000  0  6  3 14 18 19 22 29
  -1894318.76300  26458533.05000  -1417913.45940  26458537.11640
  18068604.40300  24733549.26100  14109466.64340  24733553.84340
 -11118302.74700  22958581.97200  -8324398.70940  22958585.61640
  -7906006.41500  24402132.46400  -6072764.44540  24402136.85840
   6782048.72600  24563465.95600   5371657.07940  24563469.95240
   7809992.95400  23387378.42500   6282739.14440  23387381.60140
 96  9  9  4  3 30.0070000  0  6  3 14 18 19 22 29
  -1923336.18900  26453011.30000  -1440524.43240  26453015.85840
  18199464.71000  24758451.35400  14211435.70040  24758455.96040
 -11130301.27700  22956298.71400  -8333748.21140  22956302.35840
  -7929382.23000  24397684.41700  -6090979.35140  24397688.84740
   6893855.29800  24584741.98700   5458779.07840  24584746.17140
   7875000.98300  23399748.97200   6333394.75040  23399752.10140
 96  9  9  4  4  0.0070000  0  7  3 14 18 19 22 27 29
  -1952136.46100  26447530.48700  -1462966.18040  26447534.09740
  18330567.23900  24783399.22200  14313593.50340  24783404.01540
 -11142041.67100  22954064.63600  -8342896.56940  22954068.32740
  -7952559.01400  24393273.90100  -6109039.15440  24393278.05040
   7006012.02600  24606084.83100   5546173.93440  24606088.62840
     -7880.85210  27411492.87000
   7940332.99800  23412181.30800   6384302.80740  23412184.39040
 96  9  9  4  4 30.0080000  0  7  3 14 18 19 22 27 29
  -1980713.46100  26442092.81200  -1485233.91740  26442097.28940
  18461928.92900  24808396.55500  14415953.24640  24808401.10240
 -11153499.54900  22951884.36700  -8351824.77840  22951887.90640
  -7975525.23800  24388903.60900  -6126934.89640  24388908.02740
   7118510.92000  24627492.51600   5633835.41240  24627496.81640
    -55128.99100  27402500.77300
   8006015.09500  23424680.26600   6435483.66140  23424683.44140
 96  9  9  4  5  0.0080000  0  8  3 14 18 19 22 27 29 31
  -2009038.34900  26436702.47700  -1507305.23240  26436706.47340
  18593566.81100  24833446.37500  14518528.21540  24833451.40240
 -11164664.84200  22949759.57800  -8360524.99440  22949763.21140
  -7998280.22600  24384573.46100  -6144666.03540  24384577.71540
   7231347.03500  24648964.82000   5721759.65540  24648969.05140
   -102316.39300  27393521.64800
   8072048.03600  23437245.83600   6486937.89640  23437249.05940
     -9526.81910  27036602.77300
 96  9  9  4  5 30.0080000  0  8  3 14 18 19 22 27 29 31
  -2037099.01400  26431363.14800  -1529170.67640  26431368.79740
  18725484.44400  24858549.50000  14621321.15540  24858553.90640
 -11175539.57100  22947690.32000  -8368998.80840  22947693.89440
  -8020832.42700  24380281.91400  -6162239.15340  24380286.37940
   7344526.95300  24670502.25800   5809951.79640  24670506.24240
   -149432.30700  27384555.91400    -22019.97750  27384561.00040
   8138414.05600  23449874.76600   6538651.67540  23449877.81240
    -66737.13000  27025715.63300
 96  9  9  4  6  0.0080000  0  8  3 14 18 19 22 27 29 31
  -2064901.21900  26426072.34400  -1550834.68840  26426076.68040
  18857662.90700  24883702.42200  14724317.34840  24883707.22740
 -11186113.13300  22945678.13300  -8377237.94240  22945681.69540
  -8043197.86800  24376025.76600  -6179666.75540  24376030.32440
   7458059.54800  24692106.72700   5898418.75640  24692110.23040
   -196467.62900  27375604.75800    -58670.81840  27375608.78940
   8205104.34700  23462565.60200   6590618.13340  23462568.63740
   -124016.37400  27014817.11700     -8930.04550  27014819.94140
 96  9  9  4  6 30.0080000  0  8  3 14 18 19 22 27 29 31
  -2092444.47200  26420830.91400  -1572296.96740  26420835.21540
  18990083.39300  24908900.91400  14827502.12640  24908905.81240
 -11196381.85000  22943724.17200  -8385239.53040  22943727.93440
  -8065379.38300  24371805.05500  -6196951.03240  24371809.64840
   7571955.74900  24713780.34400   5987169.03940  24713784.12940
   -243440.38000  27366666.09400    -95272.84940  27366670.87540
   8272117.98500  23475318.03900   6642836.54840  23475321.10940
   -181361.63600  27003904.27300    -53614.64540  27003907.21540
 96  9  9  4  7  0.0080000  0  8  3 14 18 19 22 27 29 31
  -2119717.63500  26415640.82000  -1593548.74640  26415645.44940
  19122732.91500  24934143.27300  14930865.37240  24934148.31240
 -11206346.12300  22941827.75800  -8393003.89740  22941831.35540
  -8087375.87400  24367619.03900  -6214091.13440  24367623.07040
   7686240.89500  24735528.28900   6076222.40740  24735532.10940
   -290356.69000  27357738.29700   -131830.93640  27357745.09440
   8339449.78200  23488130.89800   6695302.87840  23488134.06240
   -238764.72900  26992981.38300    -98344.30840  26992986.12940
 96  9  9  4  7 30.0080000  0  8  3 14 18 19 22 27 29 31
  -2146733.22200  26410500.19500  -1614599.82440  26410504.36740
  19255595.60500  24959426.40600  15034394.72540  24959430.76640
 -11216001.33700  22939990.47700  -8400527.43640  22939994.05140
  -8109180.59600  24363469.97700  -6231081.80340  24363474.31240
   7800921.95200  24757351.29700   6165584.26840  24757355.49240
   -337214.77700  27348822.02300   -168343.60440  27348828.91840
   8407104.38400  23501005.12500   6748020.74540  23501008.38340
   -296209.30600  26982049.57000   -143106.29440  26982054.86740
 96  9  9  4  8  0.0080000  0  8  3 14 18 19 22 27 29 31
  -2173495.07900  26405407.55500  -1635453.20940  26405410.93040
  19388657.84400  24984747.07000  15138079.57640  24984751.54740
 -11225350.33100  22938211.43000  -8407812.36640  22938214.98040
  -8130792.54300  24359357.28900  -6247922.27640  24359361.56640
   7915980.13400  24779246.21900   6255239.99340  24779250.00440
   -384027.61300  27339914.19500   -204821.01740  27339918.84840
   8475106.79800  23513945.35900   6801009.63840  23513948.65240
   -353679.18200  26971114.06200   -187887.98840  26971117.73040
 96  9  9  4  8 30.0080000  0  8  3 14 18 19 22 27 29 31
  -2199977.21600  26400367.96100  -1656088.61340  26400372.10940
  19521931.79900  25010108.53900  15241929.40840  25010113.39140
 -11234379.21600  22936493.49200  -8414847.85540  22936496.90240
  -8152207.13800  24355282.07800  -6264608.95440  24355286.40240
   8031397.81900  24801209.41400   6345175.85840  24801213.09440
   -430785.34900  27331016.07800   -241255.54940  27331021.79740
   8543462.15300  23526953.09400   6854273.55240  23526956.32840
   -411159.35000  26960176.30500   -232677.69040  26960181.42640
 96  9  9  4  9  0.0080000  0  8  3 14 18 19 22 27 29 31
  -2226179.45100  26395381.66400  -1676505.93140  26395386.16440
  19655432.23000  25035512.50000  15345955.70340  25035517.28140
 -11243088.23900  22934836.07000  -8421634.10240  22934839.65640
  -8173434.60100  24351242.60200  -6281149.81140  24351247.07840
   8147161.71200  24823238.74200   6435381.48740  24823242.72740
   -477468.67700  27322132.05500   -277632.08840  27322136.26240
   8612167.45600  23540026.95300   6907810.15240  23540030.22340
   -468646.37500  26949236.06200   -277472.76240  26949240.64440
 96  9  9  4  9 30.0080000  0  8  3 14 18 19 22 27 29 31
  -2252107.74500  26390447.64800  -1696709.76440  26390452.27740
  19789155.14200  25060959.20300  15450155.36040  25060964.00840
 -11251475.78500  22933240.15600  -8428169.84540  22933243.71940
  -8194487.76100  24347236.39800  -6297554.85540  24347240.76940
   8263246.77600  24845328.62500   6525837.38240  24845332.46940
   -524077.52700  27313262.60200   -313950.57140  27313270.14140
   8681221.28500  23553167.50800   6961618.32440  23553170.68440
   -526146.40400  26938294.31200   -322277.95440  26938299.04740
 96  9  9  4 10  0.0080000  0  8  3 14 18 19 22 27 29 31
  -2277749.02000  26385568.58600  -1716689.96540  26385572.21940
  19923109.30900  25086450.13300  15554535.21840  25086454.55140
 -11259534.72700  22931706.43700  -8434449.53440  22931710.01240
  -8215364.15400  24343263.82000  -6313822.15740  24343267.87540
   8379656.40300  24867480.79700   6616546.19440  24867484.34840
   -570595.75100  27304409.86700   -350198.43340  27304415.34040
   8750615.36200  23566372.88300   7015691.62740  23566375.88340
   -583660.07500  26927349.48400   -367093.78940  26927354.05540
 96  9  9  4 10 30.0080000  0  8  3 14 18 19 22 27 29 31
  -2303099.11400  26380744.58600  -1736443.25640  26380748.30140
  20057301.37800  25111985.84400  15659100.45340  25111990.39140
 -11267260.50100  22930236.25000  -8440469.61140  22930239.73040
  -8236063.08800  24339324.55500  -6329951.18140  24339328.79740
   8496399.41300  24889696.25800   6707514.76740  24889699.63340
   -617024.75500  27295574.80500   -386376.78740  27295580.06640
   8820328.60300  23579639.17200   7070013.62740  23579642.26640
   -641213.07100  26916397.92200   -411940.25340  26916402.48040
 96  9  9  4 11  0.0080000  0  8  3 14 18 19 22 27 29 31
  -2328180.13900  26375971.64800  -1755986.91840  26375975.44540
  20191712.06100  25137563.36700  15763836.04140  25137567.98440
 -11274666.21900  22928827.14100  -8446240.29240  22928830.75040
  -8256588.10300  24335418.93700  -6345944.68240  24335423.41440
   8613475.92100  24911974.85900   6798743.20740  24911978.50440
   -663384.17400  27286753.74200   -422500.90540  27286758.95740
   8890355.30600  23592964.66400   7124579.88640  23592967.85240
   -698818.85900  26905435.62500   -456827.84840  26905440.32440
 96  9  9  4 11 30.0080000  0  8  3 14 18 19 22 27 29 31
  -2352978.57600  26371253.01600  -1775310.35440  26371256.21540
  20326326.26600  25163179.43700  15868730.20840  25163183.96140
 -11281753.48800  22927478.35900  -8451762.83240  22927481.79340
  -8276918.14800  24331550.23400  -6361786.25540  24331554.47740
   8730892.18100  24934318.78900   6890236.40740  24934322.66840
   -709685.06600  27277942.06200   -458579.42940  27277949.41440
   8960686.19100  23606348.07800   7179383.17140  23606351.14840
   -756467.59000  26894464.91400   -501748.94840  26894468.41840
 96  9  9  4 12  0.0080000  0  8  3 14 18 19 22 27 29 31
  -2377479.39000  26366590.84400  -1794401.87040  26366596.30540
  20461154.08100  25188836.69500  15973790.82840  25188841.73440
 -11288528.89000  22926189.00000  -8457042.36240  22926192.56240
  -8297030.22700  24327723.04700  -6377457.99140  24327727.32440
   8848650.95800  24956727.40600   6981996.49640  24956731.30940
   -755930.90400  27269141.15600   -494615.06440  27269146.72340
   9031329.75600  23619791.06200   7234430.10040  23619794.15640
   -814156.40400  26883488.35200   -546701.24640  26883491.76240
 96  9  9  4 12 30.0080000  0  8  3 14 18 19 22 27 29 31
  -2401662.16200  26361988.49200  -1813245.58240  26361992.52340
  20596208.69400  25214536.64100  16079028.17640  25214541.15240
 -11294975.91500  22924962.29700  -8462066.01240  22924965.89440
  -8316918.80700  24323938.37500  -6392955.56440  24323942.41840
   8966752.45000  24979201.54700   7074023.62840  24979205.22740
   -802118.39800  27260352.43000   -530605.21840  27260357.21140
   9102314.41600  23633299.06200   7289742.81740  23633302.21540
   -871864.33000  26872505.75800   -591668.42240  26872511.80540
 96  9  9  4 13  0.0080000  0  8  3 14 18 19 22 27 29 31
  -2425518.46000  26357449.02300  -1831834.88840  26357453.19540
  20731490.97400  25240279.87500  16184442.93340  25240284.53940
 -11301085.46000  22923799.64100  -8466826.69240  22923803.18040
  -8336573.61400  24320198.07800  -6408270.98440  24320202.53140
   9085194.50200  25001740.08600   7166316.14240  25001744.14140
   -848246.74200  27251574.46900   -566549.33140  27251579.77740
   9173648.05400  23646873.37500   7345327.46840  23646876.30540
   -929564.75900  26861526.47700   -636629.77740  26861532.32440
 96  9  9  4 13 30.0080000  0  8  3 14 18 19 22 27 29 31
  -2449045.88400  26352971.28100  -1850167.93940  26352975.11340
  20866996.62900  25266065.57000  16290031.74340  25266070.46940
 -11306857.42700  22922701.01600  -8471324.31840  22922704.50840
  -8356009.25700  24316499.62500  -6423415.62640  24316503.96140
   9203961.12700  25024340.82000   7258861.56740  25024345.06240
   -894323.42500  27242806.06200   -602453.14440  27242810.36340
   9245331.34600  23660514.43700   7401184.57040  23660517.51940
   -987271.98800  26850544.89800   -681596.41440  26850548.73040
 96  9  9  4 14  0.0080000  0  8  3 14 18 19 22 27 29 31
  -2472237.94300  26348558.52300  -1868239.66340  26348562.61340
  21002743.91600  25291897.63300  16395808.82940  25291902.41440
 -11312264.84500  22921671.90600  -8475537.88540  22921675.28140
  -8375226.48600  24312842.78100  -6438390.06640  24312847.01240
   9323054.68000  25047003.66400   7351661.73640  25047007.63740
   -940327.34000  27234052.13300   -638300.26340  27234057.01940
   9317398.65600  23674228.31200   7457340.91040  23674231.41840
  -1044981.07700  26839562.82000   -726564.50440  26839566.28940
 96  9  9  4 14 30.0080000  0  8  3 14 18 19 22 27 29 31
  -2495119.87100  26344203.96900  -1886069.71540  26344207.60240
  21138705.68300  25317770.23400  16501753.05240  25317775.12140
 -11317314.74300  22920711.25000  -8479472.86640  22920714.74240
  -8394258.13100  24309220.86700  -6453219.90140  24309225.19140
   9442461.19000  25069725.82000   7444705.76840  25069729.46540
   -986270.95100  27225309.25000   -674100.43940  27225314.57040
   9389830.35800  23688011.57000   7513781.19340  23688014.84040
  -1102691.78300  26828580.43700   -771533.89540  26828583.01640
 96  9  9  4 15  0.0080000  0  8  3 14 18 19 22 27 29 31
  -2517693.53600  26339908.50000  -1903659.56540  26339913.30540
  21274869.09500  25343681.14100  16607854.41040  25343685.95740
 -11322006.64000  22919818.40600  -8483128.89240  22919821.95740
  -8413093.97200  24305636.79700  -6467897.16740  24305641.06240
   9562183.18100  25092507.90600   7537995.63540  25092512.16040
  -1032149.55200  27216578.71900   -709849.88340  27216583.41840
   9462622.22300  23701863.63300   7570502.12440  23701866.98440
  -1160405.75900  26817598.50800   -816505.79740  26817603.31240
 96  9  9  4 15 30.0080000  0  8  3 14 18 19 22 27 29 31
  -2539959.23900  26335671.58600  -1921009.44440  26335675.32440
  21411238.37900  25369631.57800  16714116.17840  25369636.55940
 -11326339.85400  22918993.73400  -8486505.42140  22918997.27340
  -8431733.44400  24302089.86700  -6482421.41840  24302094.44940
   9682220.00200  25115350.40600   7631530.80340  25115354.48440
  -1077932.66900  27207866.39100   -745524.97640  27207872.20340
   9535796.19800  23715788.00000   7627520.80340  23715791.22340
  -1218105.43500  26806618.22700   -861466.54540  26806621.67240
 96  9  9  4 16  0.0080000  0  8  3 14 18 19 22 27 29 31
  -2561941.71100  26331488.48400  -1938138.62240  26331492.64440
  21547796.11100  25395617.54700  16820524.79440  25395622.39840
 -11330338.05900  22918232.97700  -8489620.89740  22918236.50440
  -8450198.27200  24298575.93700  -6496809.58140  24298580.14440
   9802539.58200  25138246.29700   7725286.32640  25138249.90640
  -1123644.66500  27199168.36700   -781144.66940  27199174.39140
   9609318.35700  23729778.84400   7684810.79540  23729781.89140
  -1275790.83300  26795641.39100   -906416.19540  26795643.89840
 96  9  9  4 16 30.0080000  0  8  3 14 18 19 22 27 29 31
  -2583612.74300  26327364.58600  -1955025.13040  26327368.65240
  21684553.91400  25421641.89100  16927089.31040  25421646.15640
 -11333989.35500  22917537.96900  -8492466.05740  22917541.56640
  -8468465.66100  24295100.00000  -6511043.89640  24295104.19540
   9923156.86700  25161199.05500   7819273.81840  25161203.55540
  -1169277.06500  27190484.79700   -816702.32140  27190489.23840
   9683185.06100  23743835.28100   7742369.26340  23743838.44540
  -1333428.76000  26784673.11700   -951328.82740  26784677.76940
 96  9  9  4 17  0.0080000  0  8  3 14 18 19 22 27 29 31
  -2604973.77500  26323300.00800  -1971670.06040  26323304.29740
  21821500.72900  25447702.07000  17033801.11140  25447706.66440
 -11337304.46300  22916907.37500  -8495049.25040  22916910.82040
  -8486539.55300  24291660.68700  -6525127.43140  24291664.81240
  10044049.49200  25184203.94500   7913475.86740  25184207.71940
  -1214829.68800  27181815.60900   -852197.82740  27181820.74240
   9757382.51400  23757954.42200   7800185.44640  23757957.70340
  -1391032.31300  26773711.97700   -996214.68340  26773715.91440
 96  9  9  4 17 30.0080000  0  8  3 14 18 19 22 27 29 31
  -2626014.77100  26319295.43000  -1988065.64040  26319300.04740
  21958638.66100  25473798.60200  17140661.84440  25473803.40640
 -11340280.60800  22916341.01600  -8497368.31940  22916344.56640
  -8504417.58400  24288258.64100  -6539058.35340  24288262.90640
  10165219.75000  25207262.18700   8007894.24340  25207265.83240
  -1260302.43500  27173163.22700   -887631.07240  27173167.32840
   9831909.61900  23772136.40600   7858258.51140  23772139.65240
  -1448591.90600  26762758.95300  -1041066.28740  26762762.51640
 96  9  9  4 18  0.0080000  0  8  3 14 18 19 22 27 29 31
  -2646700.34500  26315359.13300  -2004184.25140  26315363.31640
  22095974.56400  25499932.64800  17247676.82240  25499936.99640
 -11342895.92400  22915843.39100  -8499406.22940  22915846.90640
  -8522080.90000  24284897.19500  -6552821.96340  24284901.54340
  10286690.81900  25230377.14800   8102547.01740  25230381.27340
  -1305701.24500  27164523.18700   -923006.73840  27164528.97740
   9906767.82200  23786381.49200   7916589.57140  23786384.85540
  -1506108.06700  26751813.60200  -1085884.09540  26751818.64140
 96  9  9  4 18 30.0080000  0  8  3 14 18 19 22 27 29 31
  -2667027.70400  26311491.34400  -2020023.72740  26311494.89440
  22233484.47800  25526099.90600  17354827.38540  25526103.98440
 -11345152.00700  22915413.99200  -8501164.20740  22915417.47340
  -8539532.53000  24281576.19500  -6566420.62740  24281580.27340
  10408478.44400  25253552.96900   8197446.46940  25253556.36740
  -1351010.00400  27155901.14800   -958312.21240  27155907.10240
   9981967.83400  23800691.54700   7975186.97740  23800694.80540
  -1563596.76300  26740873.82000  -1130680.43140  26740877.47740
 96  9  9  4 19  0.0080000  0  8  3 14 18 19 22 27 29 31
  -2686991.05700  26307691.85200  -2035579.58240  26307696.12940
  22371174.50300  25552301.48400  17462118.30840  25552306.26640
 -11347033.71400  22915056.00800  -8502630.46540  22915059.59440
  -8556772.12000  24278295.68000  -6579854.06040  24278300.09840
  10530595.50800  25276790.68000   8292602.61740  25276794.86340
  -1396228.83800  27147297.02300   -993547.63040  27147302.63740
  10057534.40600  23815071.37500   8034070.01640  23815074.55140
  -1621067.33800  26729937.07000  -1175462.68240  26729941.71140
 96  9  9  4 19 30.0080000  0  8  3 14 18 19 22 27 29 31
  -2706598.71700  26303960.71900  -2050858.25840  26303965.40640
  22509041.96500  25578536.71100  17569547.49440  25578541.03540
 -11348544.38900  22914768.50800  -8503807.61340  22914772.07040
  -8573804.42800  24275054.33600  -6593125.96640  24275058.67240
  10653041.95200  25300091.42200   8388015.43040  25300095.12540
  -1441380.01600  27138705.25000  -1028730.32340  27138710.16040
  10133476.57800  23829522.77300   8093245.72740  23829525.96140
  -1678525.16500  26719003.07800  -1220234.98340  26719007.48440
 96  9  9  4 20  0.0080000  0  8  3 14 18 19 22 27 29 31
  -2725856.63700  26300296.13300  -2065864.41240  26300299.97740
  22647089.66000  25604806.28900  17677117.10640  25604810.87140
 -11349682.31400  22914551.88300  -8504694.29840  22914555.36340
  -8590635.53800  24271851.59400  -6606241.10340  24271855.89440
  10775817.73700  25323454.91400   8483684.86940  25323458.84040
  -1486463.25300  27130125.69500  -1063860.09340  27130129.79740
  10209800.44600  23844046.71100   8152718.86540  23844049.92240
  -1735965.41200  26708072.22700  -1264993.59140  26708076.00040
 96  9  9  4 20 30.0080000  0  8  3 14 18 19 22 27 29 31
  -2744766.08600  26296698.11700  -2080599.03740  26296702.66440
  22785319.25300  25631110.50000  17784828.48840  25631115.90240
 -11350447.62900  22914406.08600  -8505290.63740  22914409.63740
  -8607265.38500  24268687.28100  -6619199.41240  24268691.57040
  10898920.22600  25346880.38300   8579608.88440  25346884.25040
  -1531470.03000  27121561.34400  -1098930.27940  27121566.64140
  10286517.09100  23858645.47700   8212498.06340  23858648.59440
  -1793361.37500  26697151.10900  -1309717.69140  26697154.95340
 96  9  9  4 21  0.0080000  0  8  3 14 18 19 22 27 29 31
  -2763340.59200  26293163.23400  -2095072.68340  26293168.13340
  22923727.26600  25657448.52300  17892678.87740  25657453.57440
 -11350859.89600  22914327.78900  -8505611.88640  22914331.24640
  -8623688.13100  24265561.98400  -6631996.33340  24265566.08640
  11022319.93900  25370362.89800   8675764.50540  25370366.90640
  -1576422.09600  27113006.31200  -1133957.82940  27113010.40240
  10363605.31500  23873314.95300   8272566.80540  23873318.07040
  -1850693.73100  26686240.51600  -1354392.20640  26686244.72340
 96  9  9  4 21 30.0080000  0  8  3 14 18 19 22 27 29 31
  -2781574.45500  26289693.61700  -2109280.86040  26289698.83240
  23062303.19000  25683818.92200  18000660.11440  25683823.78540
 -11350926.62400  22914315.08600  -8505663.88140  22914318.63740
  -8639891.77800  24262478.62500  -6644622.53740  24262482.62140
  11146016.64700  25393901.64800   8772151.55840  25393905.35240
  -1621290.13100  27104468.89800  -1168919.88840  27104474.33640
  10441054.17600  23888053.07000   8332916.55340  23888056.01240
  -1907936.24400  26675347.77300  -1398996.75340  26675352.25040
 96  9  9  4 22  0.0080000  0  8  3 14 18 19 22 27 29 31
  -2799464.72400  26286289.07800  -2123221.33240  26286292.64140
  23201024.28700  25710216.43000  18108754.44440  25710221.25840
 -11350654.09000  22914366.96900  -8505451.51240  22914370.44940
  -8655878.56800  24259436.35900  -6657079.76540  24259440.57840
  11270001.54800  25417494.98400   8868763.16140  25417498.96940
  -1666068.19500  27095947.69500  -1203811.86340  27095952.32440
  10518841.09200  23902855.41400   8393529.72840  23902858.57840
  -1965090.37700  26664471.53900  -1443532.39140  26664476.42640
 96  9  9  4 22 30.0080000  0  8  3 14 18 19 22 27 29 31
  -2817000.05700  26282952.64100  -2136885.20740  26282956.50840
  23339888.93800  25736641.32800  18216960.65940  25736645.09040
 -11350040.24400  22914483.64100  -8504973.18840  22914487.18040
  -8671635.96800  24256437.58600  -6669358.23840  24256441.82840
  11394263.52100  25441141.61700   8965590.66440  25441144.96940
  -1710751.39400  27087444.82800  -1238629.90740  27087450.19540
  10596964.42500  23917721.79700   8454405.05140  23917724.91440
  -2022157.76700  26653612.37500  -1488000.49440  26653616.80540
 96  9  9  4 23  0.0080000  0  8  3 14 18 19 22 27 29 31
  -2834183.98100  26279682.20300  -2150275.27540  26279686.11740
  23478900.44600  25763094.57000  18325281.29740  25763098.87140
 -11349068.63700  22914668.51600  -8504216.08740  22914672.09040
  -8687159.36500  24253483.85200  -6681454.38440  24253488.08240
  11518798.26900  25464839.69500   9062630.72540  25464843.43440
  -1755338.65200  27078960.20300  -1273373.18740  27078965.16040
  10675417.12700  23932650.70300   8515537.01840  23932653.89140
  -2079151.24700  26642766.77300  -1532410.96840  26642771.61340
 96  9  9  4 23 30.0080000  0  8  3 14 18 19 22 27 29 31
  -2851007.39800  26276481.14100  -2163384.41540  26276485.07840
  23618057.72400  25789575.16400  18433715.53940  25789579.98040
 -11347716.41200  22914925.99200  -8503162.40340  22914929.57840
  -8702469.96200  24250570.10900  -6693384.70340  24250574.37540
  11643615.25500  25488591.60200   9159890.72340  25488596.24240
  -1799835.45600  27070492.89100  -1308045.96340  27070496.82840
  10754207.59500  23947644.21900   8576932.18640  23947647.40640
  -2136096.13800  26631930.96100  -1576783.58640  26631934.67640
 96  9  9  4 24  0.0080000  0  8  3 14 18 19 22 27 29 31
  -2867462.05100  26273349.43700  -2176206.20840  26273353.52740
  23757377.76500  25816086.94500  18542276.59240  25816091.72740
 -11345974.95200  22915257.18700  -8501805.42040  22915260.82040
  -8717585.06600  24247693.79700  -6705162.69840  24247697.81640
  11768696.94700  25512394.08600   9257356.97640  25512398.37540
  -1844258.67600  27062039.41400  -1342661.41540  27062043.76240
  10833344.77500  23962703.44500   8638597.51640  23962706.56240
  -2193001.09200  26621101.92200  -1621125.07740  26621107.18440
 96  9  9  4 24 30.0080000  0  8  3 14 18 19 22 27 29 31
  -2883534.95800  26270290.82000  -2188730.55140  26270294.92240
  23896876.88500  25842633.10900  18650977.19140  25842637.89140
 -11343823.25000  22915666.78100  -8500128.76040  22915670.34440
  -8732511.78700  24244853.31200  -6716793.89140  24244857.84840
  11894048.67400  25536247.48400   9355033.63940  25536251.39840
  -1888598.09800  27053601.72700  -1377211.61040  27053606.51940
  10912847.14400  23977832.24200   8700547.40540  23977835.43040
  -2249852.11100  26610283.07800  -1665424.54440  26610287.20340
 96  9  9  4 25  0.0080000  0  8  3 14 18 19 22 27 29 31
  -2899233.19400  26267303.89100  -2200962.94540  26267307.30140
  24036530.56900  25869208.19500  18759798.23140  25869212.84840
 -11341275.19800  22916151.78900  -8498143.26240  22916155.28140
  -8747277.84600  24242043.50000  -6728299.90240  24242047.43740
  12019660.56900  25560150.65600   9452913.03340  25560154.69940
  -1932870.90700  27045176.78900  -1411709.85940  27045181.93440
  10992707.22800  23993029.07800   8762776.03440  23993032.26640
  -2306658.75100  26599473.16400  -1709689.42940  26599476.65640
 96  9  9  4 25 30.0080000  0  8  3 14 18 19 22 27 29 31
  -2914539.28500  26264391.17200  -2212889.74440  26264395.10940
  24176339.76400  25895813.33600  18868740.44140  25895818.42240
 -11338342.01400  22916709.85200  -8495857.66140  22916713.25040
  -8761885.79100  24239263.85900  -6739682.70540  24239267.97340
  12145527.20600  25584102.16400   9550990.93340  25584105.75040
  -1977075.58000  27036764.74200  -1446155.00040  27036770.35540
  11072928.31800  24008294.76600   8825285.96940  24008297.84840
  -2363415.09600  26588672.50000  -1753915.12540  26588675.93440
 96  9  9  4 26  0.0080000  0  8  3 14 18 19 22 27 29 31
  -2929439.31800  26261555.22700  -2224500.14440  26261559.65640
  24316317.31700  25922449.93000  18977813.83640  25922455.29740
 -11335011.61200  22917343.48400  -8493262.53740  22917346.87140
  -8776308.66900  24236519.11700  -6750921.30340  24236523.43040
  12271655.70300  25608103.61700   9649272.87440  25608107.29740
  -2021194.29100  27028368.99200  -1480533.19240  27028374.31240
  11153523.08700  24023631.29700   8888087.07940  24023634.44940
  -2420088.25400  26577888.04700  -1798076.01640  26577892.48840
 96  9  9  4 26 30.0080000  0  8  3 14 18 19 22 27 29 31
  -2943966.78500  26258791.50800  -2235820.25740  26258794.94140
  24456424.79000  25949111.32000  19086988.48240  25949116.54740
 -11331311.55600  22918047.43000  -8490379.37040  22918050.89840
  -8790554.64000  24233808.30500  -6762022.04640  24233812.38340
  12398030.45900  25632152.04700   9747746.70040  25632156.11340
  -2065252.44000  27019985.14100  -1514864.17540  27019988.43440
  11234463.51100  24039033.65600   8951157.53340  24039036.80940
  -2476690.38200  26567117.18700  -1842181.53340  26567120.09440
 96  9  9  4 27  0.0080000  0  8  3 14 18 19 22 27 29 31
  -2958117.84400  26256097.92200
  24596676.59000  25975800.43700  19196275.57940  25975805.18440
 -11327243.18900  22918821.70300  -8487209.20740  22918825.13740
  -8804598.67000  24231135.78900  -6772965.43240  24231139.90240
  12524660.56800  25656248.77300   9846419.50940  25656252.88740
  -2109243.22900  27011614.19500  -1549142.67740  27011618.77740
  11315752.97400  24054502.56200   9014499.96340  24054505.66840
  -2533202.56400  26556363.45300  -1886216.99240  26556368.48040
 96  9  9  4 27 30.0080000  0  8  3 14 18 19 22 27 29 31
  -2971900.50700  26253475.61700
  24737076.10300  26002517.72700  19305677.78840  26002523.58640
 -11322798.26900  22919667.58600  -8483745.62640  22919671.16040
  -8818434.64600  24228502.62500  -6783746.70440  24228506.86740
  12651546.97500  25680394.79700   9945292.03740  25680398.54740
  -2153155.57200  27003258.17200  -1583360.08740  27003262.68440
  11397385.31100  24070036.61700   9078109.56740  24070039.75840
  -2589610.08400  26545629.28900  -1930170.88440  26545634.57440
 96  9  9  4 28  0.0080000  0  8  3 14 18 19 22 27 29 31
  -2985332.16000  26250919.74200     -1378.96850  26250924.07840
  24877595.76800  26029257.21900  19415173.61240  26029261.74240
 -11317985.41700  22920583.43000  -8479995.34940  22920586.89840
  -8832069.46700  24225908.15600  -6794371.23640  24225912.34040
  12778672.61000  25704585.79700  10044350.96140  25704590.39140
  -2196999.98300  26994915.16400  -1617524.53540  26994920.09840
  11479354.45100  24085635.17200   9141981.61840  24085638.38340
  -2645906.37300  26534916.39800  -1974038.10940  26534920.57040
 96  9  9  4 28 30.0080000  0  8  3 14 18 19 22 27 29 31
  -2998385.95400  26248435.32800    -11550.75140  26248439.24240
  25018250.22500  26056023.42200  19524774.47640  26056028.41440
 -11312792.86100  22921571.61700  -8475949.19840  22921575.05140
  -8845491.96600  24223353.85200  -6804830.31140  24223357.88340
  12906051.50700  25728824.90600  10143607.25740  25728828.65640
  -2240754.67700  26986588.74200  -1651619.02740  26986593.98040
  11561675.40100  24101300.33600   9206127.80040  24101303.62940
  -2702079.31100  26524227.53900  -2017809.19440  26524232.01640
 96  9  9  4 29  0.0080000  0  8  3 14 18 19 22 27 29 31
  -3011058.84900  26246023.78900    -21425.71240  26246028.25440
  25159024.87800  26082811.89800  19634468.99240  26082815.94140
 -11307219.13000  22922632.21900  -8471606.02740  22922635.74640
  -8858713.17900  24220838.13300  -6815132.54340  24220842.15240
  13033664.33700  25753109.15600  10243045.82440  25753113.00040
  -2284432.30400  26978276.49200  -1685653.51340  26978281.27340
  11644334.20900  24117029.51600   9270537.25640  24117032.77340
  -2758144.02900  26513558.63300  -2061495.98040  26513562.67640
 96  9  9  4 29 30.0090000  0  8  3 14 18 19 22 27 29 31
  -3023342.26000  26243686.69200    -30997.19540  26243690.10240
  25299902.40500  26109620.13800  19744243.66440  26109624.05240
 -11301254.15800  22923767.41100  -8466957.98640  22923770.90340
  -8871737.51100  24218359.56700  -6825281.35340  24218363.62240
  13161503.02700  25777435.93500  10342660.38440  25777440.07140
  -2328036.47900  26969979.03600  -1719630.75140  26969984.96640
  11727337.71400  24132824.56700   9335215.30240  24132827.87240
  -2814110.01100  26502909.02800  -2105105.82840  26502912.59140
 96  9  9  4 30  0.0090000  0  8  3 14 18 19 22 27 29 31
  -3035207.65200  26241428.53600    -40242.94240  26241432.28640
  25440894.36600  26136449.64500  19854107.52740  26136455.08340
 -11294873.32800  22924981.56000  -8461985.90940  22924985.09940
  -8884551.49300  24215921.00500  -6835266.26340  24215925.18840
  13289572.58300  25801806.80200  10442454.83840  25801810.98540
  -2371552.41000  26961698.43500  -1753539.23340  26961704.30640
  11810700.54300  24148688.02800   9400173.34040  24148691.18140
  -2869965.74600  26492279.56700  -2148629.74440  26492282.91940
 96  9  9  4 30 30.0090000  0  8  3 14 18 19 22 27 29 31
  -3046665.23700  26239248.08300    -49170.93040  26239252.18540
  25581998.06500  26163301.23100  19964058.43940  26163306.79840
 -11288073.85400  22926275.52000  -8456687.61340  22926279.02440
  -8897165.64600  24213520.61400  -6845095.45640  24213524.98540
  13417880.48300  25826222.92700  10542435.02940  25826226.95840
  -2414984.52800  26953433.23900  -1787382.38540  26953438.06740
  11894416.97700  24164618.86400   9465406.91740  24164622.11040
  -2925734.04100  26481666.84100  -2192085.54440  26481671.04840
 96  9  9  4 31  0.0090000  0  8  3 14 18 19 22 27 29 31
  -3057724.16200  26237143.64500    -57788.27540  26237147.79440
  25723191.17900  26190168.95800  20074079.03440  26190173.24740
 -11280854.47600  22927649.41900  -8451062.11840  22927652.92340
  -8909579.09100  24211158.68500  -6854768.26040  24211162.76340
  13546423.55700  25850683.74700  10642598.46540  25850687.48540
  -2458331.39100  26945184.84900  -1821159.09540  26945188.48140
  11978491.43000  24180617.45000   9530919.46740  24180620.69640
  -2981405.34200  26471073.02800  -2235465.74740  26471076.80240
 96  9  9  4 31 30.0090000  0  8  3 14 18 19 22 27 29 31
  -3068384.44000  26235114.92700    -66094.95340  26235118.53640
  25864476.04600  26217054.73100  20184171.14640  26217059.58340
 -11273210.12800  22929103.90300  -8445105.47440  22929107.38440
  -8921797.46500  24208833.45800  -6864289.05840  24208837.52440
  13675206.50600  25875190.59100  10742948.79540  25875194.83340
  -2501580.35500  26936954.73900  -1854859.54840  26936958.30240
  12062937.75900  24196687.40300   9596721.78940  24196690.43840
  -3036972.15500  26460498.56000  -2278764.54640  26460503.11840
 96  9  9  4 32  0.0090000  0  8  3 14 18 19 22 27 29 31
  -3078660.13800  26233159.95000    -74101.97640  26233163.81740
  26005851.06300  26243957.22400  20294333.47140  26243961.85240
 -11265147.71200  22930638.22400  -8438823.06440  22930641.71640
  -8933826.91400  24206544.12200  -6873662.64240  24206548.28240
  13804224.63600  25899741.73900  10843482.41640  25899745.67740
  -2544753.55900  26928738.84900  -1888500.95440  26928743.80640
  12147748.35400  24212826.06000   9662807.96040  24212829.20040
  -3092443.19300  26449943.76300  -2321988.72540  26449948.26340
 96  9  9  4 32 30.0090000  0  8  3 14 18 19 22 27 29 31
  -3088528.23300  26231281.78600    -81791.39940  26231285.93540
  26147318.54200  26270877.82500  20404567.84740  26270882.18540
 -11256664.44500  22932252.54400  -8432212.72540  22932255.93140
  -8945651.50400  24204293.91100  -6882876.59140  24204298.14240
  13933479.11600  25924338.31700  10944200.18240  25924342.45440
  -2587848.18500  26920538.38800  -1922081.11840  26920542.70040
  12232932.71600  24229036.08300   9729185.37240  24229039.37640
  -3147792.32700  26439410.73100  -2365117.91140  26439413.96640
 96  9  9  4 33  0.0090000  0  8  3 14 18 19 22 27 29 31
  -3097978.69200  26229483.56000    -89155.37840  26229488.14240
  26288893.37500  26297818.27800  20514885.88440  26297823.50540
 -11247766.79700  22933945.63800  -8425279.49540  22933949.02440
  -8957276.09000  24202082.24700  -6891934.70440  24202086.54840
  14062955.17600  25948976.74700  11045090.61240  25948980.57940
  -2630875.50600  26912350.08300  -1955608.82440  26912354.86440
  12318477.70900  24245314.79400   9795843.79740  24245318.02840
  -3203008.35900  26428903.64500  -2408143.36740  26428907.52440
 96  9  9  4 33 30.0090000  0  8  3 14 18 19 22 27 29 31
  -3106986.04400  26227769.57500    -96174.07940  26227773.27840
  26430604.26100  26324785.67700  20625309.92240  26324789.90740
 -11238445.37300  22935719.21600  -8418016.04740  22935722.74340
  -8968688.19400  24199910.30200  -6900827.23440  24199914.60240
  14192665.15800  25973659.91100  11146163.33240  25973663.73140
  -2673847.67100  26904172.54400  -1989093.59440  26904177.18540
  12404382.44800  24261661.88000   9862782.54840  24261665.26740
  -3258085.37900  26418422.71600  -2451060.52640  26418427.00540
 96  9  9  4 34  0.0090000  0  8  3 14 18 19 22 27 29 31
  -3115539.20600  26226141.73900   -102838.86840  26226145.85240
  26572449.13100  26351777.95800  20735838.35640  26351782.78640
 -11228716.47700  22937570.85600  -8410435.08940  22937574.34940
  -8979883.49500  24197779.98900  -6909550.83440  24197784.25540
  14322615.32600  25998388.56000  11247423.20140  25998392.35640
  -2716772.84300  26896004.61400  -2022541.72240  26896008.95040
  12490639.00500  24278076.20800   9929995.43640  24278079.34940
  -3313016.38000  26407969.34100  -2493863.87640  26407972.58740
 96  9  9  4 34 30.0090000  0  8  3 14 18 19 22 27 29 31
  -3123642.52000  26224599.67700   -109153.13040  26224603.49740
  26714424.13900  26378795.46600  20846468.21540  26378800.78640
 -11218594.21600  22939496.87200  -8402547.60940  22939500.43540
  -8990868.35800  24195689.55200  -6918110.45340  24195693.60640
  14452798.95600  26023161.77800  11348864.99640  26023165.78640
  -2759636.26800  26887848.06000  -2055941.74940  26887853.40340
  12577230.23400  24294553.90300   9997469.10940  24294557.11440
  -3367795.40000  26397545.42700  -2536548.81440  26397548.70840
 96  9  9  4 35  0.0090000  0  8  3 14 18 19 22 27 29 31
  -3131323.16500  26223138.23100   -115138.03640  26223142.18140
  26856509.29300  26405833.26300  20957183.90440  26405837.76340
 -11208090.75700  22941495.83300  -8394363.09640  22941499.25540
  -9001647.41800  24193638.45800  -6926509.71840  24193642.67740
  14583209.84400  26047977.75500  11450483.86240  26047981.59940
  -2802449.05700  26879700.98900  -2089302.32540  26879705.25540
  12664145.26300  24311093.29400  10065195.09640  24311096.51740
  -3422448.71500  26387145.46600  -2579135.80840  26387148.79440
 96  9  9  4 35 30.0090000  0  8  3 14 18 19 22 27 29 31
  -3138572.97000  26221758.27800   -120787.22540  26221762.16940
  26998687.36600  26432888.29400  21067971.97940  26432893.22740
 -11197202.74900  22943567.65300  -8385878.93440  22943571.14540
  -9012211.32300  24191628.20800  -6934741.32440  24191632.28640
  14713848.83600  26072837.59100  11552280.48540  26072841.50540
  -2845200.16200  26871565.59900  -2122614.83240  26871569.19640
  12751405.36100  24327698.31000  10133189.96340  24327701.54440
  -3476971.60100  26376770.45000  -2621621.14240  26376775.56040
 96  9  9  4 36  0.0090000  0  8  3 14 18 19 22 27 29 31
  -3145412.46000  26220457.27800   -126116.67540  26220461.41540
  27140951.82700  26459960.08300  21178827.37740  26459965.34540
 -11185929.32900  22945713.05200  -8377094.44840  22945716.48540
  -9022567.04800  24189657.48100  -6942810.71040  24189661.50140
  14844697.15200  26097737.38800  11654240.21640  26097741.17340
  -2887870.32400  26863445.71600  -2155864.27640  26863450.69640
  12839015.95200  24344370.05200  10201457.95040  24344373.33340
  -3531362.17600  26366419.89500  -2664003.38240  26366424.20840
 96  9  9  4 36 30.0090000  0  8  3 14 18 19 22 27 29 31
  -3151848.22800  26219232.29400   -131131.55040  26219237.39240
  27283285.93400  26487045.41900  21289737.05840  26487049.72040
 -11174253.89400  22947934.69200  -8367996.70340  22947938.16140
  -9032722.87200  24187724.90300  -6950724.33040  24187729.08740
  14975733.34800  26122672.61400  11756346.33540  26122677.13840
  -2930455.42300  26855342.08300  -2189047.41340  26855345.57540
  12926981.57200  24361109.41100  10270002.57640  24361112.61040
  -3585615.27600  26356095.84100  -2706278.52140  26356099.48540
 96  9  9  4 37  0.0090000  0  8  3 14 18 19 22 27 29 31
  -3157850.30100  26218090.34900   -135808.47740  26218095.10640
  27425694.89300  26514145.02000  21400705.05340  26514149.74340
 -11162147.46000  22950238.38000  -8358563.12040  22950241.93140
  -9042667.47300  24185832.70000  -6958473.36440  24185836.82540
  15106979.47200  26147647.94200  11858616.05840  26147651.34140
  -2972942.01300  26847256.85600  -2222153.82140  26847261.31040
  13015347.82600  24377924.88800  10338859.38740  24377928.13440
  -3639703.43100  26345803.13000  -2748425.11940  26345807.22040
 96  9  9  4 37 30.0090000  0  8  3 14 18 19 22 27 29 31
  -3163407.10100  26217033.02000   -140138.43740  26217036.24340
  27568189.02800  26541261.20000  21511739.42640  26541266.05240
 -11149600.38600  22952625.97400  -8348786.18140  22952629.45440
  -9052416.43700  24183977.43500  -6966069.95340  24183981.59540
  15238433.75800  26172662.69200  11961047.97140  26172666.65340
  -3015316.18600  26839193.31700  -2255172.60840  26839197.53640
  13104118.55700  24394817.52000  10408031.37540  24394820.83740
  -3693602.55500  26335546.09100  -2790424.40840  26335550.07540
 96  9  9  4 38  0.0090000  0  8  3 14 18 19 22 27 29 31
  -3168525.37500  26216059.11400   -144126.69940  26216063.02840
  27710763.91600  26568392.02000  21622836.73440  26568397.22440
 -11136600.30300  22955099.98100  -8338656.24340  22955103.47440
  -9061974.74700  24182158.56700  -6973517.98040  24182162.84540
  15370101.85100  26197717.68500  12063646.47440  26197721.96240
  -3057570.21700  26831152.82500  -2288097.81140  26831158.33340
  13193287.21900  24411785.80200  10477513.44240  24411788.86040
  -3747307.94300  26325327.13800  -2832272.76640  26325331.31040
 96  9  9  4 38 30.0090000  0  8  3 14 18 19 22 27 29 31
  -3173200.74800  26215169.18500   -147769.82840  26215172.77040
  27853403.75100  26595535.79400  21733984.63640  26595539.75540
 -11123151.34600  22957659.20000  -8328176.53540  22957662.73940
  -9071349.14100  24180374.39500  -6980822.69940  24180378.19240
  15501982.66700  26222814.17700  12166410.74740  26222818.87640
  -3099712.63800  26823133.10600  -2320936.00040  26823137.66540
  13282839.15700  24428826.83300  10547294.16040  24428830.05640
  -3800821.40700  26315142.94200  -2873971.53240  26315146.69240
 96  9  9  4 39  0.0090000  0  8  3 14 18 19 22 27 29 31
  -3177435.78800  26214363.45000   -151069.84540  26214367.48140
  27996129.34000  26622695.45800  21845199.35440  26622701.08340
 -11109257.72000  22960302.95800  -8317350.32740  22960306.41540
  -9080531.61800  24178627.02800  -6987977.85940  24178631.27040
  15634083.87600  26247952.43500  12269346.74840  26247955.64540
  -3141749.39300  26815134.36400  -2353691.88640  26815138.57140
  13372760.83000  24445938.27000  10617362.98740  24445941.43540
  -3854147.56700  26304995.85600  -2915524.37540  26305000.42740
 96  9  9  4 39 30.0090000  0  8  3 14 18 19 22 27 29 31
  -3181228.46100  26213641.76300   -154025.16440  26213645.53640
  28138947.87300  26649872.73900  21956486.49640  26649878.17740
 -11094915.98900  22963032.19200  -8306174.95340  22963035.63840
  -9089516.83400  24176917.63000  -6994979.32440  24176921.68540
  15766401.45700  26273131.75500  12372451.37340  26273135.98540
  -3183678.48000  26807155.47400  -2386363.87440  26807160.23140
  13463027.42200  24463115.37200  10687700.58240  24463118.60640
  -3907291.69700  26294882.46600  -2956935.36340  26294886.60240
 96  9  9  4 40  0.0090000  0  8  3 14 18 19 22 27 29 31
  -3184595.99600  26213000.47400   -156649.20840  26213004.91540
  28281838.43600  26677064.26300  22067829.77340  26677069.17340
 -11080130.22500  22965845.88000  -8294653.58040  22965849.40740
  -9098311.64000  24175243.85600  -7001832.41340  24175248.00540
  15898920.70300  26298349.05200  12475713.13140  26298353.28240
  -3225517.80500  26799193.10600  -2418965.91040  26799197.95840
  13553622.96100  24480355.29400  10758294.49340  24480358.47040
  -3960264.03000  26284802.36400  -2998212.50240  26284807.23940
 96  9  9  4 40 30.0090000  0  8  3 14 18 19 22 27 29 31
  -3187535.70500  26212441.57500   -158939.88040  26212445.23140
  28424805.04100  26704268.50500  22179232.30540  26704272.78240
 -11064918.31100  22968740.48900  -8282800.13440  22968744.01740
  -9106923.58100  24173604.98900  -7008543.01140  24173608.92740
  16031622.35900  26323601.27800  12579117.01140  26323606.17740
  -3267291.59600  26791243.84900  -2451516.86840  26791248.57140
  13644543.42600  24497656.88800  10829141.60340  24497660.09940
  -4013071.96900  26274753.00500  -3039361.50840  26274757.27040
 96  9  9  4 41  0.0090000  0  8  3 14 18 19 22 27 29 31
  -3190025.03600  26211967.53600   -160879.60740  26211971.19240
  28567849.84300  26731490.13800  22290695.77240  26731494.81340
 -11049272.77900  22971717.81000  -8270608.80640  22971721.26740
  -9115340.56500  24172003.14500  -7015101.69140  24172007.29440
  16164503.25100  26348888.02800  12682660.57240  26348892.16540
  -3308991.55200  26783308.56000  -2484010.32340  26783313.41140
  13735811.42900  24515024.60600  10900259.51140  24515027.85240
  -4065709.62700  26264736.55200  -3080377.86340  26264740.18540
 96  9  9  4 41 30.0090000  0  8  3 14 18 19 22 27 29 31
  -3192058.07200  26211580.75500   -162463.78540  26211583.73140
  28710945.59300  26758720.40300  22402198.91740  26758725.30240
 -11033194.63300  22974777.32500  -8258080.38140  22974780.82940
  -9123565.84900  24170437.88800  -7021511.00040  24170441.86040
  16297548.80800  26374205.65300  12786332.44040  26374209.63840
  -3350619.03400  26775387.32500  -2516447.28140  26775392.91540
  13827430.80000  24532459.21600  10971651.21540  24532462.61440
  -4118172.82200  26254752.96600  -3121258.24440  26254757.25540
 96  9  9  4 42  0.0090000  0  8  3 14 18 19 22 27 29 31
  -3193623.87700  26211282.47400   -163683.86140  26211286.34140
  28854103.25200  26785962.41900  22513750.35540  26785966.53240
 -11016680.31700  22977919.70000  -8245212.08540  22977923.12240
  -9131577.89300  24168913.24700  -7027754.14140  24168917.20840
  16430755.26700  26399553.87200  12890129.68340  26399557.64540
  -3392165.24600  26767481.58300  -2548820.94740  26767486.16540
  13919425.73000  24549965.20800  11043335.56440  24549968.52440
  -4170443.78800  26244806.21600  -3161988.86840  26244810.36440
 96  9  9  4 42 30.0090000  0  8  3 14 18 19 22 27 29 31
  -3194707.36600  26211076.31700   -164528.15540  26211080.36040
  28997318.44200  26813215.27000  22625346.56740  26813220.53240
 -10999740.45100  22981143.57500  -8232012.18540  22981146.93840
  -9139357.35000  24167433.09100  -7033816.04940  24167437.19240
  16564121.53700  26424932.49700  12994051.45140  26424936.45840
  -3433629.62600  26759590.57500  -2581130.82140  26759595.60240
  14011795.33100  24567542.45800  11115311.86440  24567545.39940
  -4222533.10000  26234894.38000  -3202577.91740  26234898.20040
 96  9  9  4 43  0.0090000  0  8  3 14 18 19 22 27 29 31
  -3195314.89000  26210960.58300   -165001.53840  26210963.97040
  29140581.40800  26840477.26300  22736980.03240  26840481.57540
 -10982356.19400  22984451.63800  -8218466.01540  22984455.15340
  -9146905.28900  24165996.61400  -7039697.55240  24166000.85640
  16697662.62300  26450344.80200  13098109.45040  26450349.20840
  -3475000.78900  26751717.99700  -2613368.08140  26751722.86040
  14104533.78000  24585190.11400  11187575.58440  24585193.11440
  -4274428.23300  26225018.62200  -3243015.68940  26225021.30640
 96  9  9  4 43 30.0090000  0  8  3 14 18 19 22 27 29 31
  -3195455.21600  26210934.04400   -165110.86940  26210937.78240
  29283897.94600  26867749.39500  22848655.23540  26867754.88040
 -10964521.26000  22987845.55200  -8204568.66540  22987849.00940
  -9154231.92500  24164602.41100  -7045406.61640  24164606.67740
  16831390.77900  26475792.39500  13202313.22440  26475796.00540
  -3516287.28600  26743861.79400  -2645539.35240  26743866.47040
  14197630.08300  24602905.77000  11260118.13840  24602908.93540
  -4326121.46000  26215181.99700  -3283296.09540  26215186.61440
 96  9  9  4 44  0.0090000  0  8  3 14 18 19 22 27 29 31
  -3195155.27200  26210991.45000   -164877.13440  26210994.84940
  29427255.92000  26895029.31000  22960362.76040  26895034.89940
 -10946253.92400  22991321.63800  -8190334.37540  22991325.18840
  -9161365.60100  24163245.07500  -7050965.31040  24163249.04840
  16965282.95800  26501271.16900  13306644.76940  26501275.62240
  -3557511.73000  26736016.72400  -2677662.27740  26736021.21240
  14291060.54200  24620685.20800  11332921.08940  24620688.77040
  -4377635.19200  26205379.25500  -3323436.65740  26205383.11040
 96  9  9  4 44 30.0090000  0  8  3 14 18 19 22 27 29 31
  -3194393.58400  26211136.48100   -164283.58840  26211140.67740
  29570657.44400  26922317.91100  23072104.18140  26922323.24340
 -10927535.25600  22994883.64500  -8175748.39440  22994887.05640
  -9168303.73300  24161924.56000  -7056371.63340  24161928.56740
  17099354.34500  26526784.44200  13411116.00140  26526788.21640
  -3598664.93900  26728185.33300  -2709729.68340  26728189.62240
  14384825.14900  24638527.95800  11405984.40740  24638531.36840
  -4428960.68300  26195611.45000  -3363430.53240  26195615.52840
 96  9  9  4 45  0.0090000  0  8  3 14 18 19 22 27 29 31
  -3193183.56400  26211366.23900   -163340.71740  26211370.03640
  29714094.20000  26949612.69200  23183873.06040  26949617.66140
 -10908373.61700  22998529.95800  -8160817.24640  22998533.52040
  -9175070.98400  24160636.82500  -7061644.81540  24160640.97440
  17233588.71400  26552328.00500  13515714.21540  26552331.45040
  -3639763.64800  26720364.41900  -2741754.63040  26720369.00140
  14478922.76100  24656433.88800  11479307.21440  24656436.98140
  -4480083.43000  26185884.07500  -3403266.42040  26185888.21240
 96  9  9  4 45 30.0090000  0  8  3 14 18 19 22 27 29 31
  -3191526.40800  26211681.63800   -162049.40540  26211685.31740
  29857550.09600  26976912.01300  23295656.87740  26976916.26740
 -10888808.85500  23002253.08300  -8145571.97040  23002256.51740
  -9181670.58200  24159381.11400  -7066787.34940  24159385.04040
  17367957.89400  26577897.24700  13620417.48940  26577900.58740
  -3680828.73800  26712550.50500  -2773753.36340  26712554.88840
  14573335.30200  24674400.20800  11552875.41940  24674403.67740
  -4531016.63900  26176191.56000  -3442954.63740  26176194.97040
 96  9  9  4 46  0.0090000  0  8  3 14 18 19 22 27 29 31
  -3189394.73500  26212087.48900   -160388.35940  26212091.20440
  30001041.27800  27004217.34100  23407468.17540  27004222.29840
 -10868820.28700  23006056.86400  -8129996.46440  23006060.31040
  -9188058.62200  24158165.40300  -7071765.03640  24158169.50540
  17502478.25000  26603495.79400  13725238.52640  26603499.43840
  -3721826.17200  26704748.59900  -2805699.37540  26704753.41540
  14668085.95400  24692430.41900  11626707.08740  24692433.67740
  -4581728.46600  26166541.16900  -3482470.30240  26166543.81740
 96  9  9  4 46 30.0090000  0  8  3 14 18 19 22 27 29 31
  -3186777.62600  26212585.27000   -158349.02340  26212589.04440
  30144557.42800  27031527.74700  23519298.92340  27031532.20040
 -10848406.26000  23009941.45800  -8114089.43040  23009944.99740
  -9194230.63200  24156990.88800  -7076574.38240  24156994.89540
  17637155.54800  26629124.64500  13830181.88740  26629129.31040
  -3762748.69400  26696961.14500  -2837587.02740  26696966.39540
  14763180.43800  24710526.59900  11700806.68140  24710529.75140
  -4632202.93000  26156936.13000  -3521801.03540  26156939.75140
 96  9  9  4 47  0.0090000  0  8  3 14 18 19 22 27 29 31
  -3183686.05800  26213173.88000   -155939.99340  26213178.04040
  30288091.14100  27058841.35600  23631143.38040  27058846.74740
 -10827566.18400  23013907.17700  -8097850.40540  23013910.59940
  -9200189.24400  24155856.84100  -7081217.44940  24155860.96640
  17771991.34600  26654782.59900  13935248.74140  26654786.45440
  -3803590.93600  26689189.83300  -2869412.11140  26689193.86440
  14858622.29100  24728688.36400  11775176.94940  24728691.75140
  -4682430.95100  26147378.77800  -3560939.74840  26147383.13840
 96  9  9  4 47 30.0090000  0  8  3 14 18 19 22 27 29 31
  -3180121.14500  26213852.26300   -153162.13640  26213856.24740
  30431624.12900  27086154.98900  23742987.24440  27086158.76340
 -10806293.86200  23017955.24700  -8081274.57040  23017958.68140
  -9205946.24700  24154761.45000  -7085703.41540  24154765.43540
  17906974.00400  26680468.92700  14040430.03540  26680472.52440
  -3844350.39100  26681433.02800  -2901172.68140  26681438.60640
  14954393.34900  24746913.06000  11849803.73340  24746916.37640
  -4732432.49400  26137863.44200  -3599901.97940  26137867.32140
 96  9  9  4 48  0.0090000  0  8  3 14 18 19 22 27 29 31
  -3176094.65400  26214618.01300   -150024.60040  26214622.39540
  30575142.15500  27113464.99700  23854819.46640  27113470.03640
 -10784573.76900  23022088.45800  -8064349.82740  23022091.85640
  -9211518.36000  24153701.09100  -7090045.31940  24153705.13440
  18042100.42500  26706182.34900  14145723.36240  26706187.43540
  -3885020.44800  26673693.90300  -2932863.59940  26673699.22440
  15050496.76600  24765201.16100  11924689.50540  24765204.66540
  -4782209.34800  26128390.89500  -3638689.13040  26128395.34940
 96  9  9  4 48 30.0090000  0  8  3 14 18 19 22 27 29 31
  -3171602.44300  26215472.77000   -146524.17340  26215476.21640
  30718647.18600  27140773.35600  23966641.53940  27140777.36440
 -10762410.14000  23026305.77800  -8047079.46840  23026309.20040
  -9216933.22500  24152670.92700  -7094264.68040  24152674.86440
  18177364.16600  26731922.93500  14251123.68740  26731927.17740
  -3925613.89000  26665969.30200  -2964494.83340  26665973.70840
  15146938.88700  24783553.48100  11999839.19440  24783556.56340
  -4831775.55700  26118958.81700  -3677312.12840  26118962.93140
 96  9  9  4 49  0.0090000  0  8  3 14 18 19 22 27 29 31
  -3166632.05400  26216418.88000   -142651.11840  26216422.99340
  30862153.77500  27168081.79400  24078464.84040  27168087.45440
 -10739801.85500  23030608.27800  -8029462.62740  23030611.84140
  -9222189.39900  24151670.66900  -7098360.39340  24151674.81740
  18312763.25400  26757688.12200  14356629.43740  26757692.52840
  -3966132.06700  26658258.84900  -2996067.38540  26658263.72440
  15243722.46900  24801970.93500  12075254.96540  24801974.26340
  -4881131.51900  26109567.19200  -3715771.31140  26109571.28240
 96  9  9  4 49 30.0090000  0  8  3 14 18 19 22 27 29 31
  -3161177.42200  26217456.88800   -138400.73840  26217461.01340
  31005673.53500  27195392.65300  24190298.39140  27195397.43540
 -10716747.22500  23034995.41900  -8011497.97940  23034998.95840
  -9227286.62800  24150700.59900  -7102332.25140  24150704.67740
  18448286.78900  26783476.82500  14462232.22040  26783482.40340
  -4006573.22500  26650562.74700  -3027579.94840  26650567.11840
  15340857.43800  24820454.62200  12150944.54040  24820457.75140
  -4930260.41500  26100217.63800  -3754053.55640  26100221.27040
 96  9  9  4 50  0.0090000  0  8  3 14 18 19 22 27 29 31
  -3155237.25600  26218587.12200   -133772.03440  26218591.16540
  31149220.17800  27222708.28600  24302152.92640  27222713.44240
 -10693247.03300  23039467.24700  -7993186.14740  23039470.70440
  -9232210.25000  24149763.52000  -7106168.83340  24149767.50540
  18583930.76300  26809289.88800  14567928.80340  26809293.40340
  -4046935.35800  26642882.27800  -3059030.93040  26642886.98940
  15438350.52500  24839007.22400  12226913.17040  24839010.59940
  -4979153.18600  26090914.03600  -3792151.79840  26090918.57140
 96  9  9  4 50 30.0090000  0  8  3 14 18 19 22 27 29 31
  -3148801.75400  26219811.96600   -128757.35140  26219815.89240
  31292803.79600  27250031.83300  24414036.23340  27250037.02440
 -10669300.18000  23044024.01300  -7974526.26740  23044027.55240
  -9236943.40300  24148862.87200  -7109856.99940  24148866.90340
  18719689.63300  26835123.36400  14673714.96340  26835127.97040
  -4087219.76100  26635216.01300  -3090421.33740  26635220.36040
  15536196.05300  24857626.81700  12303156.42440  24857630.33340
  -5027802.51100  26081656.20000  -3830060.36640  26081659.99740
 96  9  9  4 51  0.0090000  0  8  3 14 18 19 22 27 29 31
  -3141902.43700  26221124.89500   -123381.24940  26221128.22440
  31436392.91600  27277355.77000  24525923.85140  27277361.32540
 -10644911.43700  23048665.28600  -7955522.05640  23048668.76740
  -9241475.66500  24148000.51300  -7113388.62640  24148004.43840
  18855545.15200  26860975.96600  14779576.40240  26860980.39540
  -4127434.68800  26627563.71600  -3121757.61640  26627568.96640
  15634365.20800  24876307.40300  12379651.85640  24876310.54440
  -5076196.57200  26072447.26300  -3867770.01940  26072451.65740
 96  9  9  4 51 30.0090000  0  8  3 14 18 19 22 27 29 31
  -3134550.89400  26222524.06000   -117652.76340  26222527.71640
  31579976.93600  27304679.50500  24637807.49940  27304684.11040
 -10620069.23100  23053392.47400  -7936164.49840  23053396.03640
  -9245802.50400  24147176.99700  -7116760.18740  24147180.98140
  18991502.23800  26886847.84900  14885516.98940  26886852.31340
  -4167578.60600  26619924.59100  -3153038.55140  26619929.80640
  15732854.55900  24895049.56700  12456396.79640  24895052.84940
  -5124342.27800  26063284.73900  -3905286.12040  26063288.78240
 96  9  9  4 52  0.0090000  0  8  3 14 18 19 22 27 29 31
  -3126764.07700  26224005.70000   -111585.10840  26224009.87240
  31723532.21500  27331996.45800  24749668.73940  27332002.15340
 -10594782.89600  23058204.46600  -7916460.86640  23058207.89940
  -9249934.59600  24146390.93500  -7119979.98540  24146394.84940
  19127567.71300  26912740.56000  14991542.03740  26912744.16940
  -4207672.11600  26612294.77800  -3184280.21740  26612299.04440
  15831642.63800  24913848.34900  12533374.51240  24913851.78240
  -5172272.98700  26054163.92700  -3942634.71640  26054167.73540
 96  9  9  4 52 30.0090000  0  8  3 14 18 19 22 27 29 31
  -3118534.89100  26225571.68500   -105172.73640  26225575.18840
  31867060.81600  27359308.84900  24861509.17040  27359314.31040
 -10569033.25500  23063104.23100  -7896396.21940  23063107.71240
  -9253868.13600  24145641.97400  -7123045.07940  24145646.23940
  19263765.59100  26938658.04400  15097670.27240  26938660.61040
  -4247711.42000  26604675.78600  -3215479.64440  26604679.86440
  15930742.60800  24932706.27800  12610595.25440  24932709.61840
  -5219970.73500  26045087.39500  -3979801.78740  26045091.13440
 96  9  9  4 53  0.0090000  0  8  3 14 18 19 22 27 29 31
  -3109860.21700  26227222.27000    -98413.23940  26227226.18540
  32010555.66100  27386615.13000  24973323.33340  27386620.82540
 -10542820.47500  23068092.61400  -7875970.67640  23068096.03640
  -9257625.32400  24144927.19200  -7125972.75640  24144931.25940
  19400088.25600  26964599.58300  15203895.69040  26964604.31740
  -4287718.16100  26597063.10600  -3246653.71140  26597067.25540
  16030164.87700  24951625.82500  12688067.14140  24951629.25940
  -5267442.78900  26036054.45800  -4016792.99740  26036058.74740
 96  9  9  4 53 30.0090000  0  8  3 14 18 19 22 27 29 31
  -3100691.86400  26228966.78600    -91269.05840  26228970.92340
  32154052.27800  27413921.79400  25085138.86040  27413926.90340
 -10516123.15700  23073172.98100  -7855167.57440  23073176.40340
  -9261199.25400  24144247.02000  -7128757.63340  24144251.19240
  19536564.99800  26990570.37200  15310241.23540  26990574.69640
  -4327663.98300  26589461.16100  -3277780.29440  26589465.38040
  16129950.48700  24970614.36400  12765822.15240  24970617.66940
  -5314676.48700  26027065.86400  -4053598.45040  26027070.41140
 96  9  9  4 54  0.0090000  0  8  3 14 18 19 22 27 29 31
  -3091021.35800  26230807.14500    -83733.59240  26230811.00140
  32297534.40100  27441225.57500  25196943.09840  27441229.95840
 -10488949.40500  23078343.80200  -7833993.22440  23078347.30640
  -9264598.57800  24143600.23900  -7131406.45240  24143604.11840
  19673180.96100  27016567.17700  15416695.20840  27016570.18840
  -4367556.35000  26581869.85600  -3308865.25040  26581874.07540
  16230085.78000  24989669.54400  12843849.64240  24989673.11840
  -5361662.51900  26018124.50500  -4090210.91740  26018128.84140
 96  9  9  4 54 30.0090000  0  8  3 14 18 19 22 27 29 31
  -3080847.49000  26232743.08300    -75805.89340  26232747.43140
  32440979.57800  27468522.47400  25308718.53840  27468526.77440
 -10461321.49800  23083601.33300  -7812464.99040  23083604.74340
  -9267845.34200  24142982.43500  -7133936.39840  24142986.56040
  19809885.61800  27042581.33300  15523218.32940  27042584.52040
  -4407411.05600  26574286.24700  -3339920.81640  26574290.66540
  16330550.89300  25008787.42700  12922134.12840  25008790.53240
  -5408408.20500  26009229.23900  -4126636.13740  26009233.54040
 96  9  9  4 55  0.0100000  0  8  3 14 18 19 22 27 29 31
  -3070155.10100  26234778.16600    -67474.15240  26234782.24440
  32584392.69000  27495813.11900  25420469.00640  27495817.09240
 -10433244.06600  23088944.04100  -7790586.46540  23088947.56840
  -9270929.17100  24142395.78300  -7136339.37340  24142399.85040
  19946681.14900  27068612.31400  15629812.23840  27068616.00640
  -4447202.05600  26566713.97100  -3370926.77940  26566718.13140
  16431350.01300  25027968.65000  13000678.88840  25027971.66240
  -5454905.51700  26000381.30700  -4162867.78740  26000385.52540
 96  9  9  4 55 30.0100000  0  8  3 14 18 19 22 27 29 31
  -3058955.29800  26236909.15800    -58747.02340  26236912.27540
  32727749.78700  27523093.42400  25532175.82140  27523097.97140
 -10404719.51300  23094372.19700  -7768359.54240  23094375.71340
  -9273841.49500  24141841.35300  -7138608.70940  24141845.24440
  20083571.60900  27094661.93200  15736480.14340  27094666.40840
  -4486898.30500  26559160.26000  -3401858.88840  26559164.26840
  16532458.54600  25047209.04900  13079464.73740  25047212.45940
  -5501138.45900  25991583.07200  -4198893.45240  25991587.19740
 96  9  9  4 56  0.0100000  0  8  3 14 18 19 22 27 29 31
  -3047266.29900  26239133.61100    -49638.69640  26239137.71340
  32871034.20900  27550358.72800  25643825.99940  27550363.51040
 -10375760.97700  23099882.68200  -7745794.44840  23099886.20940
  -9276586.46700  24141319.18900  -7140747.64540  24141323.30340
  20220540.44700  27120726.47800  15843209.08840  27120730.29940
  -4526518.80300  26551620.20500  -3432731.99140  26551625.06840
  16633858.97700  25066504.90800  13158478.05240  25066508.27140
  -5547107.57100  25982835.76000  -4234713.51740  25982839.38140
 96  9  9  4 56 30.0100000  0  8  3 14 18 19 22 27 29 31
  -3035093.98900  26241449.64300    -40153.77040  26241453.51040
  33014261.15400  27577614.49400  25755431.36940  27577619.83840
 -10346362.08300  23105477.04900  -7722886.22040  23105480.55340
  -9279144.25800  24140832.31400  -7142740.72540  24140836.53340
  20357588.35900  27146806.08000  15949999.70840  27146809.37340
  -4566051.10300  26544097.68200  -3463536.35140  26544101.86540
  16735575.98500  25085861.15000  13237738.04540  25085864.52540
  -5592795.53200  25974141.33000  -4270314.52240  25974145.04540
 96  9  9  4 57  0.0100000  0  8  3 14 18 19 22 27 29 31
  -3022474.86100  26243850.90800    -30320.67140  26243854.97540
  33157399.03300  27604852.16600  25866967.39440  27604857.54540
 -10316547.86400  23111150.65800  -7699654.35240  23111154.11540
  -9281538.19700  24140376.77500  -7144606.13240  24140380.77140
  20494705.58700  27172898.47100  16056844.29540  27172902.15040
  -4605528.78600  26536584.81400  -3494298.15840  26536589.15040
  16837591.97400  25105274.15000  13317231.00940  25105277.37340
  -5638221.70400  25965497.13500  -4305711.53340  25965501.11940
 96  9  9  4 57 30.0100000  0  8  3 14 18 19 22 27 29 31
  -3009395.88800  26246339.33800    -20129.26140  26246343.19340
  33300467.74500  27632078.08800  25978449.46640  27632084.97140
 -10286301.71800  23116906.31400  -7676085.92240  23116909.90040
  -9283755.45500  24139954.78300  -7146333.86240  24139959.00240
  20631901.40500  27199004.98600  16163750.07240  27199008.67840
  -4644960.87300  26529081.49400  -3525024.43640  26529085.44340
  16939921.68700  25124746.77500  13396968.42840  25124750.01040
  -5683370.70600  25956905.53300  -4340892.55940  25956909.67040
 96  9  9  4 58  0.0100000  0  8  3 14 18 19 22 27 29 31
  -2995836.53600  26248920.10300     -9563.51140  26248924.13540
  33443498.61400  27659295.32200  26089902.06440  27659300.66640
 -10255611.09400  23122746.54900  -7652171.15340  23122750.14640
  -9285772.65100  24139570.90000  -7147905.70240  24139575.09640
  20769168.45500  27225126.19700  16270711.40740  27225129.67840
  -4684346.89000  26521586.63500  -3555714.83440  26521590.97140
  17042579.32100  25144281.98600  13476961.38340  25144285.42040
  -5728229.29400  25948369.16600  -4375847.28240  25948373.09240
 96  9  9  4 58 30.0100000  0  8  3 14 18 19 22 27 29 31
  -2981794.18500  26251592.47800      1378.57740  26251596.83840
  33586502.56900  27686508.15000  26201333.71940  27686513.51840
 -10224470.20800  23128672.47800  -7627905.52740  23128676.04140
  -9287598.01400  24139223.65000  -7149328.05740  24139227.67040
  20906511.93600  27251262.33000  16377732.32740  27251265.33040
  -4723679.87000  26514101.65800  -3586363.88440  26514106.31040
  17145573.96700  25163881.27500  13557216.93440  25163884.58040
  -5772804.90900  25939886.68900  -4410581.53440  25939891.26040
 96  9  9  4 59  0.0100000  0  8  3 14 18 19 22 27 29 31
  -2967257.43400  26254358.40800     12705.93240  26254362.93240
  33729472.97100  27713714.41600  26312739.25340  27713718.85740
 -10192890.41900  23134681.83800  -7603297.89640  23134685.29540
  -9289260.07400  24138907.22100  -7150623.16040  24138911.31040
  21043940.86100  27277413.78300  16484819.81940  27277417.39340
  -4762970.89900  26506624.58800  -3616980.23240  26506629.31040
  17248873.34900  25183538.26000  13637709.94040  25183541.47140
  -5817116.88500  25931454.54100  -4445110.32640  25931458.80740
 96  9  9  4 59 30.0100000  0  8  3 14 18 19 22 27 29 31
  -2952209.12800  26257222.08000     24431.89540  26257225.76040
  33872437.34100  27740919.58000  26424140.04440  27740926.40040
 -10160852.31400  23140778.51000  -7578333.14140  23140782.00240
  -9290747.23100  24138624.20500  -7151781.98340  24138628.47140
  21181466.07300  27303583.92400  16591982.27340  27303587.59240
  -4802191.04300  26499161.49400  -3647541.36640  26499165.60740
  17352482.66400  25203254.58800  13718444.46440  25203257.98640
  -5861148.66800  25923075.59600  -4479420.78840  25923079.55740
 96  9  9  5  0  0.0100000  0  7  3 18 19 22 27 29 31
  -2936641.83100  26260184.63500     36562.26640  26260188.86540
 -10128354.43100  23146962.69700  -7553010.12140  23146966.11940
  -9292065.04100  24138373.45500  -7152808.84240  24138377.53340
  21319084.10400  27329771.60300  16699217.14740  27329774.39340
  -4841329.75800  26491713.47100  -3678039.04140  26491718.20540
  17456405.47500  25223030.51000  13799423.26440  25223033.87340
  -5904905.75200  25914748.79100  -4513517.20940  25914752.38940
 96  9  9  5  0 30.0100000  0  8  3 16 18 19 22 27 29 31
  -2920570.98300  26263242.72100     49085.01640  26263245.80340
     -7913.58010  27733193.72100
 -10095414.32800  23153230.87700  -7527342.51040  23153234.41640
  -9293243.66000  24138149.25200  -7153727.24640  24138153.23640
  21456773.39500  27355973.62700  16806507.51040  27355978.31440
  -4880410.97800  26484276.84600  -3708491.92940  26484281.41640
  17560630.27900  25242864.08000  13880637.37740  25242867.37340
  -5948412.41800  25906469.60300  -4547418.49840  25906473.38940
 96  9  9  5  1  0.0100000  0  8  3 16 18 19 22 27 29 31
  -2903987.45800  26266398.02500     62007.24540  26266402.15040
    -55193.92000  27724195.93200
 -10062010.94400  23159587.43900  -7501313.89440  23159590.94340
  -9294247.70600  24137958.54100  -7154509.62140  24137962.64340
  21594522.60000  27382187.04900  16913844.56240  27382191.86540
  -4919426.02500  26476852.47800  -3738893.24040  26476856.36940
  17665158.46400  25262754.68900  13962087.90440  25262758.24040
  -5991646.21300  25898242.86900  -4581107.15640  25898246.86540
 96  9  9  5  1 30.0100000  0  8  3 16 18 19 22 27 29 31
  -2886883.63900  26269653.15000     75334.90340  26269656.85340
   -102102.68100  27715270.08000     -7287.15850  27715274.40440
 -10028110.05100  23166038.62700  -7474897.61340  23166042.10740
  -9295041.45100  24137807.21300  -7155128.11540  24137811.06840
  21732321.67400  27408408.16600  17021220.45740  27408411.47140
  -4958355.73300  26469444.54900  -3769228.04540  26469448.34640
  17770027.58300  25282710.82200  14043804.09040  25282714.50240
  -6034579.83900  25890073.00200  -4614561.92040  25890076.70540
 96  9  9  5  2  0.0100000  0  8  3 16 18 19 22 27 29 31
  -2869277.93300  26273003.31400     89053.64840  26273007.19340
   -148648.75000  27706413.61100    -43556.77540  27706418.11140
  -9993720.52800  23172582.71300  -7448100.57440  23172586.28740
  -9295634.75700  24137694.26000  -7155590.42440  24137698.29140
  21870152.25000  27434637.72100  17128620.87840  27434641.47140
  -4997221.30600  26462048.28300  -3799512.89040  26462052.73640
  17875230.33600  25302730.23600  14125780.23640  25302733.48240
  -6077217.84500  25881958.83800  -4647786.32440  25881962.78740
 96  9  9  5  2 30.0100000  0  8  3 16 18 19 22 27 29 31
  -2851185.96300  26276445.97100    103151.28740  26276449.40440
   -194820.92900  27697626.08000    -79535.06740  27697630.48640
  -9958844.07400  23179219.47100  -7420924.12540  23179222.98640
  -9296029.39700  24137619.19700  -7155897.93540  24137623.38140
  22008017.43600  27460872.26000  17236048.32640  27460875.42440
  -5036047.44200  26454659.83800  -3829767.00340  26454664.25640
  17980753.23100  25322810.68900  14208005.85740  25322814.38140
  -6119548.17700  25873903.76000  -4680770.98840  25873907.59240
 96  9  9  5  3  0.0100000  0  8  3 16 18 19 22 27 29 31
  -2832595.01800  26279983.78300    117637.73740  26279987.26440
   -240609.31700  27688913.22800   -115214.33840  27688917.64640
  -9923474.77200  23185949.90800  -7393363.64240  23185953.44740
  -9296223.12100  24137582.03300  -7156048.88540  24137586.19340
  22145933.75000  27487116.79100  17343515.60140  27487120.74040
  -5074820.95400  26447281.55700  -3859980.11240  26447285.57640
  18086604.87900  25342953.47800  14290487.65440  25342956.98240
  -6161547.49600  25865911.15800  -4713497.71640  25865915.48240
 96  9  9  5  3 30.0100000  0  8  3 16 18 19 22 27 29 31
  -2813507.35100  26283616.19700    132511.24940  26283619.79540
   -286034.01000  27680268.40800   -150610.24540  27680272.67440
  -9887644.90100  23192768.06400  -7365444.27140  23192771.54540
  -9296259.50600  24137575.48600  -7156077.23040  24137579.57640
  22283905.81800  27513370.67400  17451026.29540  27513375.10340
  -5113550.14600  26439911.87700  -3890158.67740  26439915.67440
  18192775.15500  25363157.20500  14373217.71140  25363160.25240
  -6203215.76900  25857982.14300  -4745966.49540  25857986.06840
 96  9  9  5  4  0.0100000  0  8  3 16 18 19 22 27 29 31
  -2793928.07600  26287341.83800    147767.84140  26287346.05740
   -331105.14600  27671692.72100   -185730.54940  27671699.99040
  -9851386.79700  23199667.97800  -7337191.20240  23199671.57640
  -9296156.01400  24137595.16600  -7155996.58040  24137599.01040
  22421928.32300  27539636.18200  17558576.31340  27539639.86140
  -5152252.70000  26432546.78300  -3920316.50540  26432550.95540
  18299245.43000  25383417.68900  14456181.56340  25383421.21740
  -6244554.70000  25850115.57200  -4778178.62440  25850119.08840
 96  9  9  5  4 30.0100000  0  8  3 16 18 19 22 27 29 31
  -2773838.97200  26291164.86900    163421.68040  26291168.57240
   -375814.62100  27663184.59600   -220569.05240  27663188.06440
  -9814698.36700  23206649.54100  -7308602.82440  23206653.11540
  -9295909.86700  24137641.92400  -7155804.77240  24137645.77940
  22560005.92200  27565911.19700  17666169.23140  27565915.94340
  -5190915.36600  26425189.70500  -3950443.24040  26425194.34640
  18406017.68200  25403735.84600  14539380.70240  25403739.22140
  -6285563.79200  25842311.63500  -4810133.75740  25842315.44340
 96  9  9  5  5  0.0100000  0  8  3 16 18 19 22 27 29 31
  -2753223.62800  26295087.99400    179485.59640  26295091.85040
   -420147.15700  27654747.93200   -255113.88940  27654753.55740
  -9777561.82700  23213716.12700  -7279665.26440  23213719.74840
  -9295504.79000  24137719.03300  -7155489.12240  24137723.20540
  22698136.82700  27592197.15000  17773803.74440  27592203.49040
  -5229504.16500  26417846.17400  -3980512.42140  26417850.33440
  18513101.19300  25424113.19700  14622822.39140  25424116.61940
  -6326232.59700  25834572.76800  -4841823.71440  25834576.23640
 96  9  9  5  5 30.0100000  0  9  3 10 16 18 19 22 27 29 31
  -2732097.60800  26299107.90800    195947.44440  26299112.39640
    -31757.82110  27773560.97800
   -464104.43600  27646383.90000   -289366.26440  27646390.81840
  -9739981.66400  23220867.71300  -7250382.02540  23220871.36940
  -9294928.81700  24137828.53300  -7155040.30340  24137832.58840
  22836312.26000  27618490.22800  17881472.90140  27618495.80740
  -5268027.83300  26410515.48600  -4010530.85440  26410519.30740
  18620478.86000  25444546.38500  14706493.28740  25444549.88940
  -6366578.40800  25826895.35300  -4873261.99840  25826898.89340
 96  9  9  5  6  0.0100000  0  9  3 10 16 18 19 22 27 29 31
  -2710477.89500  26303221.73600    212793.96240  26303225.87340
    -72850.99900  27765741.43900
   -507678.31000  27638090.94700   -323319.91640  27638097.02940
  -9701936.11500  23228107.52500  -7220736.13740  23228111.01840
  -9294170.74700  24137972.76000  -7154449.59140  24137976.90840
  22974531.54200  27644793.58000  17989176.25540  27644797.72840
  -5306492.58000  26403195.83000  -4040503.35540  26403200.28340
  18728141.41400  25465034.10300  14790386.18340  25465037.60740
  -6406625.07000  25819274.63500  -4904467.17340  25819278.43240
 96  9  9  5  6 30.0100000  0  9  3 10 16 18 19 22 27 29 31
  -2688360.62400  26307430.73600    230028.20840  26307434.08840
   -113566.38400  27757995.40800    -25357.85950  27758001.26840
   -550868.73300  27629873.11900   -356974.73240  27629878.43940
  -9663405.85900  23235439.57200  -7190712.56040  23235443.11140
  -9293233.93300  24138151.04100  -7153719.59640  24138155.14340
  23112803.07100  27671105.64300  18096920.31340  27671109.75640
  -5344880.62700  26395891.15800  -4070416.09940  26395895.27140
  18836076.90100  25485573.21300  14874491.74240  25485576.57640
  -6446375.66600  25811710.38500  -4935441.66240  25811714.33440
 96  9  9  5  7  0.0100000  0  9  3 10 16 18 19 22 27 29 31
  -2665752.92900  26311732.97800    247644.62040  26311736.99840
   -153922.76100  27750313.67400    -56804.36540  27750320.09640
   -593686.92900  27621724.50200   -390339.56040  27621729.62340
  -9624400.29000  23242861.95500  -7160318.61340  23242865.50640
  -9292117.00300  24138363.58800  -7152849.25540  24138367.59640
  23251125.10000  27697426.43200  18204703.74840  27697430.36940
  -5383204.51800  26388598.13500  -4100278.85640  26388602.50640
  18944280.46900  25506164.08800  14958806.19540  25506167.49840
  -6485826.24200  25804203.36900  -4966182.35340  25804207.02540
 96  9  9  5  7 30.0100000  0  9  3 10 16 18 19 22 27 29 31
  -2642634.20000  26316132.08000    265659.20640  26316135.63140
   -193901.36000  27742705.61100    -87956.52440  27742710.52140
   -636127.83700  27613648.11100   -423410.35640  27613652.81040
  -9584907.77700  23250377.23600  -7129545.23140  23250380.76440
  -9290809.01300  24138612.43900  -7151830.03940  24138616.57640
  23389521.02400  27723762.72100  18312544.69040  27723764.77140
  -5421449.23900  26381320.17400  -4130079.90540  26381324.72140
  19052775.27600  25526809.65000  15043347.59140  25526813.35340
  -6524956.15900  25796756.96300  -4996673.18040  25796761.06440
 96  9  9  5  8  0.0100000  0  9  3 10 16 18 19 22 27 29 31
  -2619008.64000  26320627.90800    284068.74140  26320632.01040
   -233493.99300  27735171.73600   -118807.90540  27735175.20540
   -678215.09900  27605639.10300   -456205.59640  27605643.32240
  -9544929.80800  23257984.64300  -7098393.57740  23257988.10040
  -9289335.12600  24138892.85300  -7150681.55240  24138896.97840
  23527981.27000  27750111.86100  18420435.84840  27750117.32240
  -5459620.54400  26374056.47800  -4159823.76740  26374060.95540
  19161555.40900  25547509.77500  15128111.31640  25547513.52540
  -6563754.15700  25789374.01000  -5026905.38640  25789378.14640
 96  9  9  5  8 30.0100000  0  9  3 10 16 18 19 22 27 29 31
  -2594840.31400  26325227.14300    302901.23040  26325230.61140
   -272667.00400  27727718.49400   -149332.30540  27727724.15440
   -719933.78800  27597701.04100   -488713.64140  27597707.53340
  -9504467.66000  23265684.35300  -7066864.64040  23265688.01040
  -9287668.56300  24139210.05700  -7149382.92640  24139214.18240
  23666509.87100  27776470.41600  18528380.19640  27776474.47140
  -5497693.88700  26366811.42400  -4189491.28740  26366815.47840
  19270654.94200  25568270.92400  15213123.92140  25568274.38140
  -6602175.85500  25782062.88500  -5056844.35240  25782066.54140
 96  9  9  5  9  0.0100000  0  9  3 10 16 18 19 22 27 29 31
  -2570141.20500  26329927.01000    322147.29940  26329930.90040
   -311433.90600  27720340.16600   -179540.25840  27720345.74440
   -761289.19000  27589831.50200   -520938.58940  27589836.84640
  -9463544.82500  23273471.68200  -7034976.72340  23273475.22140
  -9285812.07000  24139563.23600  -7147936.30640  24139567.38540
  23805084.38200  27802842.08800  18636360.34440  27802846.13140
  -5535691.46200  26359580.88500  -4219099.78940  26359585.30340
  19380079.52700  25589093.54900  15298389.82140  25589096.90040
  -6640218.36900  25774823.23600  -5086487.86040  25774827.50240
 96  9  9  5  9 30.0100000  0  9  3 10 16 18 19 22 27 29 31
  -2544918.55200  26334726.99400    341801.31740  26334730.73240
   -349774.91800  27713044.74400   -209416.31840  27713050.24040
   -802261.10800  27582033.95500   -552864.74640  27582038.99440
  -9422147.51400  23281349.34600  -7002719.08440  23281352.90840
  -9283778.66800  24139950.36900  -7146351.83040  24139954.42440
  23943689.20000  27829217.55700  18744364.13640  27829219.40840
  -5573610.43100  26352364.83000  -4248647.01340  26352368.81440
  19489827.49300  25609977.77500  15383907.69540  25609980.83440
  -6677883.64700  25767656.05700  -5115837.41340  25767660.06440
 96  9  9  5 10  0.0100000  0 10  2  3 10 16 18 19 22 27 29 31
    -47949.67310  27934653.01000
  -2519174.77000  26339625.58000    361861.42040  26339629.08440
   -387692.60200  27705829.89300   -238962.54840  27705837.39640
   -842832.84200  27574313.68200   -584479.07240  27574318.80340
  -9380279.90400  23289316.69700  -6970094.98240  23289320.28340
  -9281570.65500  24140370.43900  -7144631.29640  24140374.56440
  24082319.83900  27855597.81400  18852388.03840  27855601.27140
  -5611464.80700  26345161.50200  -4278143.91640  26345165.55740
  19599888.56900  25630921.90000  15469669.55640  25630925.60340
  -6715175.00800  25760559.83000  -5144895.61240  25760564.10740
 96  9  9  5 10 30.0100000  0 10  2  3 10 16 18 19 22 27 29 31
   -110376.60500  27922773.50200
  -2492913.60800  26344623.04100    382324.66840  26344627.28340
   -425211.36400  27698690.20500   -268197.93340  27698694.93940
   -882985.69600  27566673.40800   -615767.00140  27566677.62740
  -9337955.88600  23297370.74400  -6937115.24240  23297374.23640
  -9279186.28500  24140824.36900  -7142773.34140  24140828.47140
  24220962.38500  27881980.93200  18960421.18540  27881985.29140
  -5649271.05300  26337967.36100  -4307603.31040  26337971.13540
  19710256.62300  25651924.18900  15555670.63240  25651927.47140
  -6752102.91900  25753532.13500  -5173670.60440  25753535.89640
 96  9  9  5 11  0.0100000  0 10  2  3 10 16 18 19 22 27 29 31
   -172655.37700  27910922.44700     -9695.25750  27910927.72140
  -2466123.08700  26349721.20500    403200.41740  26349725.11940
   -462326.26400  27691627.88500   -297118.60240  27691634.88540
   -922698.36800  27559114.68200   -646711.90040  27559119.59240
  -9295130.70700  23305519.97100  -6903744.98340  23305523.48640
  -9276623.13700  24141311.93200  -7140776.07540  24141316.01040
  24359639.76200  27908371.05700  19068481.48940  27908373.61140
  -5687025.45900  26330782.99400  -4337022.29840  26330787.41240
  19820939.58900  25672986.68900  15641917.08440  25672990.11140
  -6788656.33200  25746576.56400  -5202153.76540  25746580.54940
 96  9  9  5 11 30.0100000  0 10  2  3 10 16 18 19 22 27 29 31
   -234809.46400  27899094.04900    -58126.95640  27899097.71740
  -2438825.62200  26354915.69700    424471.18340  26354919.88140
   -499039.34400  27684641.47800   -325726.16640  27684646.90440
   -961985.89900  27551640.18900   -677325.57640  27551645.32240
  -9251807.05700  23313764.18200  -6869986.29840  23313767.76840
  -9273895.16000  24141831.11100  -7138650.37840  24141835.20140
  24498336.72700  27934763.50200  19176557.03540  27934766.97140
  -5724740.58200  26323605.65800  -4366410.70140  26323609.76040
  19931919.02500  25694105.22800  15728394.54440  25694108.80340
  -6824859.65100  25739686.90000  -5230364.13840  25739690.86140
 96  9  9  5 12  0.0100000  0 10  2  3 10 16 18 19 22 27 29 31
   -296860.16200  27887286.15800   -106478.14040  27887291.80740
  -2411013.59500  26360208.22100    446142.89240  26360211.80740
   -535364.84500  27677728.76800   -354031.70840  27677734.53340
  -1000871.35600  27544240.11900   -707625.87740  27544243.43540
  -9207995.79800  23322101.22800  -6835847.65240  23322104.85040
  -9270989.12400  24142384.12700  -7136385.93140  24142388.18240
  24637048.55000  27961159.58800  19284644.15840  27961165.61140
  -5762417.94700  26316435.91600  -4395769.66040  26316439.70140
  20043188.83300  25715279.13500  15815098.27840  25715282.25240
  -6860709.70000  25732865.01800  -5258299.23140  25732869.15440
 96  9  9  5 12 30.0100000  0 10  2  3 10 16 18 19 22 27 29 31
   -358784.96900  27875502.76800   -154731.19540  27875507.61940
  -2382659.73700  26365603.97800    468236.81340  26365607.29540
   -571284.59600  27670892.40800   -382021.16640  27670898.37340
  -1039351.70900  27536917.03300   -737610.54540  27536921.73240
  -9163657.71800  23330538.37700  -6801298.50640  23330542.02140
  -9267886.16500  24142974.54100  -7133968.03840  24142978.59640
  24775775.41800  27987557.85300  19392743.10240  27987560.59640
  -5800032.14000  26309278.18200  -4425079.41240  26309282.31840
  20154773.54900  25736513.13500  15902047.38940  25736516.63940
  -6896184.38600  25726114.35300  -5285941.82340  25726118.68940
 96  9  9  5 13  0.0100000  0 10  2  3 10 16 18 19 22 27 29 31
   -420584.51700  27863742.83800   -202886.62340  27863749.34240
  -2353769.70700  26371101.21300    490748.55340  26371105.58440
   -606783.46000  27664138.22100   -409682.56840  27664140.68240
  -1077442.26600  27529669.75200   -767291.48840  27529674.35740
  -9118788.45000  23339076.72800  -6766335.45440  23339080.27940
  -9264586.15800  24143602.47100  -7131396.60440  24143606.46740
  24914508.43400  28013959.13500  19500846.70240  28013968.12740
  -5837567.01900  26302135.58000  -4454327.34440  26302139.74040
  20266673.79000  25757806.76800  15989242.37340  25757810.23640
  -6931286.77700  25719434.83000  -5313294.32240  25719438.94340
 96  9  9  5 13 30.0100000  0  9  2  3 10 16 18 19 27 29 31
   -482240.62500  27852009.54100   -250930.28640  27852015.68240
  -2324340.42400  26376701.65800    513680.45640  26376705.51440
   -641848.67000  27657465.16600   -437006.06940  27657469.65440
  -1115142.81200  27522494.65800   -796668.54140  27522498.66640
  -9073408.72800  23347712.15800  -6730974.63440  23347715.80340
  -9261084.36800  24144268.82200  -7128667.92940  24144272.88940
  -5875012.20600  26295010.08000  -4483505.39440  26295014.05340
  20378879.80600  25779159.15800  16076675.62240  25779162.46340
  -6966012.42400  25712827.04100  -5340353.24640  25712831.36540
 96  9  9  5 14  0.0100000  0  9  2  3 10 16 18 19 27 29 31
   -543736.75900  27840306.95500   -298849.33840  27840312.00640
  -2294365.23100  26382405.36900    537037.76640  26382409.49440
   -676492.27900  27650872.08000   -464001.10240  27650877.72840
  -1152462.86200  27515393.12700
  -9027531.03200  23356442.47800  -6695225.78840  23356446.07640
  -9257405.59000  24144968.92400  -7125801.34040  24144972.81440
  -5912383.45900  26287898.53300  -4512625.84340  26287903.12740
  20491372.38300  25800565.88500  16164332.15740  25800569.15440
  -7000361.92100  25706290.21300  -5367119.07840  25706293.98640
 96  9  9  5 14 30.0100000  0  9  2  3 10 16 18 19 27 29 31
   -605061.84600  27828637.36900   -346635.09240  27828642.22140
  -2263853.09500  26388211.82200    560813.45640  26388215.61940
   -710710.14900  27644360.37700   -490664.32140  27644364.72540
  -1189391.53700  27508365.53300    -12428.67150  27508371.29940
  -8981172.12200  23365264.46300  -6659101.96540  23365268.04940
  -9253562.84000  24145700.07200  -7122806.98740  24145703.98640
  -5949689.44000  26280799.38500  -4541695.43040  26280803.10040
  20604159.35400  25822028.57200  16252218.09240  25822032.02940
  -7034336.58100  25699825.38500  -5393592.82440  25699828.74840
 96  9  9  5 15  0.0100000  0  9  2  3 10 16 18 19 27 29 31
   -666216.00900  27816999.64300   -394287.64040  27817005.16240
  -2232809.12500  26394119.36900    585003.57440  26394123.61140
   -744490.86600  27637932.08800   -516986.96040  27637936.45940
  -1225914.23900  27501414.62700    -40887.92440  27501420.25240
  -8934358.23900  23374172.60300  -6622623.61740  23374176.27140
  -9249548.84400  24146464.08800  -7119679.19940  24146468.10740
  -5986932.90500  26273712.32200  -4570716.29440  26273716.41240
  20717231.70100  25843545.29900  16340326.39240  25843549.03740
  -7067933.82200  25693431.68900  -5419772.47940  25693435.47540
 96  9  9  5 15 30.0100000  0  9  2  3 10 16 18 19 27 29 31
   -727200.67900  27805395.52500   -441808.13240  27805401.31440
  -2201216.54800  26400131.07200    609621.16640  26400135.20940
   -777835.60500  27631587.77500   -542969.83940  27631591.70140
  -1262009.03000  27494546.65800    -69013.69740  27494551.59240
  -8887084.70300  23383168.58800  -6585787.08840  23383172.23240
  -9245351.97000  24147262.81400  -7116408.90340  24147266.67040
  -6024119.23100  26266635.87700  -4599692.63740  26266640.03740
  20830591.39600  25865117.08000  16428658.60540  25865120.43240
  -7101141.95900  25687112.46300  -5445648.93640  25687116.34240
 96  9  9  5 16  0.0100000  0  9  2  3 10 16 18 19 27 29 31
   -788033.31200  27793819.20500   -489210.15740  27793824.17440
  -2169072.68600  26406247.63500    634668.35240  26406251.50240
   -810740.04600  27625326.54900   -568609.65040  27625331.98640
  -1297666.06900  27487760.57200    -96798.38540  27487766.67840
  -8839339.43600  23392254.15800  -6548582.98140  23392257.75640
  -9240957.60200  24148098.86900  -7112984.71940  24148102.83040
  -6061242.35000  26259571.59600  -4628619.73640  26259576.37740
  20944244.79800  25886744.68200  16517219.69140  25886748.04540
  -7133961.11100  25680867.02500  -5471222.29740  25680870.60040
 96  9  9  5 16 30.0100000  0  9  2  3 10 16 18 19 27 29 31
   -848743.51700  27782266.53300   -536516.74540  27782272.69740
  -2136394.05000  26412466.41600    660132.22640  26412470.74040
   -843211.81500  27619145.45500
  -1332886.67800  27481058.81400   -124243.00940  27481063.52540
  -8791121.92700  23401429.77500  -6511010.89940  23401433.33840
  -9236359.34800  24148974.05700  -7109401.66340  24148977.99440
  -6098300.63800  26252519.63500  -4657496.31540  26252523.74840
  21058187.59500  25908427.07200  16606006.25440  25908430.37740
  -7166390.32600  25674695.96300  -5496491.80140  25674699.44340
 96  9  9  5 17  0.0100000  0  9  2  3 10 16 18 19 27 29 31
   -909339.70900  27770735.86900   -583734.53440  27770741.57640
  -2103183.26300  26418786.32200    686010.77440  26418790.31840
   -875257.45700  27613047.19700
  -1367678.44700  27474439.11900   -151353.42240  27474443.77140
  -8742423.98600  23410696.68900  -6473064.45240  23410700.27540
  -9231576.10300  24149884.18900  -7105674.45640  24149888.23240
  -6135299.40700  26245479.10300  -4686326.51440  26245483.25240
  21172388.76700  25930159.04900  16694994.16740  25930162.69340
  -7198429.79400  25668599.44700  -5521457.60240  25668602.89340
 96  9  9  5 17 30.0100000  0  9  2  3 10 16 18 19 27 29 31
   -969804.06900  27759229.19700   -630849.56440  27759233.21740
  -2069420.53200  26425211.18900    712319.40340  26425215.64340
   -906866.97000  27607034.13500
  -1402017.21600  27467904.85300   -178110.90440  27467910.39640
  -8693217.92300  23420060.01000  -6434722.06540  23420063.63140
  -9226599.82100  24150830.97100  -7101796.82740  24150835.01440
  -6172216.60700  26238454.02500  -4715093.15240  26238458.10340
  21286870.71700  25951943.91600  16784200.87640  25951947.42040
  -7230046.09000  25662582.56400  -5546093.66240  25662586.77140
 96  9  9  5 18  0.0100000  0  9  2  3 10 16 18 19 27 29 31
  -1030131.32200  27747749.20500   -677857.77340  27747754.18540
  -2035123.97700  26431737.47800    739043.99240  26431741.06440
   -938052.02700  27601100.04900
  -1435921.00300  27461452.75200   -204529.45240  27461458.64640
  -8643519.25200  23429517.48600  -6395995.83540  23429521.09640
  -9221450.42300  24151810.94700  -7097784.30740  24151815.07240
  -6209053.71600  26231444.15800  -4743797.36740  26231447.89640
  21401628.52300  25973782.09600  16873622.52640  25973785.36540
  -7261223.79300  25656649.92400  -5570387.97340  25656653.53340
 96  9  9  5 18 30.0100000  0  9  2  3 10 16 18 19 27 29 31
  -1090314.98600  27736295.75200   -724754.09740  27736300.43940
  -2000303.50500  26438363.22800    766176.84340  26438367.54140
   -968831.40700  27595242.40000
  -1469398.41400  27455082.19700   -230615.70140  27455086.97840
  -8593349.60700  23439064.60300  -6356902.61040  23439068.15440
  -9216143.90600  24152820.72800  -7093649.35540  24152824.73640
  -6245828.77300  26224445.99400  -4772453.24340  26224450.11940
  21516656.91100  25995670.97100  16963255.02640  25995674.33440
  -7291958.55300  25650801.32200  -5594337.13440  25650804.97840
 96  9  9  5 19  0.0100000  0  9  2  3 10 16 18 19 27 29 31
  -1150323.36100  27724877.72100   -771513.82840  27724882.30340
  -1964938.37000  26445093.23600    793734.09340  26445097.09240
   -999178.17400  27589467.16600
  -1502424.62100  27448796.72800   -256350.37340  27448801.29940
  -8542711.69600  23448700.72100  -6317444.49540  23448704.27140
  -9210652.20600  24153865.83800  -7089370.10440  24153869.77540
  -6282509.69600  26217465.47800  -4801035.77840  26217469.02940
  21631973.45100  26017615.34600  17053112.05040  26017618.76840
  -7322238.42100  25645039.33000  -5617931.82040  25645043.67840
 96  9  9  5 19 30.0100000  0  9  2  3 10 16 18 19 27 29 31
  -1210170.58600  27713488.97800   -818147.97640  27713493.76040
  -1929049.95900  26451922.58800    821699.10340  26451926.38540
  -1029101.40200  27583772.63500    -15507.27250  27583775.24840
  -1535008.36000  27442596.55700   -281740.31540  27442602.12340
  -8491617.27300  23458423.55700  -6277630.66940  23458427.13140
  -9204968.21400  24154947.59600  -7084941.02040  24154951.45140
  -6319092.34100  26210504.29900  -4829541.71940  26210507.81440
  21747585.28500  26039615.04900  17143199.17540  26039618.37740
  -7352073.84000  25639361.43200  -5641180.19240  25639365.53340
 96  9  9  5 20  0.0100000  0  9  2  3 10 16 18 19 27 29 31
  -1269852.43100  27702131.86900   -864653.27940  27702136.83840
  -1892640.55900  26458850.94700    850070.07140  26458854.89640
  -1058586.37300  27578161.75200    -38482.59540  27578171.06040
  -1567153.51100  27436478.95500   -306788.47740  27436483.33840
  -8440050.67100  23468236.29100  -6237448.90940  23468239.83040
  -9199095.28800  24156065.15000  -7080364.70740  24156069.00640
  -6355572.43700  26203562.25200  -4857967.75740  26203566.15440
  21863493.32700  26061671.59600  17233517.12640  26061675.34640
  -7381485.84000  25633764.95500  -5664098.62340  25633768.71740
 96  9  9  5 20 30.0110000  0  9  2  3 10 16 18 19 27 29 31
  -1329367.45900  27690806.24100   -911028.59040  27690811.60840
  -1855690.90000  26465882.37400    878862.00840  26465886.13640
  -1087615.63600  27572639.06900
  -1598848.13700  27430448.39700   -331485.53040  27430454.11640
  -8387992.69000  23478142.65500  -6196884.25640  23478146.25340
  -9193030.66300  24157219.16300  -7075639.02240  24157223.15940
  -6391945.75100  26196640.46000  -4886310.58240  26196644.46840
  21979708.83200  26083787.21000  17324074.63740  26083791.27640
  -7410502.24500  25628242.85800  -5686708.78940  25628246.28040
 96  9  9  5 21  0.0110000  0  9  2  3 10 16 18 19 27 29 31
  -1388706.10500  27679514.93600   -957266.45740  27679520.16340
  -1818199.66000  26473016.91300    908075.97240  26473020.60440
  -1116174.74600  27567203.93600
  -1630085.07200  27424504.09300   -355825.97540  27424508.86240
  -8335418.08200  23488147.19400  -6155917.03440  23488150.76840
  -9186773.87700  24158409.83500  -7070763.60540  24158413.73740
  -6428205.98500  26189740.49900  -4914565.29740  26189744.64740
  22096231.89500  26105960.73300  17414871.81340  26105963.74540
  -7439115.61400  25622798.30400  -5709004.91540  25622802.12440
 96  9  9  5 21 30.0110000  0  9  2  3 10 16 18 19 27 29 31
  -1447895.99300  27668251.17900  -1003388.40540  27668256.64040
  -1780177.97800  26480252.10100    937703.25440  26480255.62840
  -1144282.99700  27561854.44400    -17494.10250  27561861.26540
  -1660888.47700  27418642.49900   -379828.61540  27418646.34340
  -8282317.11100  23498252.23300  -6114539.66140  23498255.86640
  -9180359.64700  24159630.15500  -7065765.49940  24159634.15140
  -6464403.18300  26182852.27200  -4942770.88640  26182856.30440
  22213047.30700  26128189.66300  17505896.78840  26128193.61240
  -7467332.97800  25617428.40500  -5730992.45840  25617432.74140
 96  9  9  5 22  0.0110000  0  9  2  3 10 16 18 19 27 29 31
  -1506934.53600  27657016.08500  -1049392.43040  27657020.64340
  -1741604.79600  26487591.93600    967760.30240  26487596.26140
  -1171931.77300  27556592.40500    -39038.56740  27556598.33540
  -1691256.13700  27412863.48300   -403491.70040  27412869.92940
  -8228684.89100  23508458.06900  -6072748.33140  23508461.70240
  -9173783.98400  24160881.45200  -7060641.60640  24160885.35440
  -6500563.79000  26175971.43600  -4970947.97040  26175975.53840
  22330145.86800  26150472.88200  17597142.40140  26150476.67940
  -7495147.89800  25612135.74900  -5752666.41240  25612139.82740
 96  9  9  5 22 30.0110000  0  9  2  3 10 16 18 19 27 29 31
  -1565817.15700  27645811.42100  -1095274.96840  27645817.50340
  -1702453.65900  26495042.35800    998267.68040  26495046.68340
  -1199119.28500  27551420.01500    -60223.64840  27551424.03440
  -1721178.17000  27407169.59300   -426807.56540  27407174.17540
  -8174527.10700  23518763.81900  -6030547.46840  23518767.45240
  -9167018.11300  24162169.02200  -7055369.49640  24162173.11240
  -6536691.83700  26169096.37400  -4999099.67640  26169100.58140
  22447534.63700  26172811.08500  17688614.15640  26172814.61240
  -7522519.88700  25606926.76500  -5773995.22640  25606930.57340
 96  9  9  5 23  0.0110000  0  9  2  3 10 16 18 19 27 29 31
  -1624584.40400  27634627.94400  -1141067.57940  27634632.49140
  -1662765.80400  26502594.78000   1029193.30140  26502598.68340
  -1225884.06400  27546325.78800    -81079.25540  27546328.96440
  -1750692.21600  27401553.06100   -449805.50040  27401558.94440
  -8119884.05600  23529161.96000  -5987968.46840  23529165.62840
  -9160088.93500  24163487.85800  -7049970.13440  24163491.84340
  -6572833.07000  26162218.85800  -5027261.66140  26162222.89040
  22565162.44400  26195194.99100  17780272.17340  26195198.97640
  -7549461.80200  25601799.79600  -5794988.91540  25601803.53440
 96  9  9  5 23 30.0110000  0  9  2  3 10 16 18 19 27 29 31
  -1683200.24400  27623474.34300  -1186742.22440  27623479.22940
  -1622498.52700  26510257.33500   1060570.40540  26510261.22640
  -1252185.23400  27541321.37400   -101573.63440  27541327.01140
  -1779753.72100  27396023.41300   -472450.80940  27396026.60140
  -8064733.80700  23539656.74900  -5944994.25340  23539660.34740
  -9152953.78800  24164845.47600  -7044410.27840  24164849.48340
  -6608938.28100  26155348.26500  -5055395.57840  26155352.29640
  22683057.77300  26217629.70200  17872138.63940  26217633.18340
  -7575941.72000  25596760.80400  -5815622.59440  25596764.61240
 96  9  9  5 24  0.0110000  0  9  2  3 10 16 18 19 27 29 31
  -1741655.39300  27612350.36600  -1232291.66940  27612355.75740
  -1581673.83200  26518026.37400   1092381.85440  26518030.34740
  -1278036.10900  27536401.69400   -121717.19240  27536407.47240
  -1808369.95000  27390577.55400   -494749.14340  27390582.93340
  -8009097.63100  23550244.03000  -5901641.39740  23550247.62840
  -9145606.91300  24166243.35800  -7038685.44140  24166247.48340
  -6644992.06500  26148487.39700  -5083489.42940  26148491.28840
  22801218.21100  26240115.09300  17964211.69140  26240119.07740
  -7601977.63000  25591806.53800  -5835910.30940  25591810.32340
 96  9  9  5 24 30.0110000  0  9  2  3 10 16 18 19 27 29 31
  -1799934.84400  27601260.17100  -1277704.18840  27601265.32740
  -1540305.43800  26525898.22600   1124616.97740  26525901.36640
  -1303432.78200  27531568.71800   -141506.79040  27531574.29640
  -1836524.07800  27385219.74100   -516687.42740  27385224.99140
  -7952975.60900  23560923.75700  -5857909.94640  23560927.44840
  -9138051.97400  24167681.25700  -7032798.46940  24167685.32340
  -6680955.48700  26141643.87400  -5111512.86440  26141648.09340
  22919647.73700  26262651.52200  18056494.42940  26262654.97940
  -7627567.88400  25586936.87400  -5855850.75240  25586940.49540
 96  9  9  5 25  0.0110000  0  9  2  3 10 16 18 19 27 29 31
  -1858025.39300  27590205.90500  -1322969.52240  27590211.40140
  -1498422.45900  26533868.42100   1157253.08340  26533872.76840
  -1328365.31500  27526824.46800   -160934.71640  27526828.93340
  -1864212.99300  27379951.51500   -538263.16340  27379955.92140
  -7896362.22900  23571696.81900  -5813795.62640  23571700.45240
  -9130300.16600  24169156.38200  -7026758.09840  24169160.39040
  -6716808.32300  26134821.47600  -5139450.12640  26134825.65940
  23038339.05300  26285237.81900  18148981.14540  26285241.35840
  -7652723.03000  25582149.74900  -5875452.14340  25582153.73340
 96  9  9  5 25 30.0110000  0  9  2  3 10 16 18 19 27 29 31
  -1915933.97100  27579186.52200  -1368093.05440  27579191.59740
  -1456040.92300  26541933.23300   1190277.65240  26541936.92540
  -1352833.70700  27522168.99100   -180000.93540  27522172.28440
  -1891448.00000  27374768.08500   -559485.23740  27374771.71840
  -7839268.03600  23582561.62400  -5769306.64140  23582565.21040
  -9122363.78200  24170666.42900  -7020573.89740  24170670.42540
  -6752550.39000  26128019.79600  -5167301.08140  26128023.94440
  23157290.45200  26307873.50700  18241670.53440  26307877.51540
  -7677452.27900  25577443.99900  -5894721.68140  25577447.38640
 96  9  9  5 26  0.0110000  0  9  2  3 10 16 18 19 27 29 31
  -1973657.47500  27568201.38200  -1413072.38340  27568206.38640
  -1413157.17600  26550093.63200   1223693.55740  26550097.28840
  -1376827.59300  27517602.99900   -198697.45740  27517607.75740
  -1918228.60000  27369671.89000   -580353.21640  27369675.78040
  -7781681.79300  23593519.79600  -5724434.25040  23593523.39340
  -9114243.88200  24172211.62400  -7014246.69840  24172215.56140
  -6788182.27400  26121239.33500  -5195066.17840  26121243.51840
  23276511.71700  26330560.73300  18334570.19840  26330564.58940
  -7701742.12200  25572821.59300  -5913648.81440  25572825.23740
 96  9  9  5 26 30.0110000  0  9  2  3 10 16 18 19 27 29 31
  -2031206.53000  27557250.42100  -1457915.76540  27557254.56940
  -1369757.94000  26558352.57700   1257511.14540  26558356.32740
  -1400340.31500  27513128.29600   -217019.08040  27513133.88640
  -1944557.46100  27364661.82700   -600869.20240  27364666.30440
  -7723609.46500  23604570.66300  -5679183.10140  23604574.27240
  -9105954.43500  24173789.06100  -7007787.38440  24173793.03440
  -6823719.86100  26114476.75700  -5222757.78840  26114480.70640
  23395992.82000  26353296.74100  18427672.34640  26353300.28040
  -7725593.76800  25568282.86600  -5932234.50140  25568286.52240
 96  9  9  5 27  0.0110000  0  9  2  3 10 16 18 19 27 29 31
  -2088588.57700  27546331.53000  -1502629.02040  27546336.31140
  -1325829.62400  26566711.82700   1291741.02040  26566715.75340
  -1423371.32700  27508745.41300   -234965.28240  27508750.66340
  -1970448.29500  27359735.56100   -621043.84240  27359739.92140
  -7665050.39000  23615713.99900  -5633552.65940  23615717.58540
  -9097492.12200  24175399.57700  -7001193.36740  24175403.59740
  -6859186.92200  26107727.67900  -5250394.44840  26107731.86240
  23515738.92300  26376083.85100  18520980.98340  26376087.63640
  -7749008.13100  25563827.46800  -5950479.44040  25563831.51140
 96  9  9  5 27 30.0110000  0  9  2  3 10 16 18 19 27 29 31
  -2145816.25500  27535440.89700  -1547221.98440  27535445.44440
  -1281356.26500  26575174.56900   1326395.59140  26575178.31940
  -1445929.64100  27504453.18600   -252543.17540  27504458.16740
  -1995899.81900  27354891.31100   -640876.16240  27354897.05440
  -7606006.06100  23626949.83500  -5587544.10340  23626953.45640
  -9088853.30000  24177043.33500  -6994461.81340  24177047.13240
  -6894603.09000  26100988.22600  -5277991.45440  26100992.26840
  23635750.30700  26398921.38200  18614496.34140  26398924.74540
  -7771983.99200  25559455.30400  -5968382.69540  25559459.41740
 96  9  9  5 28  0.0110000  0  9  2  3 10 16 18 19 27 29 31
  -2202864.70900  27524585.28000  -1591675.31640  27524590.56540
  -1236309.52600  26583746.46000   1361496.95340  26583750.16340
  -1468003.16400  27500252.16300   -269743.31440  27500257.90540
  -2020878.25800  27350138.80400   -660339.89240  27350143.19840
  -7546455.40500  23638281.99100  -5541140.99940  23638285.62440
  -9080012.44800  24178725.73300  -6987572.83440  24178729.78840
  -6929955.43100  26094260.71800  -5305538.72440  26094264.73740
  23756039.87600  26421811.69400  18708228.45140  26421814.08540
  -7794500.61900  25555170.34300  -5985928.10940  25555174.37440
 96  9  9  5 28 30.0110000  0  9  2  3 10 16 18 19 27 29 31
  -2259763.12400  27513757.76500  -1636011.69740  27513762.54640
  -1190720.90700  26592421.77200   1397020.54740  26592425.87440
  -1489632.95600  27496135.51500   -286597.67940  27496139.88640
  -2045407.28500  27345470.53000   -679453.38640  27345474.90140
  -7486440.75900  23649702.32700  -5494376.35240  23649705.96040
  -9071002.57200  24180440.12400  -6980552.15040  24180444.12040
  -6965283.81600  26087537.86600  -5333067.33340  26087542.16740
  23876556.08700  26444745.27200  18802137.16740  26444748.69440
  -7816573.04000  25550970.28800  -6003127.38340  25550974.24940
 96  9  9  5 29  0.0110000  0  9  2  3 10 16 18 19 27 29 31
  -2316497.35100  27502961.36600  -1680220.17240  27502966.81540
  -1144585.12800  26601201.33500   1432970.51140  26601205.01540
  -1510814.13200  27492105.28800   -303102.46940  27492109.84740
  -2069454.03100  27340894.99900   -698191.11440  27340900.39040
  -7425950.19500  23661213.33500  -5447240.86140  23661216.97940
  -9061816.13400  24182188.39000  -6973393.88140  24182192.19840
  -7000567.57300  26080823.55400  -5360561.15640  26080827.78440
  23997306.51300  26467723.03800  18896228.40440  26467726.57740
  -7838161.79400  25546861.94400  -6019949.78040  25546865.88240
 96  9  9  5 29 30.0110000  0  9  2  3 10 16 18 19 27 29 31
  -2373038.49100  27492202.29600  -1724278.16940  27492207.07740
  -1097890.57400  26610086.78000   1469355.89240  26610090.13240
  -1531536.98800  27488163.17100   -319250.12340  27488168.40940
  -2092991.93700  27336415.59300   -716532.31340  27336420.11640
  -7364972.61200  23672817.00700  -5399725.87140  23672820.55840
  -9052443.02000  24183971.90500  -6966090.15240  24183975.81940
  -7035791.54200  26074120.56100  -5388008.38840  26074124.53440
  24118304.71800  26490748.75700  18990512.70540  26490752.67140
  -7859235.98100  25542851.51500  -6036371.20740  25542855.24140
 96  9  9  5 30  0.0110000  0  9  2  3 10 16 18 19 27 29 31
  -2429370.91000  27481481.97600  -1768173.55040  27481487.10840
  -1050634.14000  26619079.81100   1506179.09340  26619083.36240
  -1551800.45900  27484306.23300   -335039.81640  27484310.52240
  -2116017.63400  27332033.82700   -734474.38840  27332037.65940
  -7303511.28300  23684512.84300  -5351833.93140  23684516.51140
  -9042892.15900  24185789.52200  -6958647.92340  24185793.50740
  -7070947.08600  26067430.94400  -5415402.31040  26067434.75340
  24239562.83100  26513823.41300  19084999.52040  26513827.32740
  -7879797.46300  25538939.11600  -6052393.13340  25538942.69040
 96  9  9  5 30 30.0110000  0  9  2  3 10 16 18 19 27 29 31
  -2485500.72800  27470801.35800  -1811911.02240  27470805.05040
  -1002829.32300  26628176.14000   1543429.60240  26628180.05440
  -1571610.54500  27480536.89000   -350476.23740  27480541.54240
  -2138541.10700  27327748.42100   -752025.14340  27327752.46440
  -7241576.91500  23696298.44400  -5303573.40140  23696302.06540
  -9033183.30300  24187637.20200  -6951082.58140  24187641.11640
  -7106031.32500  26060754.92100  -5442740.66040  26060759.14040
  24361078.18000  26536946.79600  19179686.79040  26536950.93340
  -7899864.97700  25535120.27200  -6068030.14040  25535124.08140
 96  9  9  5 31  0.0110000  0  9  2  3 10 16 18 19 27 29 31
  -2541419.68500  27460160.23300  -1855484.23540  27460165.24940
   -954480.88600  26637376.62400   1581103.70040  26637380.47940
  -1590962.09300  27476853.64000   -365555.33440  27476859.17140
  -2160577.13300  27323554.61600   -769196.04640  27323558.56540
  -7179162.35800  23708175.59300  -5254938.68840  23708179.19040
  -9023309.40900  24189515.85800  -6943388.63640  24189519.76140
  -7141034.74300  26054093.74100  -5470016.04540  26054098.21840
  24482867.82200  26560123.01500  19274587.80140  26560126.61240
  -7919463.84900  25531390.88200  -6083301.97640  25531394.74940
 96  9  9  5 31 30.0110000  0  9  2  3 10 16 18 19 27 29 31
  -2597128.82900  27449559.18600  -1898893.92640  27449563.85140
   -905590.66800  26646680.01500   1619199.99040  26646684.28040
  -1609846.97200  27473260.48300   -380270.82440  27473264.23340
  -2182141.87900  27319451.26500   -785999.73440  27319455.36640
  -7116257.96500  23720145.96800  -5205922.29140  23720149.56540
  -9013256.41200  24191428.79600  -6935555.12840  24191433.00340
  -7175960.84500  26047447.31900  -5497231.18340  26047451.30440
  24604936.94400  26583351.46800  19369706.56740  26583355.58140
  -7938623.63500  25527744.79600  -6098231.67240  25527748.25340
 96  9  9  5 32  0.0110000  0  9  2  3 10 16 18 19 27 29 31
  -2652625.04900  27438998.07700  -1942137.71540  27439002.13240
   -856149.69500  26656088.89000   1657725.41540  26656092.52240
  -1628241.01900  27469759.71800   -394603.80640  27469764.99140
  -2203226.57500  27315438.99900   -802429.36640  27315443.47640
  -7052843.35000  23732213.31900  -5156508.31340  23732216.91740
  -9003005.56300  24193379.44400  -6927567.45140  24193383.35840
  -7210780.18500  26040821.52200  -5524363.12840  26040825.47240
  24727284.59300  26606633.49100  19465042.38240  26606636.76140
  -7957331.93300  25524184.53000  -6112809.55140  25524188.37440
 96  9  9  5 32 30.0110000  0  9  2  3 10 16 18 19 27 29 31
  -2707935.40000  27428473.01500  -1985236.68440  27428477.84340
   -806180.34200  26665597.71000   1696662.58340  26665601.48340
  -1646148.65000  27466353.43600   -408557.78640  27466358.96840
  -2223851.99100  27311513.72600   -818501.09840  27311518.48340
  -6988932.11800  23744375.08500  -5106707.35340  23744378.69440
  -8992572.10300  24195364.86600  -6919437.48340  24195368.78040
  -7245517.09100  26034211.39700  -5551430.83340  26034214.83140
  24849870.70900  26629960.82700  19560564.01640  26629964.28440
  -7975587.88500  25520710.85100  -6127034.95940  25520714.47240
 96  9  9  5 33  0.0110000  0  9  2  3 10 16 18 19 27 29 31
  -2763067.97900  27417981.39700  -2028197.12240  27417986.72940
   -755679.04600  26675207.49900   1736014.25240  26675211.24940
  -1663551.36300  27463041.07700   -422118.34840  27463046.66740
  -2244015.71900  27307676.52200   -834213.09240  27307681.86640
  -6924505.71600  23756635.13200  -5056504.97440  23756638.80040
  -8981939.91000  24197388.07700  -6911152.65940  24197392.09740
  -7280179.86900  26027614.98300  -5578440.78840  26027618.53440
  24972699.30900  26653334.49900  19656274.59040  26653338.23740
  -7993362.00400  25517328.56100  -6140884.91540  25517332.42940
 96  9  9  5 33 30.0110000  0  9  2  3 10 16 18 19 27 29 31
  -2818048.59100  27407519.27200  -2071039.14040  27407524.34740
   -704651.19500  26684917.82700   1775776.20240  26684921.58940
  -1680437.97200  27459826.80400   -435276.72840  27459831.52640
  -2263713.60800  27303929.06100   -849562.09640  27303933.33940
  -6859572.07500  23768991.50700  -5005907.33240  23768995.21040
  -8971116.96200  24199447.91300  -6902719.19140  24199451.90940
  -7314783.95100  26021030.12400  -5605404.99440  26021034.27240
  25095751.29100  26676750.74900  19752159.23940  26676753.35140
  -8010638.55300  25514040.49900  -6154347.14640  25514044.71840
 96  9  9  5 34  0.0110000  0  9  2  3 10 16 18 19 27 29 31
  -2872895.22500  27397082.46000  -2113776.75540  27397087.53440
   -653101.29100  26694727.33500   1815944.96240  26694731.08540
  -1696805.96800  27456712.66300   -448030.99540  27456717.44440
  -2282946.64400  27300268.39000   -864548.86340  27300273.68640
  -6794140.63500  23781442.73300  -4954921.80640  23781446.49540
  -8960111.10000  24201542.03000  -6894143.19140  24201546.03840
  -7349338.13500  26014454.54600  -5632330.32140  26014458.33140
  25219015.30700  26700207.06100  19848209.10240  26700210.82340
  -8027402.63100  25510850.53800  -6167410.05440  25510853.98340
 96  9  9  5 34 30.0110000  0  9  2  3 10 16 18 19 27 29 31
  -2927589.09100  27386674.67100  -2156395.35440  27386680.02640
   -601010.37100  26704639.91300   1856535.29740  26704643.74540
  -1712631.07000  27453700.75700   -460362.22440  27453705.32740
  -2301688.51500  27296702.17100   -879152.90940  27296706.34340
  -6728193.00600  23793992.04600  -4903534.04540  23793995.78440
  -8948899.79200  24203675.42900  -6885407.10740  24203679.49540
  -7383832.24800  26007890.78000  -5659208.84240  26007894.65940
  25342531.00700  26723711.08500  19944455.08940  26723713.47640
  -8043642.30200  25507760.38200  -6180064.32740  25507764.05040
 96  9  9  5 35  0.0110000  0  9  2  3 10 16 18 19 27 29 31
  -2982127.99500  27376296.19400  -2198893.16640  27376301.38640
   -548379.36200  26714655.48300   1897546.48540  26714658.28440
  -1727929.94500  27450789.54600   -472283.43140  27450795.87440
  -2319938.04200  27293229.46000   -893373.31540  27293232.83540
  -6661731.11800  23806639.43600  -4851745.57740  23806643.15140
  -8937478.73100  24205848.96000  -6876507.58140  24205853.13240
  -7418254.40100  26001340.57700  -5686031.29440  26001344.45640
  25466310.20200  26747265.58500  20040906.38440  26747269.00740
  -8059368.89400  25504767.55400  -6192318.79940  25504770.95240
 96  9  9  5 35 30.0110000  0  9  2  3 10 16 18 19 27 29 31
  -3036496.52800  27365949.76500  -2241258.23340  27365955.06140
   -495217.44300  26724771.92900   1938971.35940  26724776.15940
  -1742725.19700  27447974.42100   -483812.19540  27447978.58140
  -2337696.54000  27289850.73300   -907211.12740  27289854.57740
  -6594770.29700  23819381.76500  -4799568.33340  23819385.47940
  -8925858.37600  24208060.25700  -6867452.76040  24208064.13640
  -7452594.29400  25994805.87400  -5712789.63740  25994809.64740
  25590344.67300  26770868.71800  20137556.62140  26770872.04640
  -8074583.58600  25501872.12400  -6204174.39140  25501875.64040
 96  9  9  5 36  0.0110000  0  9  2  3 10 16 18 19 27 29 31
  -3090678.11100  27355639.53800  -2283477.63240  27355644.84740
   -441531.90400  26734987.86600   1980804.25140  26734992.01540
  -1757047.90100  27445248.38200   -494972.73240  27445252.63640
  -2354962.92700  27286564.36600   -920665.44040  27286569.95640
  -6527317.37300  23832217.65500  -4747007.62940  23832221.37040
  -8914052.21400  24210306.77200  -6858253.15540  24210310.72240
  -7486841.60600  25988288.78800  -5739475.84240  25988292.94840
  25714640.38400  26794521.14700  20234410.38540  26794524.62840
  -8089285.61000  25499074.67900  -6215630.49240  25499078.27640
 96  9  9  5 36 30.0110000  0  9  2  3 10 16 18 19 27 29 31
  -3144646.43700  27345369.79600  -2325530.87040  27345374.90540
   -387317.90800  26745304.60100   2023048.93840  26745308.57340
  -1770903.50100  27442611.77200   -505769.29140  27442616.12040
  -2371735.08700  27283372.50700   -933734.66240  27283378.27240
  -6459377.11400  23845146.14700  -4694067.18040  23845149.86240
  -8902068.33500  24212587.28000  -6848915.05840  24212591.24140
  -7520977.05800  25981792.75700  -5766074.88040  25981796.53040
  25839196.91600  26818223.31900  20331467.40140  26818226.64740
  -8103464.75900  25496376.38200  -6226679.17440  25496380.27240
 96  9  9  5 37  0.0110000  0  9  2  3 10 16 18 19 27 29 31
  -3198396.77200  27335141.14000  -2367414.21740  27335146.47240
   -332574.77600  26755721.51500   2065705.92340  26755725.07740
  -1784304.73800  27440062.55400   -516211.82440  27440069.06940
  -2388019.93900  27280273.64000   -946424.14440  27280277.47240
  -6390957.73800  23858165.88200  -4640753.39340  23858169.55040
  -8889915.90200  24214899.76500  -6839445.62540  24214903.74940
  -7555000.80800  25975318.32700  -5792586.88740  25975322.69840
  25963984.02400  26841969.89700  20428704.09840  26841973.82340
  -8117104.96400  25493780.65500  -6237307.88040  25493784.31140
 96  9  9  5 37 30.0110000  0  9  2  3 10 16 18 19 27 29 31
  -3251926.54500  27324954.80400  -2409125.73240  27324959.51540
   -277299.74000  26766240.03000   2108777.38440  26766243.86240
  -1797238.36300  27437600.89700   -526289.94840  27437605.80840
  -2403821.12400  27277266.21000   -958736.77840  27277271.77640
  -6322062.24700  23871276.39700  -4587068.60540  23871280.08940
  -8877590.89100  24217245.08500  -6829841.72440  24217249.08140
  -7588926.61100  25968862.71000  -5819022.56940  25968866.53040
  26088989.37900  26865757.83500  20526110.84640  26865761.22240
  -8130208.65700  25491287.00700  -6247518.53840  25491290.87440
 96  9  9  5 38  0.0110000  0  9  2  3 10 16 18 19 27 29 31
  -3305233.00500  27314810.88200  -2450663.23740  27314815.90940
   -221469.88500  26776864.10100   2152281.17340  26776867.35840
  -1809685.07000  27435232.74900   -535988.68740  27435236.00740
  -2419140.99200  27274351.61600   -970674.34040  27274355.44840
  -6252676.14600  23884480.20200  -4533001.52340  23884483.90540
  -8865086.70900  24219624.48300  -6820098.20040  24219628.36240
  -7622764.21400  25962423.36600  -5845389.52540  25962427.32740
  26214212.06000  26889586.69400  20623686.95340  26889590.14040
  -8142789.22800  25488893.02200  -6257321.56140  25488896.79640
 96  9  9  5 38 30.0110000  0  9  2  3 10 16 18 19 27 29 31
  -3358328.80000  27304707.16300  -2492036.56840  27304713.63240
   -165081.15800  26787594.42900   2196220.45440  26787598.69440
  -1821632.26700  27432958.38200   -545298.19840  27432963.46840
  -2433982.73600  27271526.94400   -982239.31940  27271531.36240
  -6182801.85100  23897776.90500  -4478554.02340  23897780.50340
  -8852387.87400  24222041.21000  -6810203.00340  24222045.28840
  -7656531.46400  25955997.73300  -5871701.65740  25956001.48340
  26339628.62900  26913452.64700  20721414.13540  26913455.47240
  -8154861.40100  25486596.17100  -6266728.42940  25486599.82740
 96  9  9  5 39  0.0110000  0  9  2  3 10 16 18 19 27 29 31
  -3411219.25500  27294642.67900  -2533249.88940  27294647.09740
   -108125.99500  26798432.31100   2240601.08740  26798436.03840
  -1833081.73600  27430779.93600   -554219.88540  27430785.40940
  -2448336.02500  27268795.42100   -993423.71840  27268800.81140
  -6112426.54000  23911168.61600  -4423716.11640  23911172.24940
  -8839481.32800  24224497.19400  -6800145.94740  24224501.22640
  -7690240.63200  25949583.40500  -5897968.52340  25949587.27240
  26465247.91300  26937357.38200  20819299.27340  26937361.23740
  -8166434.04500  25484393.47600  -6275746.05840  25484397.13240
 96  9  9  5 39 30.0110000  0  9  2  3 10 16 18 19 27 29 31
  -3463891.08500  27284619.81100  -2574292.87440  27284624.86240
    -50588.11100  26809381.72600   2285435.82240  26809386.47240
  -1844014.53800  27428699.92900   -562738.93540  27428703.49140
  -2462174.52600  27266162.18600  -1004206.97040  27266166.49940
  -6041529.54500  23924660.19400  -4368471.71240  23924663.85140
  -8826356.86600  24226994.64700  -6789919.09140  24226998.57340
  -7723876.00100  25943182.46000  -5924177.88840  25943186.42140
  26591108.48300  26961307.99900  20917372.40540  26961311.39740
  -8177501.22200  25482287.96800  -6284369.82740  25482291.55440
 96  9  9  5 40  0.0110000  0  9  2  3 10 16 18 19 27 29 31
  -3516376.44200  27274631.71800  -2615190.54440  27274636.15940
      7503.63900  26820436.65500   2330702.12340  26820440.40540
  -1854461.17600  27426711.89000   -570879.18640  27426715.49940
  -2475504.69800  27263626.36600  -1014594.11440  27263630.86640
  -5970147.26200  23938243.74100  -4312849.16640  23938247.43340
  -8813045.03700  24229527.78800  -6779546.23640  24229531.79640
  -7757446.72100  25936794.28800  -5950336.87940  25936798.23740
  26717189.70700  26985300.45200  21015617.51240  26985304.49540
  -8188080.87200  25480274.64000  -6292613.69140  25480278.41340
 96  9  9  5 40 30.0110000  0  9  2  3 10 16 18 19 27 29 31
  -3568665.09800  27264681.60800  -2655934.92340  27264686.99940
     66144.97000  26831595.15500   2376396.67640  26831599.91340
  -1864422.91200  27424815.86600   -578641.60340  27424823.11240
  -2488295.36700  27261191.89700  -1024560.85940  27261197.72240
  -5898277.75600  23951919.90500  -4256846.96040  23951923.57340
  -8799530.56400  24232099.57700  -6769015.47540  24232103.58540
  -7790932.74500  25930421.81100  -5976429.86240  25930425.35140
  26843507.73200  27009337.65500  21114047.11640  27009341.82740
  -8198145.92600  25478359.00700  -6300456.57340  25478362.73340
 96  9  9  5 41  0.0110000  0  9  2  3 10 16 18 19 27 29 31
  -3620756.32400  27254768.76500  -2696525.47540  27254772.97240
    125313.84700  26842855.07700   2422502.31040  26842858.39340
  -1873904.72900  27423012.10100   -586030.02540  27423010.61240
  -2500553.85900  27258859.08500  -1034112.93740  27258864.06540
  -5825927.05900  23965687.68600  -4200469.80740  23965691.42540
  -8785836.66500  24234705.38200  -6758344.90140  24234709.28440
  -7824343.22100  25924064.31900  -6002463.99740  25924068.44440
  26970072.42200  27033422.03000  21212668.94340  27033426.69440
  -8207702.40000  25476540.41300  -6307903.16740  25476544.32740
 96  9  9  5 41 30.0110000  0  9  2  3 10 16 18 19 27 29 31
  -3672656.47900  27244892.49900  -2736967.14040  27244897.33940
    184986.32600  26854210.11600   2469000.34040  26854214.17140
  -1882894.21100  27421301.65500
  -2512288.93900  27256625.78000  -1043257.17440  27256629.65940
  -5753120.38000  23979542.61600  -4143737.34840  23979546.30840
  -8771960.60100  24237346.21800  -6747532.38240  24237350.22640
  -7857685.19100  25917719.49100  -6028444.74440  25917723.11240
  27096872.38600  27057551.49100  21311474.09840  27057555.65140
  -8216753.72800  25474817.67100  -6314956.13340  25474821.10440
 96  9  9  5 42  0.0110000  0  9  2  3 10 16 18 19 27 29 31
  -3724349.99600  27235055.65500  -2777247.78240  27235060.75340
    245164.02500  26865661.49900   2515892.06240  26865665.26140
  -1891373.22300  27419687.20200     -1505.90550  27419695.79640
  -2523501.24000  27254492.09300  -1051994.04540  27254496.82740
  -5679851.04600  23993485.03800  -4086644.37040  23993488.63640
  -8757881.33100  24240025.02200  -6736561.52040  24240028.83140
  -7890955.57200  25911388.17900  -6054369.70940  25911391.89340
  27223899.54300  27081723.68600  21410456.26040  27081727.22640
  -8225291.68900  25473193.51500  -6321609.07740  25473197.21840
 96  9  9  5 42 30.0110000  0  9  2  3 10 16 18 19 27 29 31
  -3775827.95500  27225259.67900  -2817360.46440  27225265.26840
    305845.45000  26877208.64700   2563176.28840  26877212.64340
  -1899325.39600  27418174.14000     -7702.27940  27418184.69040
  -2534205.84200  27252455.21000  -1060335.29640  27252460.24940
  -5606106.64500  24007518.34300  -4029181.21740  24007521.98740
  -8743599.81100  24242742.91300  -6725433.06440  24242746.80440
  -7924168.61000  25905068.23300  -6080249.98040  25905072.15940
  27351155.69600  27105939.56100  21509616.89040  27105942.63240
  -8233314.34500  25471666.92900  -6327860.48640  25471670.47940
 96  9  9  5 43  0.0110000  0  9  2  3 10 16 18 19 27 29 31
  -3827084.07300  27215506.31900  -2857300.28440  27215511.39340
    367045.00600  26888854.71000   2610864.27240  26888858.36640
  -1906732.87400  27416764.88200    -13474.37140  27416771.70240
  -2544413.76000  27250513.02200  -1068289.51040  27250518.03840
  -5531888.01200  24021641.68600  -3971348.53040  24021645.31940
  -8729114.25800  24245499.40500  -6714145.61140  24245503.35440
  -7957305.92900  25898762.24100  -6106071.26640  25898766.60140
  27478645.66000  27130200.16300  21608959.70340  27130203.83140
  -8240814.14600  25470239.45200  -6333704.47840  25470243.02640
 96  9  9  5 43 30.0110000  0  9  2  3 10 16 18 19 27 29 31
  -3878128.07100  27205792.52200  -2897074.80440  27205797.70240
    428768.55500  26900600.29600   2658960.55440  26900604.15140
  -1913606.40600  27415456.17100    -18830.38140  27415460.30840
  -2554142.76800  27248661.26500  -1075870.54940  27248665.39040
  -5457208.78000  24035852.74900  -3913156.93440  24035856.45240
  -8714434.36900  24248293.06100  -6702706.73440  24248296.96440
  -7990363.23900  25892471.92900  -6131830.20440  25892476.00740
  27606347.04700  27154500.97600  21708467.27540  27154504.84340
  -8247790.80800  25468911.56100  -6339140.82640  25468915.66340
 96  9  9  5 44  0.0110000  0  9  2  3 10 16 18 19 27 29 31
  -3928956.62800  27196120.38200  -2936681.44940  27196125.91340
    491034.73900  26912449.28000   2707479.65340  26912452.85440
  -1919960.39600  27414247.50700    -23781.50740  27414260.80040
  -2563390.21000  27246901.96000  -1083076.36640  27246907.21040
  -5382043.21800  24050156.01500  -3854586.37740  24050159.63640
  -8699574.65900  24251120.60800  -6691127.73540  24251124.51140
  -8023337.79900  25886196.78800  -6157524.64140  25886200.83140
  27734258.62000  27178841.82700  21808138.59440  27178845.69440
  -8254227.99100  25467686.78000  -6344156.80840  25467690.61240
 96  9  9  5 44 30.0110000  0  9  2  3 10 16 18 19 27 29 31
  -3979579.33500  27186486.82700  -2976127.70440  27186491.74940
    553843.73300  26924401.50700   2756421.71640  26924405.22240
  -1925816.52100  27413133.31100
  -2572159.19400  27245233.05400  -1089909.33640  27245237.92940
  -5306399.82500  24064550.73300  -3795643.48640  24064554.46040
  -8684562.26000  24253977.33500  -6679429.76240  24253981.26140
  -8056232.29400  25879937.20200  -6183156.70840  25879941.23340
  27862386.59200  27203223.81100  21907978.55840  27203227.47940
  -8260118.51900  25466565.79600  -6348746.80440  25466569.59340
 96  9  9  5 45  0.0110000  0  9  2  3 10 16 18 19 27 29 31
  -4029965.46800  27176898.88200  -3015389.59940  27176903.51140
    617216.45600  26936460.81900   2805803.07740  26936463.92540
  -1931155.15300  27412117.03800
  -2580417.74700  27243661.90500  -1096344.56440  27243665.35140
  -5230245.52000  24079042.28000  -3736302.48540  24079046.04240
  -8669373.58000  24256867.56900  -6667594.42440  24256871.50740
  -8089013.67900  25873698.81900  -6208700.63940  25873702.86240
  27990745.71300  27227649.65500  22007998.64240  27227653.94440
  -8265431.42900  25465554.77200  -6352886.73640  25465558.24140
 96  9  9  5 45 30.0110000  0  9  2  3 10 16 18 19 27 29 31
  -4080124.68100  27167353.34300  -3054474.69140  27167358.79240
    681134.37000  26948624.10100   2855609.23240  26948628.16740
  -1935980.10000  27411199.31100
  -2588148.74100  27242190.69400  -1102368.72140  27242196.14340
  -5153569.83300  24093633.26500  -3676555.20340  24093637.05040
  -8654011.75900  24259790.82700  -6655624.17540  24259794.80040
  -8121706.37800  25867477.89000  -6234175.44940  25867481.80440
  28119319.29500  27252116.72600  22108185.83140  27252119.51540
  -8270166.49600  25464653.77200  -6356576.38340  25464657.48740
 96  9  9  5 46  0.0120000  0  9  2  3 10 16 18 19 27 29 31
  -4130067.46500  27157849.93400  -3093391.13240  27157854.44540
    745586.31500  26960888.41800   2905831.53540  26960892.78940
  -1940296.87900  27410377.78500     -3246.16950  27410383.43440
  -2595328.83200  27240823.26900  -1107963.59140  27240829.53940
  -5076376.53000  24108322.80100  -3616404.58540  24108326.44540
  -8638473.92200  24262747.43400  -6643516.76540  24262751.33640
  -8154314.70100  25861272.70700  -6259584.52340  25861276.50440
  28248101.01800  27276623.12100  22208535.20040  27276625.59440
  -8274319.26500  25463863.54300  -6359812.29540  25463867.68040
 96  9  9  5 46 30.0120000  0  9  2  3 10 16 18 19 27 29 31
  -4179799.13500  27148385.98000  -3132143.05540  27148390.26940
    810536.97200  26973248.30100   2956442.43540  26973253.21140
  -1944107.91600  27409652.40200     -6215.80740  27409655.89440
  -2601964.14300  27239561.12900  -1113133.96940  27239565.93440
  -4998697.46100  24123104.45700  -3555875.45040  24123108.16040
  -8622758.09300  24265738.30100  -6631270.65740  24265742.13340
  -8186840.34000  25855083.30100  -6284929.16740  25855087.20340
  28377056.27600  27301162.34800  22309019.81140  27301165.60540
  -8277910.49200  25463180.10500  -6362610.64340  25463183.93740
 96  9  9  5 47  0.0120000  0  9  2  3 10 16 18 19 27 29 31
  -4229325.67100  27138962.28500  -3170735.15140  27138967.07840
    875988.03900  26985703.41800   3007443.26740  26985707.16840
  -1947401.29000  27409025.67600     -8782.08940  27409030.52740
  -2608051.11600  27238403.10500  -1117877.06040  27238407.09040
  -4920531.88700  24137978.84800  -3494967.21740  24137982.56240
  -8606826.30900  24268769.91800  -6618856.27640  24268773.89140
  -8219279.78100  25848910.06600  -6310206.64840  25848913.82840
  28506168.84900  27325731.97300  22409626.98240  27325735.54740
  -8280951.31900  25462601.36300  -6364980.10040  25462605.32440
 96  9  9  5 47 30.0120000  0  9  2  3 10 16 18 19 27 29 31
  -4278650.41900  27129575.72300  -3209170.00740  27129579.82440
    941953.62200  26998255.98800   3058845.01440  26998259.84440
  -1950192.22300  27408494.93400    -10956.84040  27408499.35140
  -2613588.55100  27237349.33200  -1122191.93640  27237355.41440
  -4841892.29900  24152943.60500  -3433689.63040  24152947.28540
  -8590669.10900  24271844.57400  -6606266.24940  24271848.46540
  -8251640.79900  25842752.09800  -6335423.02140  25842756.07040
  28635441.39200  27350331.37100  22510358.83340  27350335.14440
  -8283446.07600  25462126.66000  -6366924.05040  25462130.26940
 96  9  9  5 48  0.0120000  0  9  2  3 10 16 18 19 27 29 31
  -4327755.02800  27120231.30900  -3247433.32140  27120236.89840
   1008453.24000  27010910.76900   3110662.90440  27010914.05140
  -1952470.57900  27408061.53500    -12732.19040  27408066.01240
  -2618593.56600  27236397.39400  -1126091.93740  27236401.64840
  -4762772.14100  24167999.59800  -3372037.56840  24168003.33640
  -8574272.59000  24274964.75400  -6593489.73040  24274968.72640
  -8283908.24400  25836611.78500  -6360566.47540  25836615.72340
  28764893.97000  27374965.59000  22611230.95440  27374969.31640
  -8285398.97400  25461755.28500  -6368445.77140  25461758.78940
 96  9  9  5 48 30.0120000  0  9  2  3 10 16 18 19 27 29 31
  -4376639.20800  27110928.83200  -3285524.89140  27110934.22340
   1075491.47800  27023667.86300   3162900.50840  27023671.69540
  -1954232.68200  27407725.87100    -14105.25740  27407731.50840
  -2623096.07300  27235539.70700  -1129600.37440  27235544.11340
  -4683174.76800  24183146.38700  -3310013.65240  24183149.99640
  -8557638.47800  24278129.98800  -6580528.07940  24278133.86740
  -8316099.65100  25830486.04300  -6385650.68540  25830490.05140
  28894543.56900  27399636.85500  22712256.60140  27399640.87540
  -8286828.80100  25461483.01200  -6369559.91740  25461486.64440
 96  9  9  5 49  0.0120000  0  9  2  3 10 16 18 19 27 29 31
  -4425302.25500  27101668.88700  -3323444.11940  27101673.49240
   1143092.61800  27036531.36300   3215576.71540  27036535.23040
  -1955476.47300  27407489.05900    -15074.48040  27407494.74240
  -2627104.00300  27234777.12900  -1132723.44940  27234781.57040
  -4603092.01600  24198385.54300  -3247611.52640  24198389.34040
  -8540778.28600  24281338.40200  -6567390.26940  24281342.23440
  -8348216.24600  25824374.42600  -6410676.60040  25824378.34040
  29024414.60200  27424350.68400  22813454.80040  27424354.02340
  -8287725.65900  25461312.12100  -6370258.75440  25461315.85940
 96  9  9  5 49 30.0120000  0  9  2  3 10 16 18 19 27 29 31
  -4473742.99300  27092450.63700  -3361190.12740  27092455.58240
   1211251.52800  27049501.68400   3268687.55040  27049505.46940
  -1956199.66600  27407351.58200    -15637.96440  27407357.06640
  -2630622.12000  27234107.62100  -1135464.83240  27234112.93040
  -4522522.58700  24213717.59800  -3184830.15840  24213721.39440
  -8523721.41100  24284584.36300  -6554099.19540  24284588.30140
  -8380258.92500  25818276.87100  -6435644.90440  25818280.66840
  29154525.56700  27449110.01900  22914839.93540  27449113.82840
  -8288077.76600  25461245.40200  -6370533.11440  25461249.17640
 96  9  9  5 50  0.0120000  0  9  2  3 10 16 18 19 27 29 31
  -4521953.55300  27083276.30100  -3398756.79840  27083281.07040
   1279969.71700  27062578.84000   3322234.20640  27062582.39140
  -1956376.60800  27407317.12100    -15775.84440  27407321.90240
  -2633635.27100  27233534.74600  -1137812.75640  27233539.30540
  -4441447.25100  24229145.73000  -3121654.57140  24229149.51640
  -8506463.48900  24287868.41800  -6540651.45840  24287872.25040
  -8412199.33300  25812198.80900  -6460533.52440  25812202.65240
  29284896.11800  27473918.48000  23016427.36340  27473921.97340
  -8287856.72400  25461287.38700  -6370360.86140  25461290.82040
 96  9  9  5 50 30.0120000  0  9  2  3 10 16 18 19 27 29 31
  -4569950.09400  27074142.91800  -3436156.67240  27074147.82840
   1349233.06000  27075758.81600   3376205.64940  27075762.15640
  -1956016.88000  27407385.94100    -15495.54040  27407391.98840
  -2636147.49100  27233056.61300  -1139770.33340  27233061.26640
  -4359882.97500  24244666.84000  -3058097.99940  24244670.56640
  -8489019.46300  24291187.85500  -6527058.70040  24291191.72340
  -8444044.81700  25806138.70700  -6485348.17340  25806142.98440
  29415506.58800  27498772.82400  23118201.73840  27498778.07440
  -8287056.10900  25461439.70700  -6369736.99940  25461443.22340
 96  9  9  5 51  0.0120000  0  9  2  3 10 16 18 19 27 29 31
  -4617748.55000  27065047.48800  -3473402.21840  27065052.69140
   1419007.29200  27089036.73800   3430575.16440  27089040.50040
  -1955138.68600  27407553.96500    -14811.21740  27407558.78140
  -2638160.36300  27232674.15200  -1141338.78140  27232679.90640
  -4277837.68400  24260279.37900  -2994166.62540  24260283.05940
  -8471405.41100  24294539.70700  -6513333.46340  24294543.68040
  -8475804.43100  25800095.11300  -6510095.91240  25800099.25040
  29546316.15600  27523665.27700  23220131.28340  27523668.91040
  -8285685.22000  25461700.61300  -6368668.76740  25461704.29340
 96  9  9  5 51 30.0120000  0  9  2  3 10 16 18 19 27 29 31
  -4665351.58700  27055988.75400  -3510495.49040  27055993.60540
   1489264.16300  27102406.01900   3485320.78740  27102409.31240
  -1953743.97500  27407818.91000    -13724.45440  27407823.68040
  -2639673.64300  27232385.74600  -1142517.96540  27232389.90640
  -4195319.99000  24275982.29300  -2929867.13540  24275985.93740
  -8453615.94400  24297924.82400  -6499471.54440  24297928.73840
  -8507484.95400  25794066.60500  -6534782.02740  25794070.55540
  29677299.48200  27548590.46500  23322196.17240  27548594.59040
  -8283743.96900  25462069.90200  -6367156.09640  25462073.47640
 96  9  9  5 52  0.0120000  0  9  2  3 10 16 18 19 27 29 31
  -4712732.66900  27046972.30900  -3547415.79540  27046976.51640
   1560017.54800  27115869.78500   3540453.30040  27115873.25440
  -1951812.80300  27408186.52700    -12219.60940  27408190.71140
  -2640674.40800  27232195.19100  -1143297.78740  27232200.51240
  -4112327.93100  24291775.03500  -2865198.01040  24291778.75040
  -8435627.47100  24301347.87100  -6485454.54140  24301351.93740
  -8539077.13200  25788054.76900  -6559399.29040  25788058.46140
  29808460.35800  27573549.44900  23424399.44440  27573552.71940
  -8281222.00100  25462549.94900  -6365190.91640  25462553.51240
 96  9  9  5 52 30.0120000  0  9  2  3 10 16 18 19 27 29 31
  -4759879.80500  27038000.79300  -3584153.82940  27038005.00040
   1631258.54500  27129426.14400   3595965.75940  27129430.68040
  -1949347.01700  27408655.35500    -10298.22540  27408660.37140
  -2641161.04300  27232102.41000  -1143676.97940  27232107.06240
  -4028880.96600  24307654.58200  -2800174.40840  24307658.22640
  -8417441.44600  24304808.51200  -6471283.60640  24304812.36740
  -8570598.66300  25782056.41000  -6583961.50840  25782060.07840
  29939785.09800  27598540.48000  23526730.38040  27598543.79740
  -8278132.30400  25463138.01900  -6362783.34740  25463141.57040
 96  9  9  5 53  0.0120000  0  9  2  3 10 16 18 19 27 29 31
  -4806783.38000  27029074.98000  -3620702.04940  27029079.94940
   1702984.57800  27143075.51900   3651856.18640  27143079.66840
  -1946357.59100  27409224.62900     -7968.82540  27409229.56240
  -2641117.53900  27232111.28500  -1143643.08640  27232115.34040
  -3944980.21300  24323620.24600  -2734797.20440  24323623.96140
  -8399062.13200  24308306.18400  -6456962.05440  24308310.06240
  -8602045.83400  25776072.26200  -6608465.79040  25776076.03540
  30071270.04200  27623560.82400  23629186.16940  27623564.36340
  -8274472.98700  25463834.17600  -6359931.91840  25463837.73840
 96  9  9  5 53 30.0120000  0  9  2  3 10 16 18 19 27 29 31
  -4853429.88700  27020198.66000  -3657049.96640  27020203.94540
   1775218.34400  27156821.02700   3708142.24140  27156824.81240
  -1942839.54000  27409893.91000     -5227.49340  27409899.60540
  -2640534.58600  27232222.11300  -1143188.84540  27232226.70740
  -3860629.78800  24339671.63700  -2669069.60840  24339675.45740
  -8380485.41100  24311841.17600  -6442486.68540  24311845.07840
  -8633397.46000  25770106.14400  -6632895.62040  25770110.05940
  30202934.98800  27648615.68400  23731782.21640  27648618.98840
  -8270221.78700  25464643.12900  -6356619.28440  25464646.46940
 96  9  9  5 54  0.0120000  0  9  2  3 10 16 18 19 27 29 31
  -4899810.11100  27011372.69900  -3693190.39940  27011377.34040
   1847977.91400  27170666.84000   3764838.00540  27170670.62540
  -1938788.03900  27410664.41800     -2070.45340  27410668.36740
  -2639385.79100  27232439.81600  -1142293.67040  27232444.53940
  -3775829.81400  24355808.37100  -2602991.71340  24355812.20340
  -8361713.49100  24315413.30100  -6427859.21040  24315417.22640
  -8664638.90700  25764160.95700  -6657239.58940  25764164.82440
  30334789.56600  27673706.91800  23834526.03640  27673710.52740
  -8265380.11700  25465564.51900  -6352846.54840  25465567.88340
 96  9  9  5 54 30.0120000  0  9  2  3 10 16 18 19 27 29 31
  -4945923.57600  27002598.22300  -3729122.94640  27002602.75840
   1921265.38800  27184613.60500   3821945.13240  27184616.47640
  -1934221.47700  27411534.70700      1487.89540  27411540.06240
  -2637660.91500  27232768.59000  -1140949.64740  27232774.18040
  -3690559.27100  24372035.05900  -2536547.14340  24372038.79740
  -8342742.00400  24319023.38700  -6413076.22440  24319027.41840
  -8695760.10200  25758238.82400  -6681489.86440  25758242.59840
  30466833.88200  27698834.19900  23937417.68240  27698836.78940
  -8259942.40200  25466599.38700  -6348609.36340  25466603.06640
 96  9  9  5 55  0.0120000  0  9  2  3 10 16 18 19 27 29 31
  -4991791.17900  26993869.72300  -3764863.93840  26993874.29340
   1995068.57200  27198657.30100   3879454.11840  27198661.21540
  -1929148.45900  27412498.98800      5440.89140  27412503.95740
  -2635377.75400  27233203.21500  -1139170.55740  27233209.06240
  -3604808.00600  24388353.02700  -2469727.98540  24388356.67240
  -8323573.48200  24322671.08200  -6398139.70540  24322674.91440
  -8726757.21600  25752340.37900  -6705643.45240  25752344.12940
  30599064.27800  27723996.36300  24040454.34640  27724000.93440
  -8253924.00100  25467744.50400  -6343919.68740  25467748.38340
 96  9  9  5 55 30.0120000  0  9  2  3 10 16 18 19 27 29 31
  -5037412.47100  26985187.92600  -3800412.97340  26985192.57840
   2069386.08700  27212799.60500   3937363.86340  27212804.01240
  -1923547.51300  27413564.66800      9805.24740  27413568.61740
  -2632541.42900  27233742.34000  -1136960.44840  27233746.68740
  -3518568.59100  24404763.75400  -2402528.44440  24404767.51640
  -8304196.21900  24326358.61300  -6383040.53540  24326362.45740
  -8757629.35000  25746465.62900  -6729699.65440  25746469.56640
  30731507.30800  27749199.68400  24143656.69140  27749204.14840
  -8247330.42300  25468999.41800  -6338781.82540  25469002.86340
 96  9  9  5 56  0.0120000  0  9  2  3 10 16 18 19 27 29 31
  -5082769.00700  26976556.94900  -3835755.71540  26976561.82440
   2144228.36700  27227041.36300   3995682.53240  27227044.28140
  -1917401.05200  27414734.37900     14594.71440  27414739.13740
  -2629136.35200  27234390.53500  -1134307.13340  27234396.01940
  -3431818.53400  24421271.81600  -2334931.01040  24421275.59040
  -8284583.38800  24330090.76900  -6367757.80640  24330094.64840
  -8788366.99100  25740616.42600  -6753651.05940  25740620.45740
  30864185.33900  27774446.98000  24247042.15340  27774450.62540
  -8240153.55900  25470365.18400  -6333189.45240  25470368.66440
 96  9  9  5 56 30.0120000  0  9  2  3 10 16 18 19 27 29 31
  -5127902.42600  26967968.26200  -3870924.62040  26967972.85540
   2219551.07200  27241374.80100   4054375.56040  27241378.82040
  -1910742.37300  27416001.72300     19783.28440  27416005.96540
  -2625214.33700  27235136.55100  -1131251.05440  27235140.20740
  -3344581.08600  24437872.54300  -2266953.78940  24437876.38740
  -8264759.93600  24333863.04300  -6352310.95240  24333866.87540
  -8819006.06300  25734786.01900  -6777525.65640  25734789.94540
  30997060.59400  27799732.35500  24350581.29640  27799735.51940
  -8232418.94600  25471837.02700  -6327162.47240  25471840.68440
 96  9  9  5 57  0.0120000  0  9  2  3 10 16 18 19 27 29 31
  -5172818.59300  26959421.10500  -3905924.20840  26959425.87540
   2295349.46800  27255798.74600   4113439.25540  27255802.76640
  -1903545.53400  27417370.86300     25391.17840  27417376.05540
  -2620781.78100  27235980.49600  -1127797.12440  27235984.53940
  -3256870.55000  24454563.29300  -2198607.93340  24454567.07840
  -8244731.61300  24337674.12100  -6336704.46640  24337677.97640
  -8849561.44700  25728971.46500  -6801335.04140  25728975.32040
  31130119.05400  27825053.16000  24454263.19240  27825057.26240
  -8224118.71400  25473416.25400  -6320694.75140  25473419.93440
 96  9  9  5 57 30.0120000  0  9  2  3 10 16 18 19 27 29 31
  -5217518.73500  26950914.73800  -3940755.47440  26950919.48440
   2371636.44400  27270315.48800   4172883.65040  27270319.22640
  -1895815.31400  27418841.93400     31414.73440  27418846.75040
  -2615829.96000  27236923.03500  -1123938.55440  27236927.85140
  -3168707.93100  24471340.18400  -2129909.80240  24471344.00440
  -8224505.70400  24341522.89400  -6320944.01140  24341526.84440
  -8880048.59400  25723169.94100  -6825091.26340  25723173.77340
  31263340.57800  27850404.60500  24558072.17540  27850408.71940
  -8215229.87000  25475107.81600  -6313768.36540  25475111.43740
